     2.10           OBSERVATION DATA    G (GPS)             RINEX VERSION / TYPE
teqc 2000Jul20 Karen Wendt 20040525 20:58:31UTC             PGM / RUN BY / DATE
Linux 2.0.36|Pentium II|gcc -static|Linux|486/DX+           COMMENT
teqc 2000Jul20 Karen Wendt 20040525 20:58:30UTC             COMMENT
BIT 2 OF LLI FLAGS DATA COLLECTED UNDER A/S CONDITION       COMMENT
sage Sage_1966_Calif_Div_Hwys                               MARKER NAME
GDH USGS                                                    OBSERVER / AGENCY
04600 ASHTECH Z-XII3 CD00                                   REC # / TYPE / VERS
CR620022602 ASH701945E_M NONE                               ANT # / TYPE
 -2457268.0000 -4249459.0000  4061155.0000                  APPROX POSITION XYZ
        1.1742        0.0000        0.0000                  ANTENNA: DELTA H/E/N
     1     1                                                WAVELENGTH FACT L1/2
     5    C1    L1    L2    P1    P2                        # / TYPES OF OBSERV
    30.0000                                                 INTERVAL
                                                            COMMENT
National Earthquake Hazard Reduction Program                COMMENT
Crustal Strain Project                                      COMMENT
345 Middlefield Road, MS/977                                COMMENT
U.S. Geological Survey, Menlo Park, California 94025        COMMENT
Contact: kwendt@usgs.gov (Ph: 650-329-4866)                 COMMENT
Antenna height is vertical to base of antenna               COMMENT
                                                            COMMENT
SNR is mapped to RINEX snr flag value [1-9]                 COMMENT
L1: 1 -> 1; 90 -> 5; 210 -> 9                               COMMENT
L2: 1 -> 1; 150 -> 5; 250 -> 9                              COMMENT
  2004     5    21     0     0   30.0000000     GPS         TIME OF FIRST OBS
                                                            END OF HEADER
 04  5 21  0  0 30.0000000  0  6G11G20G30G25G14G 1
  21458174.758   -23719436.92949 -17671903.29247  21458174.865    21458181.530
  22606628.405   -16989532.71549 -12536711.62946  22606628.057    22606635.977
  24122365.216    -4196603.88749  -3248293.21745  24122365.903    24122374.821
  20659909.793   -28354099.21949 -20552331.78048  20659910.012    20659916.791
  22767523.832   -11913556.03449  -8849654.55746  22767523.791    22767530.795
  23418489.845   -12266785.04749  -9535168.79645  23418489.807    23418500.573
 04  5 21  0  1  0.0000000  0  6G11G20G30G25G14G 1
  21462004.273   -23699312.61349 -17656222.02447  21462004.374    21462011.087
  22590496.732   -17074304.95249 -12602767.84346  22590496.375    22590504.275
  24120465.320    -4206587.76749  -3256072.83545  24120466.070    24120475.191
  20659902.872   -28354135.51349 -20552360.04248  20659903.087    20659909.875
  22782375.256   -11835511.33549  -8788840.53846  22782375.230    22782382.145
  23404083.583   -12342489.88049  -9594159.44945  23404083.510    23404094.248
 04  5 21  0  1 30.0000000  0  6G11G20G30G25G14G 1
  21465936.631   -23678647.97149 -17640119.72347  21465936.751    21465943.453
  22574389.038   -17158951.06049 -12668725.79046  22574388.706    22574396.579
  24118665.835    -4216043.99149  -3263441.30545  24118666.624    24118675.667
  20659997.422   -28353638.64149 -20551972.85448  20659997.641    20660004.428
  22797241.856   -11757387.01949  -8727964.49646  22797241.798    22797248.763
  23389709.951   -12418023.39049  -9653016.58145  23389709.851    23389720.515
 04  5 21  0  2  0.0000000  0  6G11G20G30G25G14G 1
  21469971.790   -23657443.17349 -17623596.52447  21469971.918    21469978.575
  22558305.772   -17243468.97249 -12734583.83946  22558305.480    22558313.316
  24116967.159    -4224970.99249  -3270397.38845  24116967.881    24116976.995
  20660193.324   -28352609.02849 -20551170.54248  20660193.556    20660200.328
  22812123.550   -11679183.56349  -8667026.78446  22812123.465    22812130.436
  23375368.934   -12493384.71649  -9711739.55445  23375368.899    23375379.588
 04  5 21  0  2 30.0000000  0  6G11G20G30G25G14G 1
  21474109.565   -23635699.16549 -17606653.16447  21474109.683    21474116.349
  22542247.258   -17327856.68949 -12800340.44246  22542246.957    22542254.789
  24115369.420    -4233367.45049  -3276940.08445  24115370.008    24115379.185
  20660490.637   -28351046.64949 -20549953.08848  20660490.870    20660497.650
  22827020.081   -11600901.79849  -8606028.06246  22827020.023    22827026.986
  23361060.855   -12568573.32949  -9770327.95145  23361060.864    23361071.472
 04  5 21  0  3  0.0000000  0  6G11G20G30G25G14G 1
  21478349.579   -23613417.72249 -17589291.01747  21478349.698    21478356.364
  22526213.625   -17412113.60049 -12865995.12446  22526213.377    22526221.176
  24113872.318    -4241233.43149  -3283069.38445  24113872.973    24113882.256
  20660889.000   -28348953.23849 -20548321.84048  20660889.214    20660895.998
  22841931.170   -11522543.58549  -8544969.75446  22841931.120    22841938.073
  23346785.515   -12643590.22549  -9828782.52746  23346785.547    23346796.046
 04  5 21  0  3 30.0000000  0  6G11G20G30G25G14G 1
  21482691.651   -23590599.98849 -17571510.98347  21482691.762    21482698.489
  22510205.144   -17496238.19249 -12931546.69346  22510204.910    22510212.689
  24112476.548    -4248567.84149  -3288784.51545  24112477.189    24112486.679
  20661388.275   -28346329.34749 -20546277.23448  20661388.499    20661395.305
  22856856.652   -11444109.85849  -8483852.61446  22856856.618    22856863.594
  23332543.056   -12718435.14249  -9887103.09646  23332543.066    23332553.402
 04  5 21  0  4  0.0000000  0  6G11G20G30G25G14G 1
  21487135.754   -23567246.17649 -17553313.22747  21487135.875    21487142.600
  22494222.435   -17580227.65649 -12996992.96946  22494222.194    22494229.889
  24111182.368    -4255368.92049  -3294084.01945  24111182.805    24111192.755
  20661988.557   -28343174.72549 -20543819.07248  20661988.803    20661995.575
  22871796.413   -11365600.83349  -8422676.78746  22871796.345    22871803.415
  23318333.386   -12793107.09349  -9945288.88546  23318333.414    23318343.821
 04  5 21  0  4 30.0000000  0  6G11G20G30G25G14G 1
  21491681.500   -23543358.00249 -17534699.08247  21491681.628    21491688.355
  22478265.648   -17664081.21349 -13062333.33146  22478265.351    22478273.042
  24109989.785    -4261636.25049  -3298967.61545  24109990.281    24110000.086
  20662689.573   -28339490.90549 -20540948.54248  20662689.817    20662696.551
  22886750.113   -11287018.45249  -8361443.81146  22886750.063    22886757.259
  23304156.616   -12867606.75249 -10003340.44046  23304156.489    23304166.931
 04  5 21  0  5  0.0000000  0  6G11G20G30G25G14G 1
  21496328.933   -23518935.62749 -17515668.68347  21496329.051    21496335.785
  22462335.258   -17747795.97949 -13127565.56446  22462334.949    22462342.633
  24108898.755    -4267368.32249  -3303434.13845  24108899.326    24108908.809
  20663491.329   -28335277.53649 -20537665.38648  20663491.552    20663498.298
  22901717.847   -11208362.23749  -8300153.29946  22901717.821    22901725.123
  23290012.727   -12941932.77049 -10061256.67346  23290012.600    23290023.046
 04  5 21  0  5 30.0000000  0  6G11G20G30G25G14G 1
  21501077.853   -23493980.21049 -17496222.92447  21501077.953    21501084.680
  22446431.408   -17831370.87249 -13192688.79746  22446431.109    22446438.822
  24107909.558    -4272564.25549  -3307482.90145  24107910.370    24107920.060
  20664393.720   -28330535.46249 -20533970.25048  20664393.938    20664400.703
  22916699.438   -11129633.52149  -8238806.29246  22916699.429    22916706.755
  23275901.785   -13016085.31249 -10119037.74346  23275901.629    23275912.188
 04  5 21  0  6  0.0000000  0  6G11G20G30G25G14G 1
  21505927.850   -23468493.38949 -17476363.08047  21505927.946    21505934.666
  22430554.456   -17914804.35049 -13257701.83646  22430554.190    22430561.898
  24107023.013    -4277223.32749  -3311113.36045  24107023.864    24107033.145
  20665396.522   -28325265.58249 -20529863.83548  20665396.744    20665403.502
  22931694.612   -11050833.57849  -8177403.79246  22931694.588    22931701.923
  23261823.875   -13090064.36149 -10176683.63246  23261823.755    23261834.309
 04  5 21  0  6 30.0000000  0  6G11G20G30G25G14G 1
  21510878.586   -23442477.16249 -17456090.71947  21510878.679    21510885.411
  22414704.540   -17998095.83049 -13322604.23446  22414704.273    22414711.982
  24106239.179    -4281345.92849  -3314325.74445  24106239.688    24106248.925
  20666499.436   -28319469.79749 -20525347.62648  20666499.670    20666506.386
  22946702.947   -10971964.47449  -8115947.40946  22946702.958    22946710.315
  23247778.808   -13163871.03149 -10234195.17646  23247778.748    23247789.186
 04  5 21  0  7  0.0000000  0  6G11G20G30G25G14G 1
  21515929.854   -23415932.47049 -17435406.55547  21515929.982    21515936.715
  22398882.106   -18081243.14349 -13387394.29546  22398881.827    22398889.515
  24105557.069    -4284930.95249  -3317119.23545  24105557.630    24105566.695
  20667702.280   -28313148.60549 -20520422.00848  20667702.527    20667709.232
  22961724.357   -10893026.66649  -8054437.47146  22961724.368    22961731.714
  23233766.701   -13237504.83249 -10291572.04246  23233766.678    23233777.002
 04  5 21  0  7 30.0000000  0  6G11G20G30G25G14G 1
  21521081.781   -23388859.16849 -17414310.50047  21521081.895    21521088.630
  22383087.523   -18164243.57649 -13452069.89646  22383087.281    22383094.959
  24104977.267    -4287976.29049  -3319492.23345  24104977.981    24104987.137
  20669005.250   -28306301.61349 -20515086.67848  20669005.475    20669012.181
  22976759.003   -10814019.82449  -7992873.74846  22976758.951    22976766.253
  23219787.745   -13310964.47449 -10348813.18746  23219787.656    23219797.910
 04  5 21  0  8  0.0000000  0  6G11G20G30G25G14G 1
  21526333.974   -23361258.89549 -17392803.81547  21526334.089    21526340.822
  22367321.342   -18247095.36049 -13516629.67246  22367321.136    22367328.762
  24104500.626    -4290481.44449  -3321444.28145  24104501.430    24104510.161
  20670408.045   -28298929.65649 -20509342.28048  20670408.284    20670414.993
  22991806.436   -10734945.23849  -7931257.23146  22991806.423    22991813.744
  23205841.828   -13384249.90949 -10405918.59246  23205841.800    23205852.000
 04  5 21  0  8 30.0000000  0  6G11G20G30G25G14G 1
  21531686.054   -23333133.69149 -17370888.08947  21531686.144    21531692.889
  22351583.629   -18329797.72649 -13581073.01446  22351583.371    22351590.915
  24104126.790    -4292446.65249  -3322975.58145  24104127.570    24104136.480
  20671910.503   -28291034.18449 -20503189.95348  20671910.734    20671917.437
  23006866.467   -10655804.65349  -7869589.28846  23006866.438    23006873.693
  23191928.988   -13457361.89149 -10462888.82846  23191928.972    23191939.072
 04  5 21  0  9  0.0000000  0  6G11G20G30G25G14G 1
  21537137.900   -23304483.80349 -17348563.51747  21537138.050    21537144.793
  22335874.835   -18412348.01049 -13645397.85946  22335874.576    22335882.031
  24103855.918    -4293869.90149  -3324084.60345  24103856.817    24103865.541
  20673512.544   -28282615.25049 -20496629.73348  20673512.765    20673519.469
  23021939.071   -10576597.99849  -7807869.87346  23021939.043    23021946.248
  23178049.292   -13530299.26849 -10519723.01446  23178049.281    23178059.480
 04  5 21  0  9 30.0000000  0  6G11G20G30G25G14G 1
  21542689.337   -23275310.51649 -17325831.10547  21542689.467    21542696.287
  22320195.206   -18494744.74249 -13709603.05446  22320194.971    22320202.391
  24103688.325    -4294750.98649  -3324771.13745  24103689.064    24103697.851
  20675213.943   -28273674.21649 -20489662.68648  20675214.167    20675220.880
  23037023.968   -10497326.39449  -7746099.86046  23037023.880    23037031.184
  23164202.911   -13603062.25849 -10576421.31646  23164202.847    23164213.039
 04  5 21  0 10  0.0000000  0  6G11G20G30G25G14G 1
  21548340.138   -23245615.48749 -17302692.13447  21548340.274    21548347.065
  22304545.158   -18576986.14249 -13773687.20546  22304544.905    22304552.345
  24103623.946    -4295089.10249  -3325034.56745  24103624.788    24103633.304
  20677014.617   -28264211.61749 -20482289.22048  20677014.850    20677021.539
  23052121.039   -10417990.67649  -7684279.87546  23052120.979    23052128.378
  23150389.662   -13675650.56849 -10632983.48746  23150389.629    23150399.843
 04  5 21  0 10 30.0000000  0  6G11G20G30G25G14G 1
  21554089.975   -23215400.13749 -17279147.72547  21554090.084    21554096.864
  22288924.991   -18659070.61449 -13837649.07346  22288924.709    22288932.150
  24103662.988    -4294883.96449  -3324874.71245  24103663.701    24103672.348
  20678914.305   -28254228.61649 -20474510.24748  20678914.535    20678921.226
  23067230.079   -10338591.89249  -7622410.75846  23067230.019    23067237.463
  23136609.635   -13748064.33149 -10689409.67746  23136609.649    23136619.851
 04  5 21  0 11  0.0000000  0  6G11G20G30G25G14G 1
  21559938.796   -23184664.54949 -17255197.93747  21559938.915    21559945.696
  22273335.245   -18740995.15649 -13901486.33046  22273334.941    22273342.388
  24103805.581    -4294133.58349  -3324289.95445  24103806.362    24103814.928
  20680913.093   -28243724.76549 -20466325.42248  20680913.332    20680920.001
  23082351.273   -10259129.86149  -7560492.34046  23082351.191    23082358.685
  23122863.067   -13820302.25349 -10745698.83346  23122863.065    23122873.280
 04  5 21  0 11 30.0000000  0  6G11G20G30G25G14G 1
  21565886.034   -23153411.50049 -17230844.92947  21565886.178    21565892.946
  22257776.001   -18822759.60549 -13965198.83746  22257775.653    22257783.080
  24104051.910    -4292838.96049  -3323281.15145  24104052.622    24104061.146
  20683010.528   -28232702.85049 -20457736.90548  20683010.759    20683017.399
  23097484.036   -10179606.74049  -7498526.32346  23097484.054    23097491.509
  23109149.695   -13892365.95649 -10801852.22446  23109149.639    23109159.841
 04  5 21  0 12  0.0000000  0  6G11G20G30G25G14G 1
  21571931.606   -23121642.05549 -17206089.54147  21571931.742    21571938.511
  22242247.576   -18904361.92449 -14028785.00846  22242247.203    22242254.597
  24104402.011    -4290999.22549  -3321847.57245  24104402.719    24104411.038
  20685206.490   -28221162.97849 -20448744.78848  20685206.699    20685213.345
  23112628.367   -10100023.10249  -7436513.15646  23112628.380    23112635.763
  23095469.668   -13964254.75549 -10857869.32146  23095469.559    23095479.678
 04  5 21  0 12 30.0000000  0  6G11G20G30G25G14G 1
  21578075.219   -23089357.54149 -17180932.80047  21578075.319    21578082.071
  22226750.353   -18985800.05149 -14092243.24246  22226749.981    22226757.337
  24104855.897    -4288613.41049  -3319988.49945  24104856.504    24104864.813
  20687500.768   -28209106.28149 -20439349.95048  20687501.011    20687507.642
  23127784.124   -10020379.82749  -7374453.50446  23127784.088    23127791.497
  23081822.884   -14035968.42149 -10913749.97246  23081822.767    23081832.810
 04  5 21  0 13  0.0000000  0  6G11G20G30G25G14G 1
  21584316.313   -23056560.21749 -17155376.46347  21584316.439    21584323.213
  22211284.515   -19067072.97649 -14155572.73646  22211284.188    22211291.569
  24105413.881    -4285681.98249  -3317704.22645  24105414.390    24105422.491
  20689893.087   -28196534.47049 -20429553.72348  20689893.325    20689899.977
  23142950.792    -9940678.39249  -7312348.54246  23142950.748    23142958.239
  23068209.341   -14107507.67149 -10969494.71646  23068209.201    23068219.235
 04  5 21  0 13 30.0000000  0  6G11G20G30G25G14G 1
  21590655.001   -23023250.27449 -17129420.69247  21590655.140    21590661.904
  22195850.763   -19148177.68849 -14218771.17646  22195850.423    22195857.817
  24106075.880    -4282203.29449  -3314993.53345  24106076.332    24106084.447
  20692383.436   -28183447.48549 -20419356.06748  20692383.671    20692390.312
  23158128.584    -9860918.48549  -7250198.02946  23158128.591    23158136.042
  23054629.173   -14178871.29449 -11025102.60146  23054629.003    23054639.097
 04  5 21  0 14  0.0000000  0  6G11G20G30G25G14G 1
  21597090.828   -22989429.68849 -17103067.00847  21597090.965    21597097.751
  22180449.214   -19229112.80549 -14281837.45346  22180448.925    22180456.314
  24106841.875    -4278177.05549  -3311856.20745  24106842.430    24106850.846
  20694971.590   -28169846.57149 -20408757.94048  20694971.839    20694978.488
  23173317.412    -9781101.38549  -7188002.93746  23173317.396    23173324.755
  23041082.457   -14250059.52949 -11080573.81946  23041082.261    23041092.335
 04  5 21  0 14 30.0000000  0  6G11G20G30G25G14G 1
  21603623.669   -22955099.44949 -17076316.19647  21603623.793    21603630.590
  22165080.459   -19309876.18549 -14344769.90547  22165080.144    22165087.568
  24107712.295    -4273602.78149  -3308291.83645  24107712.758    24107721.350
  20697657.403   -28155732.42849 -20397759.89448  20697657.640    20697664.288
  23188516.988    -9701227.44249  -7125763.55546  23188516.954    23188524.270
  23027569.165   -14321071.80049 -11135907.93146  23027569.016    23027578.974
 04  5 21  0 15  0.0000000  0  6G11G20G30G25G14G 1
  21610253.075   -22920261.87749 -17049170.06247  21610253.193    21610259.994
  22149744.492   -19390466.82449 -14407567.75747  22149744.181    22149751.619
  24108687.222    -4268480.52349  -3304300.47845  24108687.743    24108696.090
  20700440.559   -28141106.87749 -20386363.35348  20700440.813    20700447.454
  23203727.102    -9621298.33149  -7063481.20146  23203727.054    23203734.278
  23014089.175   -14391908.92849 -11191105.57046  23014089.058    23014098.942
 04  5 21  0 15 30.0000000  0  6G11G20G30G25G14G 1
  21616978.912   -22884917.47849 -17021628.99647  21616979.037    21616985.826
  22134441.955   -19470881.97749 -14470228.87247  22134441.655    22134449.098
  24109766.407    -4262809.11549  -3299881.15545  24109767.066    24109775.629
  20703321.027   -28125969.80549 -20374568.22348  20703321.289    20703327.937
  23218947.698    -9541313.91149  -7001155.72946  23218947.666    23218954.858
  23000642.802   -14462569.91549 -11246165.94446  23000642.647    23000652.483
 04  5 21  0 16  0.0000000  0  6G11G20G30G25G14G 1
  21623800.843   -22849068.10649 -16993694.44147  21623800.964    21623807.771
  22119173.154   -19551120.06549 -14532752.00747  22119172.845    22119180.291
  24110950.042    -4256588.46349  -3295033.85445  24110950.676    24110959.389
  20706298.538   -28110322.80349 -20362375.73948  20706298.798    20706305.453
  23234178.576    -9461275.29249  -6938788.05146  23234178.523    23234185.698
  22987229.844   -14533055.09049 -11301089.34346  22987229.692    22987239.556
 04  5 21  0 16 30.0000000  0  6G11G20G30G25G14G 1
  21630718.669   -22812714.44049 -16965366.93847  21630718.825    21630725.639
  22103938.480   -19631178.40549 -14595135.08147  22103938.202    22103945.644
  24112238.586    -4249817.19449  -3289757.56645  24112239.304    24112247.962
  20709373.087   -28094165.94749 -20349785.97348  20709373.349    20709379.999
  23249419.845    -9381182.36349  -6876378.03746  23249419.701    23249426.895
  22973850.578   -14603363.29349 -11355874.82746  22973850.454    22973860.211
 04  5 21  0 17  0.0000000  0  6G11G20G30G25G14G 1
  21637731.812   -22775860.27849 -16936649.43547  21637731.950    21637738.749
  22088738.042   -19711057.34949 -14657378.36647  22088737.745    22088745.154
  24113631.388    -4242497.24249  -3284053.70845  24113632.029    24113640.960
  20712543.967   -28077502.66949 -20336801.58848  20712544.224    20712550.875
  23264671.019    -9301037.87349  -6813927.83846  23264670.843    23264677.992
  22960504.491   -14673496.75049 -11410524.16146  22960504.394    22960514.089
 04  5 21  0 17 30.0000000  0  6G11G20G30G25G14G 1
  21644840.279   -22738505.20149 -16907541.60647  21644840.419    21644847.239
  22073572.470   -19790752.87849 -14719478.73047  22073572.194    22073579.554
  24115129.300    -4234626.17749  -3277920.40645  24115129.872    24115138.876
  20715811.396   -28060332.08749 -20323421.90848  20715811.682    20715818.324
  23279932.093    -9220840.66649  -6751436.57246  23279931.958    23279939.028
  22947192.124   -14743453.29949 -11465035.65446  22947192.000    22947201.604
 04  5 21  0 18  0.0000000  0  6G11G20G30G25G14G 1
  21652043.532   -22700651.84549 -16878045.51147  21652043.662    21652050.484
  22058441.934   -19870264.50049 -14781435.78847  22058441.639    22058448.965
  24116731.794    -4226205.23049  -3271358.63145  24116732.314    24116741.097
  20719174.926   -28042656.54149 -20309648.74648  20719175.203    20719181.816
  23295202.727    -9140593.08549  -6688906.04645  23295202.596    23295209.611
  22933913.183   -14813234.31049 -11519410.36146  22933913.053    22933922.607
 04  5 21  0 18 30.0000000  0  6G11G20G30G25G14G 1
  21659341.313   -22662301.87149 -16848162.44347  21659341.440    21659348.296
  22043346.801   -19949590.10649 -14843247.90547  22043346.479    22043353.733
  24118439.096    -4217233.61849  -3264367.75145  24118439.592    24118448.206
  20722634.389   -28024476.89349 -20295482.77748  20722634.649    20722641.274
  23310482.930    -9060295.23949  -6626336.35145  23310482.799    23310489.880
  22920667.795   -14882839.26649 -11573647.88846  22920667.612    22920677.186
 04  5 21  0 19  0.0000000  0  6G11G20G30G25G14G 1
  21666733.366   -22623456.20349 -16817893.11747  21666733.503    21666740.426
  22028287.546   -20028726.91849 -14904912.90347  22028287.214    22028294.436
  24120251.358    -4207710.44049  -3256947.10445  24120251.867    24120260.291
  20726189.658   -28005793.82549 -20280924.53348  20726189.917    20726196.536
  23325772.628    -8979947.28749  -6563727.61445  23325772.513    23325779.634
  22907455.918   -14952267.35449 -11627747.58746  22907455.729    22907465.333
 04  5 21  0 19 30.0000000  0  6G11G20G30G25G14G 1
  21674219.580   -22584116.05649 -16787238.47947  21674219.740    21674226.689
  22013264.535   -20107672.87749 -14966429.19147  22013264.245    22013271.482
  24122168.572    -4197635.19649  -3249096.26045  24122169.180    24122177.496
  20729840.574   -27986608.15749 -20265974.65448  20729840.830    20729847.433
  23341071.718    -8899549.72549  -6501080.21745  23341071.593    23341078.832
  22894277.648   -15021518.16849 -11681709.16146  22894277.542    22894287.211
 04  5 21  0 20  0.0000000  0  6G11G20G30G25G14G 1
  21681799.337   -22544284.41349 -16756200.86747  21681799.483    21681806.437
  21998277.984   -20186427.19449 -15027796.13647  21998277.709    21998284.977
  24124190.617    -4187009.05949  -3240816.14845  24124191.219    24124199.476
  20733586.693   -27966922.17849 -20250634.91748  20733586.956    20733593.551
  23356379.880    -8819104.58149  -6438395.75845  23356379.754    23356387.129
  22881133.091   -15090593.00649 -11735533.61246  22881132.961    22881142.597
 04  5 21  0 20 30.0000000  0  6G11G20G30G25G14G 1
  21689472.433   -22503962.35049 -16724781.10347  21689472.531    21689479.490
  21983328.382   -20264987.68549 -15089012.05847  21983328.119    21983335.367
  24126317.595    -4175831.15549  -3232106.09445  24126318.227    24126326.726
  20737427.945   -27946736.20349 -20234905.57948  20737428.207    20737434.809
  23371697.113    -8738611.94449  -6375674.30245  23371697.081    23371704.469
  22868022.115   -15159491.25249 -11789220.44646  22868021.978    22868031.571
 04  5 21  0 21  0.0000000  0  6G11G20G30G25G14G 1
  21697238.471   -22463151.40549 -16692980.39047  21697238.594    21697245.545
  21968416.087   -20343352.45649 -15150075.46547  21968415.802    21968422.994
  24128549.658    -4164101.30049  -3222965.96445  24128550.281    24128558.757
  20741364.014   -27926051.92549 -20218787.94648  20741364.282    20741370.871
  23387023.363    -8658072.36749  -6312916.24845  23387023.350    23387030.745
  22854944.733   -15228212.71449 -11842769.53646  22854944.621    22854954.221
 04  5 21  0 21 30.0000000  0  6G11G20G30G25G14G 1
  21705097.151   -22421853.66649 -16660800.35747  21705097.294    21705104.246
  21953541.396   -20421519.40949 -15210984.73047  21953541.060    21953548.236
  24130886.929    -4151819.42549  -3213395.65545  24130887.614    24130895.848
  20745394.724   -27904870.67449 -20202283.06348  20745394.982    20745401.522
  23402358.339    -8577486.73049  -6250122.31645  23402358.384    23402365.784
  22841901.032   -15296757.42049 -11896180.88646  22841900.931    22841910.526
 04  5 21  0 22  0.0000000  0  6G11G20G30G25G14G 1
  21713048.210   -22380070.90449 -16628242.38047  21713048.359    21713055.323
  21938704.611   -20499486.70749 -15271738.42447  21938704.311    21938711.474
  24133329.077    -4138985.61449  -3203395.27745  24133329.863    24133338.290
  20749519.701   -27883193.67049 -20185391.88448  20749519.946    20749526.489
  23417701.883    -8496855.92649  -6187293.19546  23417701.962    23417709.419
  22828890.973   -15365125.53749 -11949454.64446  22828890.858    22828900.389
 04  5 21  0 22 30.0000000  0  6G11G20G30G25G14G 1
  21721091.283   -22337804.55649 -16595307.59647  21721091.431    21721098.342
  21923906.293   -20577252.26749 -15332334.91847  21923905.976    21923913.125
  24135876.242    -4125599.41549  -3192964.49345  24135877.140    24135885.560
  20753738.820   -27861022.05149 -20168115.29048  20753739.065    20753745.620
  23433053.998    -8416180.27449  -6124429.12646  23433054.024    23433061.569
  22815914.546   -15433316.82049 -12002590.61046  22815914.451    22815923.947
 04  5 21  0 23  0.0000000  0  6G11G20G30G25G14G 1
  21729225.904   -22295056.91449 -16561997.77147  21729226.020    21729232.939
  21909146.620   -20654814.46249 -15392772.94447  21909146.294    21909153.455
  24138528.624    -4111661.35349  -3182103.65645  24138529.354    24138538.179
  20758051.778   -27838357.34949 -20150454.47548  20758052.020    20758058.559
  23448414.461    -8335460.51249  -6061530.67446  23448414.480    23448422.098
  22802971.647   -15501331.44549 -12055588.91846  22802971.611    22802981.085
 04  5 21  0 23 30.0000000  0  6G11G20G30G25G14G 1
  21737451.744   -22251829.79749 -16528314.32347  21737451.845    21737458.803
  21894425.992   -20732171.48849 -15453051.10547  21894425.655    21894432.867
  24141286.021    -4097171.14049  -3170812.56545  24141286.834    24141295.436
  20762458.322   -27815200.66549 -20132410.30348  20762458.559    20762465.111
  23463783.147    -8254697.74849  -5998598.72746  23463783.151    23463790.801
  22790062.437   -15569169.35949 -12108449.53246  22790062.418    22790071.885
 04  5 21  0 24  0.0000000  0  6G11G20G30G25G14G 1
  21745768.591   -22208124.22149 -16494258.05747  21745768.728    21745775.710
  21879744.940   -20809320.65249 -15513167.29347  21879744.618    21879751.825
  24144148.729    -4082128.27349  -3159090.85445  24144149.423    24144158.093
  20766958.339   -27791552.86649 -20113983.44148  20766958.584    20766965.139
  23479160.128    -8173892.00349  -5935633.27446  23479160.135    23479167.682
  22777187.107   -15636829.81249 -12161171.86746  22777187.032    22777196.446
 04  5 21  0 24 30.0000000  0  6G11G20G30G25G14G 1
  21754175.986   -22163943.29449 -16459831.39047  21754176.147    21754183.095
  21865103.608   -20886261.31249 -15573121.01647  21865103.274    21865110.482
  24147116.287    -4066533.96649  -3146939.41245  24147117.048    24147125.467
  20771551.284   -27767416.76749 -20095176.08848  20771551.534    20771558.079
  23494544.895    -8093045.02049  -5872635.71446  23494544.935    23494552.425
  22764345.195   -15704314.02549 -12213756.85846  22764345.142    22764354.484
 04  5 21  0 25  0.0000000  0  6G11G20G30G25G14G 1
  21762673.787   -22119287.55849 -16425034.74247  21762673.904    21762680.812
  21850502.520   -20962990.12049 -15632909.65847  21850502.222    21850509.432
  24150189.024    -4050387.10349  -3134357.45545  24150189.641    24150198.491
  20776237.195   -27742792.28049 -20075988.17248  20776237.430    20776243.959
  23509937.646    -8012156.43649  -5809605.70546  23509937.559    23509945.051
  22751536.997   -15771620.84549 -12266203.65146  22751536.978    22751546.289
 04  5 21  0 25 30.0000000  0  6G11G20G30G25G14G 1
  21771261.401   -22074159.30349 -16389869.89247  21771261.519    21771268.449
  21835942.059   -21039505.63749 -15692532.10047  21835941.742    21835948.958
  24153366.805    -4033688.22949  -3121345.29745  24153367.432    24153376.079
  20781015.696   -27717680.95349 -20056420.90548  20781015.932    20781022.482
  23525337.960    -7931227.06649  -5746543.93246  23525337.897    23525345.491
  22738762.608   -15838750.61849 -12318512.45946  22738762.563    22738771.805
 04  5 21  0 26  0.0000000  0  6G11G20G30G25G14G 1
  21779938.645   -22028560.11249 -16354338.08447  21779938.792    21779945.733
  21821422.685   -21115805.29549 -15751986.34547  21821422.374    21821429.584
  24156649.848    -4016436.84449  -3107902.68245  24156650.440    24156659.011
  20785886.596   -27692084.13249 -20036475.32448  20785886.860    20785893.379
  23540746.155    -7850257.24149  -5683450.62946  23540746.050    23540753.632
  22726021.952   -15905702.84849 -12370682.93346  22726021.923    22726031.146
 04  5 21  0 26 30.0000000  0  6G11G20G30G25G14G 1
  21788705.078   -21982492.48449 -16318441.26247  21788705.203    21788712.139
  21806944.589   -21191888.01949 -15811271.55347  21806944.277    21806951.464
  24160037.491    -3998633.74649  -3094030.12845  24160038.202    24160046.853
  20790849.472   -27666003.98049 -20016153.12848  20790849.734    20790856.244
  23556161.654    -7769248.17949  -5620326.75445  23556161.558    23556169.221
  22713314.917   -15972478.23749 -12422715.60646  22713314.879    22713324.106
 04  5 21  0 27  0.0000000  0  6G11G20G30G25G14G 1
  21797560.276   -21935958.13349 -16282180.75847  21797560.403    21797567.354
  21792508.251   -21267751.52249 -15870385.93547  21792507.931    21792515.089
  24163530.367    -3980278.85049  -3079727.61245  24163530.877    24163539.465
  20795904.160   -27639441.46949 -19995455.06848  20795904.415    20795910.925
  23571584.527    -7688200.27049  -5557172.61245  23571584.422    23571592.185
  22700641.593   -16039076.35749 -12474610.14546  22700641.603    22700650.768
 04  5 21  0 27 30.0000000  0  6G11G20G30G25G14G 1
  21806503.950   -21888958.46049 -16245557.66647  21806504.121    21806511.130
  21778114.123   -21343393.18249 -15929327.45447  21778113.796    21778120.939
  24167128.066    -3961371.81549  -3064994.83745  24167128.665    24167137.396
  20801050.526   -27612397.08349 -19974381.51648  20801050.782    20801057.300
  23587014.663    -7607113.70649  -5493988.35045  23587014.700    23587022.548
  22688002.167   -16105496.62749 -12526366.11846  22688002.203    22688011.304
 04  5 21  0 28  0.0000000  0  6G11G20G30G25G14G 1
  21815535.856   -21841495.67149 -16208573.70347  21815536.019    21815543.030
  21763762.461   -21418811.34249 -15988094.82847  21763762.181    21763769.315
  24170830.781    -3941913.20749  -3049832.32745  24170831.362    24170840.115
  20806288.205   -27584873.06549 -19952934.23248  20806288.456    20806294.973
  23602452.160    -7525989.33849  -5430774.64145  23602452.182    23602460.202
  22675396.578   -16171739.50749 -12577983.84946  22675396.570    22675405.645
 04  5 21  0 28 30.0000000  0  6G11G20G30G25G14G 1
  21824655.406   -21793572.37149 -16171230.90347  21824655.545    21824662.582
  21749453.625   -21494004.29749 -16046686.70547  21749453.347    21749460.524
  24174638.443    -3921903.55849  -3034240.39645  24174639.075    24174647.921
  20811616.765   -27556871.13249 -19931114.53948  20811617.027    20811623.578
  23617896.679    -7444827.98649  -5367532.09145  23617896.790    23617904.831
  22662824.593   -16237805.16649 -12629463.48846  22662824.564    22662833.692
 04  5 21  0 29  0.0000000  0  6G11G20G30G25G14G 1
  21833862.213   -21745190.43649 -16133530.72747  21833862.332    21833869.393
  21735188.086   -21568970.12849 -16105101.61147  21735187.803    21735195.028
  24178550.888    -3901343.11849  -3018219.28445  24178551.507    24178560.540
  20817035.987   -27528392.96149 -19908923.75348  20817036.226    20817042.775
  23633348.111    -7363630.37649  -5304261.32345  23633348.164    23633356.380
  22650286.348   -16303693.44249 -12680804.91546  22650286.323    22650295.501
 04  5 21  0 29 30.0000000  0  6G11G20G30G25G14G 1
  21843156.097   -21696350.63749 -16095473.77847  21843156.237    21843163.317
  21720966.262   -21643706.04649 -16163337.36447  21720965.978    21720973.230
  24182568.561    -3880231.27549  -3001768.49545  24182569.225    24182577.763
  20822545.750   -27499438.91649 -19886362.16348  20822546.001    20822552.534
  23648806.452    -7282396.31949  -5240962.14245  23648806.462    23648814.723
  22637782.087   -16369403.56349 -12732007.52246  22637782.069    22637791.176
 04  5 21  0 30  0.0000000  0  6G11G20G30G25G14G 1
  21852536.396   -21647056.91449 -16057063.12047  21852536.534    21852543.621
  21706788.300   -21718211.81649 -16221393.77347  21706787.993    21706795.263
  24186690.589    -3858570.12949  -2984889.69745  24186691.193    24186699.593
  20828145.447   -27470012.28349 -19863432.31348  20828145.685    20828152.238
  23664271.254    -7201128.28149  -5177636.47845  23664271.315    23664279.577
  22625311.341   -16434937.62749 -12783072.93746  22625311.303    22625320.358
 04  5 21  0 30 30.0000000  0  6G11G20G30G25G14G 1
  21862003.036   -21597309.75749 -16018299.14147  21862003.170    21862010.227
  21692654.823   -21792483.66749 -16279267.91447  21692654.518    21692661.777
  24190916.994    -3836358.20649  -2967581.75345  24190917.774    24190926.768
  20833835.186   -27440112.52449 -19840133.80148  20833835.436    20833841.973
  23679742.962    -7119824.90849  -5114283.28845  23679742.925    23679751.127
  22612874.451   -16500293.63849 -12833999.61846  22612874.413    22612883.429
 04  5 21  0 31  0.0000000  0  6G11G20G30G25G14G 1
  21871555.344   -21547112.20149 -15979184.20347  21871555.487    21871562.548
  21678566.057   -21866520.56049 -16336958.97147  21678565.741    21678572.979
  24195248.515    -3813596.98749  -2949845.76145  24195249.266    24195258.005
  20839614.402   -27409742.40149 -19816468.77048  20839614.645    20839621.220
  23695221.070    -7038487.96649  -5050903.93145  23695220.978    23695229.034
  22600471.192   -16565472.66249 -12884788.39046  22600471.140    22600480.182
 04  5 21  0 31 30.0000000  0  6G11G20G30G25G14G 1
  21881193.030   -21496465.97149 -15939719.64647  21881193.165    21881200.227
  21664522.448   -21940320.11249 -16394465.08447  21664522.143    21664529.320
  24199684.536    -3790286.29349  -2931681.57145  24199685.186    24199693.945
  20845482.922   -27378903.06449 -19792438.11348  20845483.172    20845489.754
  23710705.564    -6957117.51449  -4987498.47245  23710705.400    23710713.503
  22588101.854   -16630474.06749 -12935438.76046  22588101.762    22588110.754
 04  5 21  0 32  0.0000000  0  6G11G20G30G25G14G 1
  21890915.877   -21445372.37649 -15899906.49447  21890916.014    21890923.055
  21650524.467   -22013879.71149 -16451784.22347  21650524.194    21650531.357
  24204225.068    -3766425.97949  -2913089.15145  24204225.644    24204234.438
  20851440.496   -27347595.80249 -19768042.84648  20851440.738    20851447.311
  23726196.090    -6875713.59249  -4924066.95245  23726196.006    23726204.124
  22575766.261   -16695297.58649 -12985950.51546  22575766.172    22575775.169
 04  5 21  0 32 30.0000000  0  6G11G20G30G25G14G 1
  21900723.230   -21393834.52049 -15859747.16447  21900723.375    21900730.439
  21636572.400   -22087198.22849 -16508915.49947  21636572.143    21636579.318
  24208869.777    -3742017.25749  -2894069.39545  24208870.339    24208879.264
  20857486.674   -27315822.98749 -19743284.80848  20857486.902    20857493.493
  23741692.935    -6794277.56449  -4860610.36045  23741692.828    23741700.862
  22563464.343   -16759943.99649 -13036324.25746  22563464.279    22563473.304
 04  5 21  0 33  0.0000000  0  6G11G20G30G25G14G 1
  21910614.932   -21341853.38649 -15819242.41647  21910615.087    21910622.150
  21622666.813   -22160272.43549 -16565856.40747  21622666.540    21622673.751
  24213619.019    -3717059.79949  -2874622.05245  24213619.682    24213628.540
  20863621.341   -27283585.03049 -19718164.32148  20863621.585    20863628.154
  23757195.977    -6712808.88549  -4797128.39045  23757195.905    23757203.989
  22551196.323   -16824412.19849 -13086559.14646  22551196.312    22551205.281
 04  5 21  0 33 30.0000000  0  6G11G20G30G25G14G 1
  21920590.403   -21289432.05149 -15778394.66647  21920590.571    21920597.619
  21608807.869   -22233101.39649 -16622606.21647  21608807.604    21608814.813
  24218472.433    -3691554.74649  -2854748.01545  24218472.911    24218482.005
  20869844.007   -27250884.51049 -19692683.39948  20869844.268    20869850.851
  23772704.958    -6631309.02649  -4733622.07045  23772704.889    23772712.971
  22538962.137   -16888703.14449 -13136655.91546  22538962.091    22538971.012
 04  5 21  0 34  0.0000000  0  6G11G20G30G25G14G 1
  21930649.162   -21236572.86749 -15737205.72947  21930649.347    21930656.406
  21594996.017   -22305683.04149 -16679163.31047  21594995.746    21595002.946
  24223430.031    -3665502.60649  -2834447.62745  24223430.559    24223439.347
  20876154.398   -27217723.11449 -19666843.35148  20876154.659    20876161.282
  23788219.624    -6549778.55949  -4670091.91845  23788219.608    23788227.796
  22526761.632   -16952816.84049 -13186614.56846  22526761.588    22526770.496
 04  5 21  0 34 30.0000000  0  6G11G20G30G25G14G 1
  21940791.048   -21183277.25849 -15695676.72647  21940791.226    21940798.245
  21581231.812   -22378014.62849 -16735525.55747  21581231.534    21581238.676
  24228491.771    -3638903.36749  -2813721.01545  24228492.265    24228501.338
  20882552.372   -27184101.57749 -19640644.75548  20882552.640    20882559.228
  23803740.289    -6468217.63749  -4606538.02945  23803740.164    23803748.432
  22514594.974   -17016752.64349 -13236434.60946  22514594.940    22514603.878
 04  5 21  0 35  0.0000000  0  6G11G20G30G25G14G 1
  21951015.454   -21129547.96349 -15653809.78247  21951015.618    21951022.618
  21567515.398   -22450094.92649 -16791691.99847  21567515.110    21567522.201
  24233657.127    -3611758.14249  -2792568.89545  24233657.649    24233667.111
  20889037.453   -27150022.40349 -19614089.56148  20889037.700    20889044.289
  23819266.309    -6386627.35649  -4542961.29445  23819266.185    23819274.694
  22502462.028   -17080511.32849 -13286116.63146  22502462.020    22502470.918
 04  5 21  0 35 30.0000000  0  6G11G20G30G25G14G 1
  21961322.232   -21075385.64949 -15611605.42647  21961322.413    21961329.420
  21553847.492   -22521920.18849 -16847659.70547  21553847.182    21553854.261
  24238926.618    -3584065.99049  -2770990.59345  24238927.130    24238936.505
  20895609.564   -27115485.65049 -19587177.80648  20895609.820    20895616.388
  23834798.325    -6305006.52349  -4479360.72145  23834798.122    23834806.584
  22490363.186   -17144091.18849 -13335659.31346  22490363.166    22490371.969
 04  5 21  0 36  0.0000000  0  6G11G20G30G25G14G 1
  21971710.465   -21020795.53149 -15569067.71047  21971710.631    21971717.675
  21540227.985   -22593491.11449 -16903429.22747  21540227.671    21540234.755
  24244299.792    -3555830.23149  -2748988.72245  24244300.321    24244309.596
  20902267.907   -27080495.81749 -19559913.00248  20902268.171    20902274.742
  23850335.503    -6223358.50249  -4415738.96945  23850335.367    23850343.829
  22478297.808   -17207495.17649 -13385064.95446  22478297.758    22478306.491
 04  5 21  0 36 30.0000000  0  6G11G20G30G25G14G 1
  21982180.074   -20965777.31649 -15526196.41247  21982180.223    21982187.343
  21526657.656   -22664803.47749 -16958997.26947  21526657.355    21526664.428
  24249776.693    -3527049.24949  -2726562.01545  24249777.288    24249786.698
  20909012.610   -27045052.09249 -19532294.51448  20909012.882    20909019.453
  23865878.208    -6141681.66949  -4352094.74145  23865878.126    23865886.437
  22466266.242   -17270721.02549 -13434331.78646  22466266.207    22466274.921
 04  5 21  0 37  0.0000000  0  6G11G20G30G25G14G 1
  21992730.514   -20910334.31149 -15482994.11347  21992730.680    21992737.845
  21513136.692   -22735856.41049 -17014363.16747  21513136.376    21513143.458
  24255357.083    -3497724.94249  -2703711.92245  24255357.644    24255366.757
  20915843.119   -27009157.44149 -19504324.66248  20915843.393    20915849.976
  23881426.181    -6059977.60549  -4288429.30345  23881426.013    23881434.214
  22454268.344   -17333770.06549 -13483460.83946  22454268.333    22454277.004
 04  5 21  0 37 30.0000000  0  6G11G20G30G25G14G 1
  22003361.386   -20854468.68649 -15439462.50347  22003361.570    22003368.723
  21499665.514   -22806647.59949 -17069525.09747  21499665.212    21499672.262
  24261040.947    -3467857.65349  -2680438.74145  24261041.421    24261050.283
  20922759.134   -26972813.57849 -19476004.76548  20922759.405    20922765.972
  23896979.162    -5978246.53949  -4224742.86745  23896979.015    23896987.144
  22442304.221   -17396641.83449 -13532451.76146  22442304.177    22442312.825
 04  5 21  0 38  0.0000000  0  6G11G20G30G25G14G 1
  22014072.450   -20798182.16549 -15395602.92247  22014072.615    22014079.725
  21486244.694   -22877174.37049 -17124481.00047  21486244.403    21486251.437
  24266827.775    -3437447.38449  -2656742.46745  24266828.284    24266837.212
  20929760.558   -26936020.97349 -19447335.20548  20929760.808    20929767.372
  23912537.375    -5896488.40849  -4161035.28845  23912537.095    23912545.199
  22430373.967   -17459335.91449 -13581304.23246  22430373.866    22430382.463
 04  5 21  0 38 30.0000000  0  6G11G20G30G25G14G 1
  22024863.123   -20741476.99649 -15351417.11547  22024863.284    22024870.421
  21472874.561   -22947434.55349 -17179229.16547  21472874.279    21472881.312
  24272717.758    -3406494.92349  -2632623.67645  24272718.328    24272727.179
  20936846.926   -26898781.82849 -19418317.69048  20936847.162    20936853.728
  23928100.436    -5814703.68349  -4097307.04445  23928100.201    23928108.573
  22418477.413   -17521852.27349 -13630018.20646  22418477.291    22418485.939
 04  5 21  0 39  0.0000000  0  6G11G20G30G25G14G 1
  22035732.976   -20684355.51849 -15306906.91847  22035733.129    22035740.291
  21459555.607   -23017426.03649 -17233767.95547  21459555.319    21459562.331
  24278710.764    -3375001.04549  -2608083.00945  24278711.437    24278720.376
  20944017.874   -26861098.07149 -19388953.72448  20944018.128    20944024.709
  23943668.654    -5732892.83949  -4033558.42545  23943668.453    23943676.768
  22406614.700   -17584190.77749 -13678593.59946  22406614.594    22406623.254
 04  5 21  0 39 30.0000000  0  6G11G20G30G25G14G 1
  22046681.629   -20626820.23449 -15262074.28347  22046681.790    22046688.943
  21446288.071   -23087147.33349 -17288096.21347  21446287.784    21446294.817
  24284806.696    -3342966.74749  -2583121.25845  24284807.397    24284816.343
  20951273.026   -26822971.76949 -19359244.91948  20951273.305    20951279.901
  23959241.556    -5651056.93949  -3969790.25445  23959241.382    23959249.725
  22394785.768   -17646352.02949 -13727030.87446  22394785.643    22394794.306
 04  5 21  0 40  0.0000000  0  6G11G20G30G25G14G 1
  22057708.739   -20568872.60249 -15216920.32847  22057708.906    22057716.019
  21433072.526   -23156595.43749 -17342211.58747  21433072.213    21433079.247
  24291005.319    -3310392.22349  -2557738.55445  24291005.977    24291015.164
  20958612.328   -26784403.68749 -19329191.86648  20958612.604    20958619.202
  23974819.291    -5569195.58049  -3906002.26845  23974819.127    23974827.525
  22382990.677   -17708335.18049 -13775329.36546  22382990.598    22382999.271
 04  5 21  0 40 30.0000000  0  6G11G20G30G25G14G 1
  22068813.421   -20510517.33349 -15171448.73847  22068813.578    22068820.723
  21419909.032   -23225770.05049 -17396113.85647  21419908.736    21419915.731
  24297306.745    -3277279.77449  -2531936.67245  24297307.335    24297316.259
  20966035.055   -26745397.13549 -19298797.15248  20966035.296    20966041.876
  23990401.449    -5487310.93149  -3842196.14345  23990401.251    23990409.780
  22371229.145   -17770141.98149 -13823490.44946  22371229.100    22371237.746
 04  5 21  0 41  0.0000000  0  6G11G20G30G25G14G 1
  22079995.587   -20451754.60849 -15125659.65247  22079995.767    22080002.948
  21406798.313   -23294667.35349 -17449800.04247  21406798.012    21406804.986
  24303710.301    -3243628.82249  -2505715.20745  24303710.871    24303720.027
  20973541.128   -26705952.37849 -19268060.98248  20973541.399    20973547.949
  24005988.202    -5405401.67549  -3778370.84645  24005988.150    24005996.514
  22359501.573   -17831770.86749 -13871512.90046  22359501.499    22359510.114
 04  5 21  0 41 30.0000000  0  6G11G20G30G25G14G 1
  22091254.916   -20392586.60649 -15079554.76447  22091255.082    22091262.300
  21393740.739   -23363285.26749 -17503268.51847  21393740.432    21393747.371
  24310216.157    -3209439.73249  -2479074.38445  24310216.667    24310225.749
  20981130.347   -26666070.99549 -19236984.58547  20981130.595    20981137.145
  24021579.625    -5323468.27649  -3714526.69845  24021579.676    24021588.010
  22347807.793   -17893221.56449 -13919396.48846  22347807.745    22347816.350
 04  5 21  0 42  0.0000000  0  6G11G20G30G25G14G 1
  22102590.741   -20333016.83449 -15033136.80847  22102590.885    22102598.117
  21380736.629   -23431622.39949 -17556518.20947  21380736.314    21380743.227
  24316824.093    -3174714.44049  -2452015.76445  24316824.712    24316833.728
  20988802.048   -26625755.94649 -19205570.26647  20988802.285    20988808.837
  24037175.470    -5241511.90949  -3650664.69845  24037175.499    24037183.836
  22336147.768   -17954495.17649 -13967142.09646  22336147.707    22336156.304
 04  5 21  0 42 30.0000000  0  6G11G20G30G25G14G 1
  22114002.587   -20273047.28949 -14986407.33947  22114002.724    22114009.964
  21367786.255   -23499676.78349 -17609547.57447  21367785.970    21367792.883
  24323533.993    -3139453.94249  -2424540.11945  24323534.527    24323543.785
  20996555.979   -26585008.66849 -19173819.14547  20996556.227    20996562.806
  24052775.719    -5159533.21949  -3586785.26945  24052775.690    24052783.953
  22324521.458   -18015591.65949 -14014749.68546  22324521.396    22324529.967
 04  5 21  0 43  0.0000000  0  6G11G20G30G25G14G 1
  22125490.047   -20212680.61649 -14939368.42447  22125490.172    22125497.410
  21354890.052   -23567446.47649 -17662355.10447  21354889.777    21354896.742
  24330345.463    -3103659.10249  -2396648.05445  24330345.982    24330355.119
  21004391.826   -26543831.15549 -19141732.77247  21004392.072    21004398.650
  24068380.136    -5077532.67349  -3522888.80345  24068380.087    24068388.259
  22312928.826   -18076511.34449 -14062219.49746  22312928.711    22312937.252
 04  5 21  0 43 30.0000000  0  6G11G20G30G25G14G 1
  22137052.831   -20151917.89149 -14892020.89347  22137052.967    22137060.193
  21342048.767   -23634927.84849 -17714937.97147  21342048.477    21342055.442
  24337258.865    -3067329.49049  -2368339.27345  24337259.546    24337268.442
  21012309.441   -26502223.94749 -19109311.58047  21012309.661    21012316.238
  24083988.627    -4995509.18749  -3458974.51545  24083988.542    24083996.910
  22301370.164   -18137252.46149 -14109550.18346  22301370.043    22301378.534
 04  5 21  0 44  0.0000000  0  5G11G20G25G14G 1
  22148690.277   -20090763.13049 -14844367.88547  22148690.381    22148697.599
  21329262.427   -23702120.37149 -17767295.75847  21329262.149    21329269.113
  21020308.170   -26460190.47649 -19076558.23347  21020308.393    21020314.986
  24099601.139    -4913464.84049  -3395043.95545  24099601.073    24099609.390
  22289845.081   -18197816.73549 -14156743.06046  22289844.932    22289853.461
 04  5 21  0 44 30.0000000  0  5G11G20G25G14G 1
  22160402.056   -20029217.63649 -14796410.41047  22160402.133    22160409.344
  21316531.661   -23769020.97449 -17819426.07647  21316531.382    21316538.341
  21028387.812   -26417731.55849 -19043473.37247  21028388.060    21028394.669
  24115217.762    -4831399.28049  -3331096.84345  24115217.692    24115226.019
  22278353.746   -18258203.37849 -14203797.53646  22278353.687    22278362.241
 04  5 21  0 45  0.0000000  0  5G11G20G25G14G 1
  22172187.762   -19967283.44849 -14748150.06147  22172187.864    22172195.138
  21303856.884   -23835627.26049 -17871327.05847  21303856.587    21303863.552
  21036548.192   -26374848.57749 -19010058.07247  21036548.431    21036555.018
  24130838.425    -4749312.26049  -3267133.05845  24130838.388    24130846.853
  22266896.461   -18318411.90149 -14250713.20946  22266896.378    22266904.882
 04  5 21  0 45 30.0000000  0  5G11G20G25G14G 1
  22184046.436   -19904965.89349 -14699590.98347  22184046.534    22184053.824
  21291238.035   -23901939.63949 -17922999.02147  21291237.743    21291244.698
  21044788.373   -26331546.11049 -18976315.90047  21044788.606    21044795.202
  24146462.639    -4667206.95949  -3203154.99645  24146462.592    24146470.965
  22255472.551   -18378445.01649 -14297492.21346  22255472.457    22255480.900
 04  5 21  0 46  0.0000000  0  5G11G20G25G14G 1
  22195978.306   -19842263.32549 -14650731.89647  22195978.444    22195985.729
  21278676.277   -23967951.91349 -17974437.13547  21278675.979    21278682.927
  21053108.756   -26287821.97349 -18942245.15247  21053109.016    21053115.628
  24162090.955    -4585079.74549  -3139159.85645  24162090.942    24162099.463
  22244082.676   -18438298.75349 -14344131.43246  22244082.612    22244091.019
 04  5 21  0 46 30.0000000  0  5G11G20G25G14G 1
  22207982.356   -19779182.02449 -14601577.69147  22207982.473    22207989.691
  21266171.328   -24033665.77149 -18025642.71647  21266171.036    21266177.952
  21061508.304   -26243682.06449 -18907850.43447  21061508.571    21061515.182
  24177722.739    -4502934.92349  -3075151.00145  24177722.681    24177731.133
  22232726.206   -18497977.08849 -14390633.98046  22232726.174    22232734.564
 04  5 21  0 47  0.0000000  0  5G11G20G25G14G 1
  22220058.409   -19715722.16549 -14552128.50047  22220058.534    22220065.732
  21253723.998   -24099077.02749 -18076612.50047  21253723.693    21253730.605
  21069987.108   -26199125.77049 -18873131.24947  21069987.351    21069993.990
  24193358.135    -4420770.44449  -3011126.85445  24193358.086    24193366.693
  22221403.633   -18557477.64849 -14436998.00147  22221403.573    22221411.939
 04  5 21  0 47 30.0000000  0  5G11G20G25G14G 1
  22232205.992   -19651886.33849 -14502386.34847  22232206.124    22232213.365
  21241334.578   -24164183.86749 -18127345.07847  21241334.260    21241341.164
  21078544.732   -26154154.99449 -18838089.09347  21078544.977    21078551.614
  24208997.229    -4338586.98049  -2947087.88845  24208997.260    24209005.864
  22210114.718   -18616800.83549 -14483223.81247  22210114.668    22210123.033
 04  5 21  0 48  0.0000000  0  5G11G20G25G14G 1
  22244424.605   -19587677.40649 -14452353.46947  22244424.735    22244432.047
  21229003.414   -24228984.50149 -18177839.05647  21229003.107    21229009.973
  21087180.822   -26108772.00549 -18802725.73547  21087181.078    21087187.736
  24224639.747    -4256385.46349  -2883034.86845  24224639.711    24224648.321
  22198859.533   -18675946.97949 -14529311.66547  22198859.500    22198867.890
 04  5 21  0 48 30.0000000  0  5G11G20G25G14G 1
  22256713.836   -19523097.35449 -14402031.40747  22256713.948    22256721.282
  21216731.078   -24293475.94149 -18228092.10447  21216730.793    21216737.647
  21095895.047   -26062978.42949 -18767042.44047  21095895.305    21095901.967
  24240285.870    -4174165.40149  -2818967.39545  24240285.800    24240294.407
  22187638.205   -18734915.32049 -14575260.96947  22187638.148    22187646.546
 04  5 21  0 49  0.0000000  0  5G11G20G25G14G 1
  22269072.844   -19458150.46649 -14351423.49447  22269072.982    22269080.306
  21204517.660   -24357657.94949 -18278104.03547  21204517.348    21204524.189
  21104686.752   -26016777.79649 -18731041.95347  21104687.029    21104693.662
  24255934.976    -4091928.85749  -2754887.09345  24255934.856    24255943.567
  22176450.325   -18793707.76749 -14621073.21747  22176450.293    22176458.714
 04  5 21  0 49 30.0000000  0  5G11G20G25G14G 1
  22281501.778   -19392836.22149 -14300529.33346  22281501.897    22281509.188
  21192364.067   -24421525.34449 -18327870.81547  21192363.772    21192370.612
  21113556.090   -25970169.11249 -18694723.50747  21113556.359    21113563.019
  24271587.810    -4009673.33349  -2690791.96845  24271587.768    24271596.382
  22165296.428   -18852321.44049 -14666746.16447  22165296.425    22165304.842
 04  5 21  0 50  0.0000000  0  5G11G20G25G14G 1
  22293999.368   -19327160.81149 -14249353.74246  22293999.515    22294006.872
  21180270.055   -24485079.66149 -18377393.63847  21180269.744    21180276.590
  21122502.037   -25923157.77649 -18658091.30747  21122502.296    21122508.951
  24287243.553    -3927402.74949  -2626685.11145  24287243.540    24287252.064
  22154176.003   -18910759.82249 -14712282.51947  22154175.973    22154184.366
 04  5 21  0 50 30.0000000  0  5G11G20G25G14G 1
  22306565.819   -19261123.70749 -14197896.30446  22306565.996    22306573.352
  21168236.655   -24548315.59349 -18426668.36447  21168236.345    21168243.182
  21131524.843   -25875742.71449 -18621144.51247  21131525.109    21131531.756
  24302902.501    -3845114.42049  -2562564.47645  24302902.351    24302911.221
  22143089.397   -18969019.90149 -14757679.93047  22143089.378    22143097.757
 04  5 21  0 51  0.0000000  0  5G11G20G25G14G 1
  22319200.330   -19194728.96549 -14146160.19746  22319200.529    22319207.918
  21156263.948   -24611232.65049 -18475694.62747  21156263.643    21156270.447
  21140623.805   -25827927.54649 -18583885.95247  21140624.060    21140630.683
  24318564.437    -3762810.23049  -2498431.45045  24318564.318    24318573.254
  22132036.464   -19027103.32049 -14802939.69347  22132036.450    22132044.829
 04  5 21  0 51 30.0000000  0  5G11G20G25G14G 1
  22331902.489   -19127978.99049 -14094147.28346  22331902.685    22331910.105
  21144352.346   -24673828.42049 -18524470.53047  21144352.040    21144358.851
  21149798.603   -25779713.88749 -18546316.87547  21149798.849    21149805.458
  24334229.426    -3680490.47549  -2434286.29045  24334229.344    24334238.224
  22121017.119   -19085009.88549 -14848061.64247  22121017.079    22121025.495
 04  5 21  0 52  0.0000000  0  5G11G20G25G14G 1
  22344671.913   -19060875.46049 -14041858.87446  22344672.115    22344679.588
  21132502.408   -24736100.15249 -18572993.94347  21132502.093    21132508.894
  21159049.055   -25731102.43749 -18508437.83847  21159049.315    21159055.939
  24349897.622    -3598154.32449  -2370128.38745  24349897.406    24349906.468
  22110031.705   -19142738.59549 -14893045.01047  22110031.624    22110040.070
 04  5 21  0 52 30.0000000  0  5G11G20G25G14G 1
  22357507.961   -18993421.87249 -13989297.69646  22357508.120    22357515.644
  21120714.355   -24798046.57849 -18621263.86347  21120714.054    21120720.858
  21168374.501   -25682096.73049 -18470251.57947  21168374.759    21168381.400
  24365568.594    -3515803.45749  -2305959.00245  24365568.497    24365577.511
  22099079.800   -19200290.77349 -14937890.81547  22099079.746    22099088.143
 04  5 21  0 53  0.0000000  0  5G11G20G25G14G 1
  22370410.116   -18925621.02149 -13936465.91846  22370410.267    22370417.716
  21108988.618   -24859665.52349 -18669278.61047  21108988.331    21108995.126
  21177774.582   -25632698.89449 -18431759.77247  21177774.862    21177781.509
  24381242.388    -3433437.93649  -2241778.18845  24381241.997    24381251.202
  22088161.576   -19257666.34149 -14982599.01147  22088161.534    22088169.877
 04  5 21  0 53 30.0000000  0  5G11G20G25G14G 1
  22383377.905   -18857475.29449 -13883365.40646  22383378.030    22383385.428
  21097325.702   -24920954.62949 -18717036.33947  21097325.406    21097332.178
  21187249.049   -25582910.44849 -18392963.59247  21187249.312    21187255.960
  24396918.736    -3351057.97849  -2177586.12245  24396918.585    24396927.739
  22077276.953   -19314865.13649 -15027169.45047  22077276.919    22077285.234
 04  5 21  0 54  0.0000000  0  5G11G20G25G14G 1
  22396410.986   -18788986.31149 -13829997.42646  22396411.107    22396418.537
  21085726.051   -24981911.05549 -18764534.84347  21085725.746    21085732.537
  21196797.688   -25532732.18849 -18353863.66447  21196797.952    21196804.597
  24412598.064    -3268663.14449  -2113382.43145  24412598.049    24412607.042
  22066426.178   -19371886.43749 -15071601.58947  22066426.121    22066434.428
 04  5 21  0 54 30.0000000  0  5G11G20G25G14G 1
  22409508.594   -18720157.98449 -13776365.01746  22409508.690    22409516.204
  21074189.932   -25042533.81149 -18811773.33647  21074189.612    21074196.422
  21206419.786   -25482167.57649 -18314462.67547  21206420.041    21206426.706
  24428279.943    -3186254.85449  -2049168.31045  24428279.763    24428288.869
  22055608.918   -19428731.27749 -15115896.22647  22055608.860    22055617.172
 04  5 21  0 55  0.0000000  0  5G11G20G25G14G 1
  22422670.384   -18650992.19849 -13722469.66646  22422670.528    22422678.094
  21062717.776   -25102820.19849 -18858749.73047  21062717.464    21062724.301
  21216115.245   -25431217.72149 -18274761.50447  21216115.499    21216122.160
  24443964.307    -3103832.66649  -1984943.35445  24443964.246    24443973.194
  22044825.399   -19485399.07049 -15160052.91747  22044825.345    22044833.615
 04  5 21  0 55 30.0000000  0  5G11G20G25G14G 1
  22435895.839   -18581491.84349 -13668313.59746  22435896.012    22435903.600
  21051310.045   -25162768.21149 -18905462.44847  21051309.732    21051316.589
  21225883.542   -25379885.03149 -18234762.01847  21225883.796    21225890.445
  24459651.377    -3021397.29749  -1920708.10445  24459651.335    24459660.079
  22034075.404   -19541890.13849 -15204071.88147  22034075.367    22034083.684
 04  5 21  0 56  0.0000000  0  5G11G20G25G14G 1
  22449184.699   -18511658.83349 -13613898.33346  22449184.843    22449192.446
  21039967.207   -25222375.10349 -18951909.36147  21039966.894    21039973.751
  21235724.424   -25328170.94149 -18194465.34347  21235724.684    21235731.328
  24475341.040    -2938948.32949  -1856462.21945  24475341.123    24475349.777
  22023359.234   -19598203.83449 -15247952.64647  22023359.196    22023367.522
 04  5 21  0 56 30.0000000  0  5G11G20G25G14G 1
  22462536.036   -18441497.31749 -13559227.07946  22462536.170    22462543.767
  21028689.453   -25281639.92749 -18998089.72947  21028689.171    21028695.986
  21245637.266   -25276078.65449 -18153873.96347  21245637.511    21245644.163
  24491032.950    -2856487.26749  -1792206.99445  24491032.931    24491041.921
  22012676.580   -19654341.44949 -15291696.20147  22012676.561    22012684.874
 04  5 21  0 57  0.0000000  0  5G11G20G25G14G 1
  22475949.713   -18371008.23649 -13504300.57946  22475949.863    22475957.446
  21017477.445   -25340559.22649 -19044000.85547  21017477.183    21017483.980
  21255622.005   -25223608.68249 -18112988.28647  21255622.269    21255628.908
  24506727.358    -2774012.96749  -1727941.39745  24506727.325    24506736.191
  22002027.706   -19710301.41549 -15335301.32647  22002027.713    22002035.982
 04  5 21  0 57 30.0000000  0  5G11G20G25G14G 1
  22489424.820   -18300196.32349 -13449122.53346  22489424.935    22489432.516
  21006331.336   -25399132.66249 -19089642.47647  21006331.060    21006337.839
  21265677.842   -25170764.93349 -18071811.35547  21265678.107    21265684.718
  24522423.934    -2691527.81949  -1663667.32245  24522424.019    24522432.688
  21991412.290   -19766085.81249 -15378769.64447  21991412.262    21991420.470
 04  5 21  0 58  0.0000000  0  5G11G20G25G14G 1
  22502961.270   -18229062.28349 -13393693.46946  22502961.364    22502968.937
  20995251.820   -25457355.87449 -19135011.19747  20995251.520    20995258.293
  21275804.924   -25117546.97349 -18030342.82947  21275805.177    21275811.821
  24538122.924    -2609029.55249  -1599383.10545  24538122.940    24538131.760
  21980830.670   -19821692.39449 -15422099.41147  21980830.638    21980838.822
 04  5 21  0 58 30.0000000  0  5G11G20G25G14G 1
  22516558.260   -18157609.62949 -13338016.13746  22516558.381    22516565.950
  20984239.064   -25515228.26749 -19180106.55547  20984238.764    20984245.557
  21286002.432   -25063958.60249 -17988585.68147  21286002.667    21286009.347
  24553824.031    -2526519.93349  -1535089.96445  24553824.071    24553832.936
  21970282.584   -19877122.65149 -15465291.77847  21970282.570    21970290.771
 04  5 21  0 59  0.0000000  0  5G11G20G25G14G 1
  22530215.563   -18085840.37249 -13282092.09946  22530215.646    22530223.213
  20973293.604   -25572746.75949 -19224926.14047  20973293.321    20973300.130
  21296270.194   -25010000.94349 -17946540.76847  21296270.459    21296277.154
  24569527.536    -2443998.32849  -1470787.53045  24569527.560    24569536.347
  21959768.308   -19932375.61849 -15508346.00047  21959768.289    21959776.455
 04  5 21  0 59 30.0000000  0  5G11G20G25G14G 1
  22543932.307   -18013758.48449 -13225924.45946  22543932.401    22543940.009
  20962415.642   -25629910.69449 -19269469.45447  20962415.362    20962422.149
  21306607.688   -24955677.30549 -17904210.68147  21306607.962    21306614.606
  24585232.849    -2361466.46249  -1406477.09645  24585232.858    24585241.874
  21949287.430   -19987452.90949 -15551263.33147  21949287.395    21949295.576
 04  5 21  1  0  0.0000000  0  5G11G20G25G14G 1
  22557708.415   -17941364.87449 -13169513.90846  22557708.523    22557716.154
  20951605.980   -25686715.92949 -19313733.25447  20951605.695    20951612.452
  21317014.732   -24900987.90449 -17861595.58247  21317014.997    21317021.627
  24600940.576    -2278922.72349  -1342157.39645  24600940.483    24600949.562
  21938840.399   -20042352.54249 -15594042.22847  21938840.347    21938848.527
 04  5 21  1  0 30.0000000  0  5G11G20G25G14G 1
  22571542.709   -17868665.45449 -13112865.08446  22571542.826    22571550.512
  20940864.378   -25743163.44549 -19357718.32247  20940864.071    20940870.812
  21327490.440   -24845937.63949 -17818699.29447  21327490.705    21327497.355
  24616649.965    -2196370.40349  -1277831.02345  24616649.828    24616658.971
  21928426.537   -20097077.53549 -15636685.04747  21928426.476    21928434.666
 04  5 21  1  1  0.0000000  0  5G11G20G25G14G 1
  22585435.432   -17795659.22449 -13055977.16146  22585435.498    22585443.240
  20930191.922   -25799247.59649 -19401420.24447  20930191.600    20930198.333
  21338035.101   -24790525.18449 -17775520.77447  21338035.385    21338042.043
  24632361.312    -2113806.09649  -1213495.30745  24632361.280    24632370.621
  21918046.613   -20151624.20549 -15679188.91447  21918046.562    21918054.746
 04  5 21  1  1 30.0000000  0  5G11G20G25G14G 1
  22599385.673   -17722350.54749 -12998853.57246  22599385.741    22599393.473
  20919588.686   -25854967.89549 -19444838.64747  20919588.360    20919595.110
  21348647.988   -24734754.46949 -17732063.09647  21348648.248    21348654.885
  24648074.770    -2031231.96949  -1149151.92445  24648074.672    24648084.190
  21907700.264   -20205994.60349 -15721555.42347  21907700.195    21907708.355
 04  5 21  1  2  0.0000000  0  5G11G20G25G14G 1
  22613392.963   -17648741.58549 -12941496.00246  22613393.084    22613400.902
  20909055.181   -25910321.79849 -19487971.54747  20909054.863    20909061.605
  21359328.773   -24678626.71649 -17688327.20847  21359329.034    21359335.632
  24663790.304    -1948647.48349  -1084800.50345  24663790.262    24663799.523
  21897387.536   -20260187.90849 -15763783.93347  21897387.484    21897395.654
 04  5 21  1  2 30.0000000  0  5G11G20G25G14G 1
  22627456.656   -17574836.04949 -12883907.32846  22627456.768    22627464.689
  20898591.660   -25965307.77149 -19530817.75147  20898591.346    20898598.112
  21370076.897   -24622144.84949 -17644315.38547  21370077.173    21370083.783
  24679507.400    -1866053.65649  -1020441.82245  24679507.323    24679516.569
  21887108.337   -20314205.03949 -15805875.17047  21887108.280    21887116.485
 04  5 21  1  3  0.0000000  0  5G11G20G25G14G 1
  22641576.656   -17500634.95349 -12826088.35846  22641576.833    22641584.761
  20888198.794   -26019922.37949 -19573374.58147  20888198.511    20888205.275
  21380892.368   -24565309.15049 -17600027.84847  21380892.646    21380899.243
  24695226.251    -1783449.19449   -956074.78645  24695226.430    24695235.637
  21876862.993   -20368044.46849 -15847827.93947  21876862.963    21876871.154
 04  5 21  1  3 30.0000000  0  5G11G20G25G14G 1
  22655752.233   -17426142.17449 -12768042.09546  22655752.399    22655760.304
  20877876.876   -26074164.50249 -19615641.16447  20877876.597    20877883.322
  21391774.589   -24508122.86949 -17555467.13147  21391774.882    21391781.489
  24710947.109    -1700835.47349   -891700.59945  24710947.088    24710956.519
  21866651.290   -20421707.38849 -15889643.17347  21866651.232    21866659.394
 04  5 21  1  4  0.0000000  0  5G11G20G25G14G 1
  22669982.570   -17351361.14049 -12709771.21646  22669982.778    22669990.672
  20867626.099   -26128032.81749 -19657616.45847  20867625.793    20867632.509
  21402722.985   -24450588.86449 -17510635.45147  21402723.263    21402729.859
  24726669.976    -1618213.47649   -827319.92645  24726669.822    24726679.196
  21856473.064   -20475194.57249 -15931321.45847  21856472.989    21856481.128
 04  5 21  1  4 30.0000000  0  4G11G20G25G 1
  22684267.488   -17276293.84449 -12651277.28146  22684267.658    22684275.525
  20857446.974   -26181524.44749 -19699298.24447  20857446.680    20857453.386
  21413737.252   -24392708.62849 -17465533.99447  21413737.518    21413744.122
  21846328.360   -20528505.08049 -15972862.08647  21846328.302    21846336.398
 04  5 21  1  5  0.0000000  0  4G11G20G25G 1
  22698606.643   -17200941.47049 -12592561.20646  22698606.792    22698614.670
  20847340.179   -26234635.70249 -19740683.63047  20847339.897    20847346.624
  21424817.322   -24334482.50849 -17420163.01447  21424817.587    21424824.215
  21836217.600   -20581637.40549 -16014263.86947  21836217.561    21836225.644
 04  5 21  1  5 30.0000000  0  4G11G20G25G 1
  22712998.864   -17125310.24349 -12533627.83946  22712999.008    22713006.837
  20837305.571   -26287367.87149 -19781773.62147  20837305.304    20837312.054
  21435962.228   -24275915.75149 -17374526.59847  21435962.482    21435969.124
  21826140.125   -20634594.95049 -16055529.45747  21826140.078    21826148.119
 04  5 21  1  6  0.0000000  0  4G11G20G25G 1
  22727444.381   -17049399.00949 -12474476.28146  22727444.508    22727452.341
  20827344.202   -26339715.22449 -19822563.75847  20827343.930    20827350.664
  21447172.156   -24217007.23449 -17328623.87847  21447172.421    21447179.043
  21816096.568   -20687374.14949 -16096656.07347  21816096.501    21816104.574
 04  5 21  1  6 30.0000000  0  4G11G20G25G 1
  22741942.125   -16973212.94849 -12415110.58946  22741942.291    22741950.081
  20817455.997   -26391677.91149 -19863054.15648  20817455.735    20817462.468
  21458446.436   -24157760.91549 -17282457.93647  21458446.677    21458453.304
  21806086.481   -20739977.11749 -16137645.36847  21806086.421    21806094.519
 04  5 21  1  7  0.0000000  0  4G11G20G25G 1
  22756492.075   -16896752.76849 -12355531.28946  22756492.208    22756499.984
  20807641.775   -26443252.07449 -19903241.80548  20807641.510    20807648.247
  21469784.838   -24098177.22349 -17236029.10447  21469785.087    21469791.716
  21796110.345   -20792402.03649 -16178495.93047  21796110.277    21796118.360
 04  5 21  1  7 30.0000000  0  4G11G20G25G 1
  22771093.158   -16820024.12949 -12295742.78946  22771093.260    22771101.001
  20797901.426   -26494437.95649 -19943126.89748  20797901.123    20797907.872
  21481186.579   -24038260.58649 -17189340.83647  21481186.814    21481193.469
  21786167.620   -20844651.23549 -16219209.56047  21786167.550    21786175.617
 04  5 21  1  8  0.0000000  0  4G11G20G25G 1
  22785745.167   -16743027.54949 -12235745.51446  22785745.247    22785753.041
  20788235.691   -26545231.44549 -19982706.22448  20788235.414    20788242.186
  21492651.659   -23978011.05249 -17142393.16547  21492651.927    21492658.595
  21776258.688   -20896722.73249 -16259784.72447  21776258.640    21776266.685
 04  5 21  1  8 30.0000000  0  4G11G20G25G 1
  22800447.008   -16665768.69149 -12175543.86346  22800447.089    22800454.991
  20778644.512   -26595633.40649 -20021980.46948  20778644.234    20778651.004
  21504179.211   -23917433.71949 -17095190.07147  21504179.456    21504186.096
  21766383.131   -20948619.22049 -16300223.52047  21766383.066    21766391.115
 04  5 21  1  9  0.0000000  0  4G11G20G25G 1
  22815198.695   -16588248.17049 -12115138.32146  22815198.796    22815206.741
  20769128.629   -26645639.80849 -20060946.48148  20769128.342    20769135.127
  21515769.117   -23856528.43949 -17047731.42647  21515769.353    21515776.013
  21756541.151   -21000338.78949 -16340524.45047  21756541.110    21756549.156
 04  5 21  1  9 30.0000000  0  4G11G20G25G 1
  22829999.712   -16510468.71649 -12054531.01446  22829999.800    22830007.729
  20759688.455   -26695248.17149 -20099602.33948  20759688.167    20759694.970
  21527421.010   -23795297.15249 -17000018.75647  21527421.256    21527427.956
  21746732.919   -21051881.30649 -16380687.42747  21746732.890    21746740.924
 04  5 21  1 10  0.0000000  0  4G11G20G25G 1
  22844849.193   -16432434.21349 -11993724.97446  22844849.310    22844857.217
  20750324.209   -26744457.64549 -20137947.37148  20750323.920    20750330.715
  21539134.349   -23733743.19049 -16952054.64447  21539134.587    21539141.288
  21736958.146   -21103247.97949 -16420713.37647  21736958.097    21736966.172
 04  5 21  1 10 30.0000000  0  4G11G20G25G 1
  22859747.018   -16354145.74349 -11932721.03846  22859747.186    22859755.029
  20741036.599   -26793264.28649 -20175978.50448  20741036.309    20741043.105
  21550909.117   -23671866.52849 -16903839.08147  21550909.386    21550916.041
  21727217.203   -21154436.65449 -16460600.62547  21727217.171    21727225.257
 04  5 21  1 11  0.0000000  0  4G11G20G25G 1
  22874692.359   -16275608.19649 -11871523.02646  22874692.480    22874700.297
  20731825.608   -26841668.38549 -20213695.97248  20731825.306    20731832.112
  21562744.462   -23609671.58949 -16855375.50747  21562744.692    21562751.340
  21717509.706   -21205449.74249 -16500351.05247  21717509.681    21717517.739
 04  5 21  1 11 30.0000000  0  4G11G20G25G 1
  22889684.566   -16196824.11149 -11810132.88346  22889684.661    22889692.494
  20722691.646   -26889667.47149 -20251097.83948  20722691.359    20722698.171
  21574640.001   -23547159.96049 -16806665.16547  21574640.257    21574646.930
  21707835.736   -21256286.90149 -16539964.38947  21707835.678    21707843.710
 04  5 21  1 12  0.0000000  0  4G11G20G25G 1
  22904723.316   -16117794.96049 -11748551.80546  22904723.450    22904731.294
  20713635.402   -26937258.35649 -20288181.63148  20713635.099    20713641.899
  21586595.557   -23484332.87449 -16757709.01647  21586595.841    21586602.585
  21698195.397   -21306947.06849 -16579439.80947  21698195.342    21698203.351
 04  5 21  1 12 30.0000000  0  4G11G20G25G 1
  22919808.217   -16038523.79949 -11686782.13546  22919808.357    22919816.225
  20704657.174   -26984439.31049 -20324945.99848  20704656.874    20704663.647
  21598610.710   -23421192.87149 -16708509.03647  21598611.003    21598617.778
  21688588.759   -21357430.11849 -16618777.22247  21688588.712    21688596.715
 04  5 21  1 13  0.0000000  0  4G11G20G25G 1
  22934938.520   -15959013.78949 -11624826.34846  22934938.662    22934946.589
  20695757.302   -27031208.36549 -20361389.39948  20695756.996    20695763.749
  21610685.108   -23357741.81849 -16659066.67247  21610685.364    21610692.136
  21679015.792   -21407736.30449 -16657976.82247  21679015.740    21679023.742
 04  5 21  1 13 30.0000000  0  4G11G20G25G 1
  22950113.562   -15879268.43449 -11562687.18046  22950113.697    22950121.659
  20686936.016   -27077564.45849 -20397511.01748  20686935.722    20686942.445
  21622818.016   -23293982.87149 -16609384.39747  21622818.255    21622825.046
  21669476.273   -21457866.56449 -16697039.33147  21669476.214    21669484.228
 04  5 21  1 14  0.0000000  0  4G11G20G25G 1
  22965333.156   -15799289.07549 -11500365.67446  22965333.291    22965341.253
  20678193.970   -27123503.98849 -20433308.03748  20678193.694    20678200.421
  21635009.424   -23229916.38249 -16559462.47047  21635009.685    21635016.500
  21659970.516   -21507819.29649 -16735963.51347  21659970.495    21659978.500
 04  5 21  1 14 30.0000000  0  4G11G20G25G 1
  22980596.501   -15719079.68249 -11437864.92146  22980596.674    22980604.660
  20669531.436   -27169025.91149 -20468779.65148  20669531.171    20669537.894
  21647258.787   -23165545.55549 -16509303.40247  21647259.064    21647265.876
  21650498.439   -21557595.34849 -16774750.02247  21650498.422    21650506.371
 04  5 21  1 15  0.0000000  0  4G11G20G25G 1
  22995903.155   -15638642.95449 -11375187.01946  22995903.307    22995911.364
  20660948.720   -27214128.43649 -20503924.46548  20660948.453    20660955.159
  21659565.701   -23100872.64449 -16458908.94147  21659565.964    21659572.765
  21641059.972   -21607194.85249 -16813398.95847  21641059.936    21641067.892
 04  5 21  1 15 30.0000000  0  4G11G20G25G 1
  23011252.542   -15557981.62549 -11312334.11346  23011252.691    23011260.831
  20652446.238   -27258809.14749 -20538740.58848  20652445.949    20652452.659
  21671929.736   -23035899.36149 -16408280.42247  21671929.975    21671936.757
  21631655.143   -21656617.55549 -16851910.12647  21631655.107    21631663.061
 04  5 21  1 16  0.0000000  0  4G11G20G25G 1
  23026644.143   -15477098.92849 -11249308.70246  23026644.275    23026652.427
  20644024.271   -27303066.83449 -20573227.08848  20644023.980    20644030.698
  21684350.391   -22970628.34949 -16357419.90847  21684350.656    21684357.454
  21622283.853   -21705863.99949 -16890283.95347  21622283.814    21622291.742
 04  5 21  1 16 30.0000000  0  4G11G20G25G 1
  23042077.303   -15395997.12949 -11186112.56646  23042077.462    23042085.630
  20635683.322   -27346898.80349 -20607381.85548  20635683.024    20635689.742
  21696827.353   -22905061.36049 -16306328.75747  21696827.619    21696834.467
  21612946.284   -21754933.38149 -16928519.80747  21612946.219    21612954.096
 04  5 21  1 17  0.0000000  0  4G11G20G25G 1
  23057551.770   -15314678.77249 -11122747.69446  23057551.899    23057560.148
  20627423.864   -27390302.66349 -20641203.03448  20627423.582    20627430.260
  21709360.280   -22839200.38049 -16255008.53447  21709360.552    21709367.416
  21603642.368   -21803825.58649 -16966617.60647  21603642.320    21603650.190
 04  5 21  1 17 30.0000000  0  4G11G20G25G 1
  23073066.935   -15233146.73749 -11059216.30146  23073067.018    23073075.254
  20619246.177   -27433276.76749 -20674689.33548  20619245.883    20619252.550
  21721948.801   -22773047.40349 -16203460.77047  21721949.088    21721955.933
  21594372.195   -21852540.62349 -17004577.34747  21594372.137    21594380.002
 04  5 21  1 18  0.0000000  0  4G11G20G25G 1
  23088622.142   -15151403.95549 -10995520.71746  23088622.249    23088630.429
  20611150.698   -27475818.71549 -20707838.90048  20611150.388    20611157.040
  21734592.645   -22706603.94849 -16151686.67347  21734592.894    21734599.724
  21585135.719   -21901078.28449 -17042398.87547  21585135.662    21585143.578
 04  5 21  1 18 30.0000000  0  4G11G20G25G 1
  23104216.811   -15069454.10449 -10931663.76646  23104216.903    23104224.968
  20603137.584   -27517927.78349 -20740651.15048  20603137.285    20603143.930
  21747291.121   -22639873.19249 -16099688.69647  21747291.353    21747298.149
  21575932.867   -21949439.45349 -17080082.87547  21575932.813    21575940.747
 04  5 21  1 19  0.0000000  0  4G11G20G25G 1
  23119850.493   -14987298.72649 -10867646.66146  23119850.590    23119858.642
  20595207.470   -27559600.72949 -20773123.56548  20595207.185    20595213.810
  21760043.997   -22572856.34349 -16047467.79247  21760044.255    21760051.055
  21566763.847   -21997622.84149 -17117628.34547  21566763.780    21566771.716
 04  5 21  1 19 30.0000000  0  4G11G20G25G 1
  23135522.497   -14904941.95049 -10803472.62846  23135522.601    23135530.684
  20587360.497   -27600836.97049 -20805255.69348  20587360.217    20587366.822
  21772850.653   -22505556.73249 -15995026.55747  21772850.919    21772857.767
  21557628.429   -22045629.78549 -17155036.32947  21557628.364    21557636.273
 04  5 21  1 20  0.0000000  0  4G11G20G25G 1
  23151232.636   -14822384.58249 -10739142.28046  23151232.765    23151240.867
  20579597.374   -27641632.40449 -20837044.33748  20579597.091    20579603.713
  21785711.120   -22437974.40949 -15942365.02447  21785711.396    21785718.252
  21548526.997   -22093458.14549 -17192305.15347  21548526.915    21548534.810
 04  5 21  1 20 30.0000000  0  4G11G20G25G 1
  23166979.886   -14739631.86649 -10674659.72846  23166980.073    23166988.273
  20571918.042   -27681987.52149 -20868489.87748  20571917.748    20571924.398
  21798624.582   -22370113.83149 -15889486.66847  21798624.856    21798631.710
  21539459.126   -22141110.11349 -17229436.52647  21539459.033    21539466.893
 04  5 21  1 21  0.0000000  0  4G11G20G25G 1
  23182764.188   -14656685.04149 -10610025.91446  23182764.356    23182772.609
  20564323.208   -27721898.78249 -20899589.54948  20564322.906    20564329.545
  21811590.910   -22301975.48549 -15836391.86747  21811591.169    21811598.047
  21530425.127   -22188584.09849 -17266429.21147  21530425.067    21530432.863
 04  5 21  1 21 30.0000000  0  4G11G20G25G 1
  23198584.658   -14573548.36649 -10545244.17246  23198584.804    23198593.133
  20556812.904   -27761365.67049 -20930342.95948  20556812.595    20556819.244
  21824609.517   -22233562.58649 -15783083.13447  21824609.757    21824616.653
  21521424.721   -22235881.34049 -17303284.17947  21521424.648    21521432.410
 04  5 21  1 22  0.0000000  0  4G11G20G25G 1
  23214440.972   -14490223.40749 -10480315.70246  23214441.107    23214449.424
  20549387.692   -27800385.25149 -20960747.81648  20549387.395    20549394.056
  21837680.121   -22164876.19449 -15729561.29047  21837680.369    21837687.277
  21512458.235   -22283000.56749 -17340000.42947  21512458.165    21512465.890
 04  5 21  1 22 30.0000000  0  4G11G20G25G 1
  23230332.104   -14406714.95549 -10415244.26146  23230332.255    23230340.579
  20542047.622   -27838957.37349 -20990804.00848  20542047.337    20542053.997
  21850802.008   -22095920.40049 -15675829.52747  21850802.254    21850809.178
  21503525.243   -22329943.71549 -17376579.47247  21503525.159    21503532.895
 04  5 21  1 23  0.0000000  0  4G11G20G25G 1
  23246258.183   -14323023.34949 -10350030.10146  23246258.300    23246266.607
  20534793.549   -27877077.77449 -21020508.20648  20534793.268    20534799.915
  21863975.149   -22026694.98949 -15621887.66947  21863975.395    21863982.344
  21494626.243   -22376708.23649 -17413019.33047  21494626.160    21494633.885
 04  5 21  1 23 30.0000000  0  4G11G20G25G 1
  23262218.190   -14239153.22649 -10284676.82846  23262218.311    23262226.599
  20527625.538   -27914746.04249 -21049860.09248  20527625.271    20527631.875
  21877198.997   -21957203.22949 -15567738.26447  21877199.240    21877206.182
  21485760.925   -22423295.66349 -17449321.18947  21485760.827    21485768.558
 04  5 21  1 24  0.0000000  0  4G11G20G25G 1
  23278212.054   -14155105.73149 -10219185.35246  23278212.108    23278220.391
  20520544.127   -27951959.07449 -21078857.25548  20520543.843    20520550.456
  21890473.352   -21887445.94549 -15513381.96847  21890473.620    21890480.549
  21476929.592   -22469704.34349 -17485483.77647  21476929.491    21476937.227
 04  5 21  1 24 30.0000000  0  4G11G20G25G 1
  23294238.659   -14070885.83149 -10153559.52346  23294238.744    23294246.967
  20513549.366   -27988716.62349 -21107499.49048  20513549.076    20513555.722
  21903797.511   -21817427.16249 -15458821.90147  21903797.786    21903804.733
  21468131.966   -22515936.04649 -17521508.44847  21468131.882    21468139.643
 04  5 21  1 25  0.0000000  0  4G11G20G25G 1
  23310297.782   -13986495.36549 -10087800.80546  23310297.866    23310306.010
  20506641.775   -28025016.22349 -21135784.88748  20506641.507    20506648.151
  21917171.203   -21747147.92849 -15404058.89147  21917171.468    21917178.438
  21459368.181   -22561989.97049 -17557394.59647  21459368.099    21459375.854
 04  5 21  1 25 30.0000000  0  4G11G20G25G 1
  23326388.835   -13901936.65849 -10021910.97346  23326388.927    23326397.111
  20499821.781   -28060855.49449 -21163711.58248  20499821.519    20499828.152
  21930594.162   -21676610.00049 -15349094.30447  21930594.415    21930601.388
  21450638.339   -22607865.47349 -17593141.71447  21450638.262    21450645.987
 04  5 21  1 26  0.0000000  0  5G11G20G25G13G 1
  23342509.045   -13817224.54849  -9955901.61446  23342509.187    23342517.426
  20493087.493   -28096244.43249 -21191287.36948  20493087.221    20493093.868
  21944063.716   -21605827.15949 -15293938.87247  21944063.980    21944070.939
  24639631.773    -8397744.61749  -6524309.69145  24639632.199    24639641.818
  21441940.225   -22653574.22849 -17628758.89547  21441940.164    21441947.868
 04  5 21  1 26 30.0000000  0  5G11G20G25G13G 1
  23358660.894   -13732346.14849  -9889762.66746  23358661.075    23358669.323
  20486442.205   -28131165.80249 -21218498.82248  20486441.921    20486448.542
  21957582.347   -21534786.17949 -15238582.30047  21957582.662    21957589.596
  24623901.348    -8480406.63449  -6588721.53045  24623901.908    24623911.697
  21433276.816   -22699100.68949 -17664234.03747  21433276.761    21433284.446
 04  5 21  1 27  0.0000000  0  5G11G20G25G13G 1
  23374843.811   -13647304.80049  -9823496.74746  23374843.932    23374852.158
  20479886.160   -28165618.10149 -21245344.76848  20479885.850    20479892.447
  21971149.769   -21463489.35949 -15183026.36447  21971150.029    21971156.917
  24608181.154    -8563016.26149  -6653092.54345  24608181.591    24608191.472
  21424648.076   -22744445.08449 -17699567.30647  21424648.015    21424655.671
 04  5 21  1 27 30.0000000  0  5G11G20G25G13G 1
  23391056.768   -13562105.65449  -9757107.87546  23391056.809    23391065.030
  20473419.269   -28199601.85449 -21271825.60548  20473418.947    20473425.556
  21984764.921   -21391941.29449 -15127274.66047  21984765.204    21984772.105
  24592470.331    -8645576.48049  -6717425.06645  24592470.757    24592480.677
  21416053.544   -22789609.62549 -17734760.43247  21416053.455    21416061.111
 04  5 21  1 28  0.0000000  0  5G11G20G25G13G 1
  23407299.178   -13476751.63749  -9690598.32245  23407299.234    23407307.393
  20467041.863   -28233115.20049 -21297939.89948  20467041.562    20467048.169
  21998427.634   -21320143.63649 -15071328.47347  21998427.895    21998434.793
  24576769.165    -8728086.40249  -6781718.40745  24576769.486    24576779.403
  21407493.240   -22834594.02849 -17769813.19447  21407493.191    21407500.851
 04  5 21  1 28 30.0000000  0  5G11G20G25G13G 1
  23423570.164   -13391247.03449  -9623971.42345  23423570.259    23423578.502
  20460753.981   -28266158.15249 -21323687.64448  20460753.695    20460760.298
  22012137.047   -21248100.20749 -15015190.77047  22012137.314    22012144.219
  24561077.248    -8810547.73949  -6845973.88545  24561077.599    24561087.326
  21398966.920   -22879400.12349 -17804727.01247  21398966.844    21398974.509
 04  5 21  1 29  0.0000000  0  5G11G20G25G13G 1
  23439869.393   -13305593.64449  -9557228.60845  23439869.506    23439877.823
  20454556.207   -28298727.78349 -21349066.57748  20454555.916    20454562.507
  22025893.057   -21175812.02349 -14958862.35647  22025893.331    22025900.229
  24545394.952    -8892959.17749  -6910190.46545  24545395.187    24545404.855
  21390474.765   -22924026.64749 -17839500.91247  21390474.692    21390482.334
 04  5 21  1 29 30.0000000  0  5G11G20G25G13G 1
  23456196.300   -13219795.15349  -9490372.70945  23456196.403    23456204.799
  20448448.684   -28330823.17749 -21374075.97148  20448448.394    20448454.957
  22039695.075   -21103282.20949 -14902345.64847  22039695.346    22039702.212
  24529721.805    -8975321.53949  -6974368.81345  24529722.107    24529731.635
  21382016.687   -22968474.23149 -17874135.37547  21382016.628    21382024.247
 04  5 21  1 30  0.0000000  0  5G11G20G25G13G 1
  23472550.222   -13133854.98049  -9423406.41745  23472550.382    23472558.724
  20442431.546   -28362443.25149 -21398714.98848  20442431.269    20442437.815
  22053542.582   -21030513.21349 -14845642.57247  22053542.830    22053549.731
  24514057.848    -9057635.46749  -7038509.41345  24514058.240    24514067.742
  21373592.499   -23012743.47949 -17908630.87047  21373592.440    21373600.062
 04  5 21  1 30 30.0000000  0  5G11G20G25G13G 1
  23488930.747   -13047774.91649  -9356331.13645  23488930.861    23488939.273
  20436505.468   -28393584.95649 -21422981.24848  20436505.212    20436511.754
  22067435.463   -20957505.71249 -14788753.64647  22067435.682    22067442.620
  24498403.424    -9139899.05049  -7102610.78845  24498403.909    24498413.381
  21365202.530   -23056832.74849 -17942986.12647  21365202.488    21365210.124
 04  5 21  1 31  0.0000000  0  5G11G20G25G13G 1
  23505337.192   -12961558.70649  -9289149.75145  23505337.354    23505345.822
  20430670.555   -28424247.70949 -21446874.29948  20430670.291    20430676.807
  22081373.130   -20884262.82849 -14731681.30947  22081373.363    22081380.298
  24482758.633    -9222113.15349  -7166673.62045  24482759.009    24482768.430
  21356846.630   -23100743.07649 -17977201.94847  21356846.613    21356854.225
 04  5 21  1 31 30.0000000  0  5G11G20G25G13G 1
  23521768.962   -12875209.57749  -9221864.79445  23521769.098    23521777.607
  20424927.048   -28454430.21549 -21470393.12848  20424926.747    20424933.289
  22095355.134   -20810787.06149 -14674427.50147  22095355.344    22095362.314
  24467123.188    -9304278.20249  -7230698.21545  24467123.613    24467132.838
  21348524.752   -23144474.85749 -18011278.63947  21348524.714    21348532.333
 04  5 21  1 32  0.0000000  0  5G11G20G25G13G 1
  23538225.635   -12788729.47849  -9154477.79045  23538225.775    23538234.308
  20419275.357   -28484129.86949 -21493535.71448  20419275.070    20419281.629
  22109381.177   -20737079.78049 -14616993.29447  22109381.374    22109388.347
  24451496.996    -9386393.26049  -7294683.88945  24451497.401    24451506.904
  21340237.028   -23188027.08949 -18045215.42847  21340236.982    21340244.623
 04  5 21  1 32 30.0000000  0  5G11G20G25G13G 1
  23554706.696   -12702121.13149  -9086990.85845  23554706.816    23554715.438
  20413715.907   -28513344.89649 -21516300.66948  20413715.619    20413722.181
  22123450.840   -20663142.87549 -14559380.16147  22123451.074    22123458.102
  24435880.452    -9468457.92649  -7358630.26545  24435880.941    24435890.288
  21331983.570   -23231399.39849 -18079012.01247  21331983.525    21331991.142
 04  5 21  1 33  0.0000000  0  5G11G20G25G13G 1
  23571211.598   -12615387.82449  -9019406.54845  23571211.600    23571220.402
  20408248.928   -28542073.95449 -21538686.93948  20408248.643    20408255.242
  22137563.761   -20588979.06349 -14501590.21547  22137564.033    22137571.067
  24420273.451    -9550472.46149  -7422537.62345  24420273.886    24420283.303
  21323764.216   -23274592.20949 -18112668.72747  21323764.185    21323771.781
 04  5 21  1 33 30.0000000  0  5G11G20G25G13G 1
  23587739.767   -12528532.05049  -8951726.82445  23587739.867    23587748.560
  20402874.797   -28570315.13549 -21560693.05948  20402874.514    20402881.115
  22151719.629   -20514589.61849 -14443624.45247  22151719.903    22151726.957
  24404676.231    -9632436.31549  -7486405.45345  24404676.705    24404686.027
  21315579.233   -23317604.79349 -18146185.01047  21315579.162    21315586.735
 04  5 21  1 34  0.0000000  0  5G11G20G25G13G 1
  23604290.607   -12441557.33649  -8883954.42945  23604290.670    23604299.425
  20397593.715   -28598067.53749 -21582318.30548  20397593.440    20397600.016
  22165918.005   -20439976.99249 -14385484.77647  22165918.264    22165925.284
  24389088.445    -9714349.91549  -7550234.15145  24389088.986    24389098.122
  21307428.376   -23360437.72849 -18179561.30447  21307428.324    21307435.886
 04  5 21  1 34 30.0000000  0  5G11G20G25G13G 1
  23620863.594   -12354466.07249  -8816091.20945  23620863.686    23620872.376
  20392405.994   -28625329.24049 -21603561.19548  20392405.721    20392412.301
  22180158.507   -20365143.16749 -14327172.73947  22180158.765    22180165.738
  24373510.327    -9796212.65149  -7614023.17245  24373510.711    24373519.965
  21299311.783   -23403090.56149 -18212797.25747  21299311.713    21299319.307
 04  5 21  1 35  0.0000000  0  5G11G20G25G13G 1
  23637458.235   -12267261.53749  -8748139.73145  23637458.278    23637466.956
  20387311.905   -28652098.79749 -21624420.59048  20387311.618    20387318.250
  22194440.597   -20290090.43049 -14268690.11947  22194440.868    22194447.831
  24357941.836    -9878024.77149  -7677772.78545  24357942.557    24357951.532
  21291229.433   -23445563.55949 -18245893.08347  21291229.379    21291236.947
 04  5 21  1 35 30.0000000  0  5G11G20G25G13G 1
  23654073.966   -12179946.50749  -8680102.14245  23654073.965    23654082.605
  20382311.731   -28678374.68549 -21644895.30748  20382311.449    20382318.097
  22208764.000   -20214820.84749 -14210038.53047  22208764.252    22208771.200
  24342383.274    -9959786.04249  -7741482.78145  24342383.899    24342392.784
  21283181.343   -23487856.57549 -18278848.65947  21283181.270    21283188.873
 04  5 21  1 36  0.0000000  0  5G11G20G25G13G 1
  23670709.935   -12092523.89149  -8611980.73345  23670710.008    23670718.678
  20377405.807   -28704155.60249 -21664984.32648  20377405.536    20377412.187
  22223128.166   -20139336.76049 -14151219.78947  22223128.438    22223135.394
  24326834.240   -10041496.71249  -7805153.31845  24326834.922    24326843.871
  21275167.448   -23529969.68149 -18311664.04247  21275167.398    21275174.981
 04  5 21  1 36 30.0000000  0  5G11G20G25G13G 1
  23687366.078   -12004995.18649  -8543776.64445  23687366.218    23687374.915
  20372594.642   -28729438.48049 -21684685.27448  20372594.356    20372600.988
  22237532.983   -20063638.99549 -14092234.55347  22237533.246    22237540.234
  24311295.309   -10123154.86549  -7868782.95845  24311295.939    24311304.669
  21267188.156   -23571901.24649 -18344337.97847  21267188.102    21267195.630
 04  5 21  1 37  0.0000000  0  5G11G20G25G13G 1
  23704041.827   -11917363.85749  -8475492.60545  23704041.983    23704050.610
  20367878.385   -28754222.47349 -21703997.47748  20367878.101    20367884.711
  22251977.994   -19987729.96249 -14033084.68247  22251978.266    22251985.264
  24295765.889   -10204761.33049  -7932372.30645  24295766.601    24295775.431
  21259243.302   -23613651.76249 -18376870.82847  21259243.242    21259250.771
 04  5 21  1 37 30.0000000  0  5G11G20G25G13G 1
  23720736.448   -11829633.57449  -8407131.44345  23720736.576    23720745.194
  20363257.262   -28778506.71849 -21722920.26748  20363256.990    20363263.593
  22266462.722   -19911612.27949 -13973772.23747  22266463.008    22266470.018
  24280246.386   -10286316.40049  -7995921.62745  24280246.925    24280255.848
  21251332.773   -23655221.77749 -18409263.03147  21251332.699    21251340.247
 04  5 21  1 38  0.0000000  0  6G 4G11G20G25G13G 1
  24779934.700    -6352907.51449  -4617985.34245  24779935.087    24779944.227
  23737449.265   -11741806.90649  -8338695.18745  23737449.386    23737458.085
  20358731.575   -28802289.43549 -21741452.25348  20358731.294    20358737.882
  22280986.823   -19835287.65449 -13914298.52947  22280987.093    22280994.126
  24264736.858   -10367819.46749  -8059430.40345  24264737.252    24264746.132
  21243456.692   -23696610.75149 -18441514.16147  21243456.621    21243464.163
 04  5 21  1 38 30.0000000  0  6G 4G11G20G25G13G 1
  24768836.054    -6411230.87349  -4663432.05945  24768836.502    24768845.737
  23754179.495   -11653889.01149  -8270187.84545  23754179.654    23754188.331
  20354301.116   -28825571.79649 -21759594.35848  20354300.841    20354307.400
  22295549.483   -19758760.78749 -13854667.23547  22295549.712    22295556.774
  24249236.824   -10449273.05449  -8122900.66345  24249237.333    24249245.773
  21235614.605   -23737821.07949 -18473626.09847  21235614.540    21235622.073
 04  5 21  1 39  0.0000000  0  6G 4G11G20G25G13G 1
  24757823.002    -6469103.79849  -4708527.83945  24757823.565    24757832.585
  23770927.508   -11565877.87349  -8201607.84745  23770927.648    23770936.417
  20349967.134   -28848347.14349 -21777341.38848  20349966.851    20349973.412
  22310151.173   -19682028.47549 -13794875.85847  22310151.424    22310158.468
  24233746.980   -10530671.92149  -8186328.28345  24233747.555    24233756.055
  21227807.503   -23778847.48449 -18505594.71447  21227807.475    21227814.972
 04  5 21  1 39 30.0000000  0  6G 4G11G20G25G13G 1
  24746895.719    -6526526.79049  -4753272.97845  24746896.172    24746905.243
  23787692.425   -11477778.86749  -8132959.37145  23787692.533    23787701.330
  20345729.394   -28870616.55949 -21794694.18248  20345729.105    20345735.664
  22324791.048   -19605095.41849 -13734928.05347  22324791.309    22324798.403
  24218267.143   -10612018.26849  -8249714.95545  24218267.772    24218276.347
  21220035.005   -23819692.36949 -18537421.88447  21220034.946    21220042.434
 04  5 21  1 40  0.0000000  0  6G 4G11G20G25G13G 1
  24736054.510    -6583496.96249  -4797665.27445  24736055.066    24736064.080
  23804473.706   -11389593.36949  -8064243.49945  23804473.725    23804482.597
  20341588.479   -28892377.31349 -21811650.61448  20341588.172    20341594.752
  22339468.979   -19527962.27649 -13674824.33247  22339469.267    22339476.385
  24202797.591   -10693310.66849  -8313059.60745  24202798.222    24202806.976
  21212297.241   -23860354.34749 -18569106.52547  21212297.202    21212304.683
 04  5 21  1 40 30.0000000  0  6G 4G11G20G25G13G 1
  24725299.764    -6640013.93449  -4841704.44245  24725300.401    24725309.189
  23821270.629   -11301325.37349  -7995463.34845  23821270.668    23821279.493
  20337544.355   -28913629.33449 -21828210.63748  20337544.051    20337550.632
  22354184.518   -19450632.12249 -13614567.10147  22354184.770    22354191.899
  24187338.120   -10774550.38149  -8376363.20245  24187338.754    24187347.560
  21204594.093   -23900834.53249 -18600649.51747  21204594.055    21204601.554
 04  5 21  1 41  0.0000000  0  6G 4G11G20G25G13G 1
  24714631.929    -6696074.85449  -4885388.22145  24714632.415    24714641.231
  23838082.838   -11212977.19749  -7926620.73345  23838082.849    23838091.725
  20333597.464   -28934370.36249 -21844372.48648  20333597.164    20333603.760
  22368937.101   -19373106.65849 -13554157.68147  22368937.367    22368944.491
  24171888.983   -10855736.41749  -8439624.96745  24171889.430    24171898.292
  21196925.711   -23941131.99749 -18632050.13047  21196925.684    21196933.188
 04  5 21  1 41 30.0000000  0  6G 4G11G20G25G13G 1
  24704050.699    -6751679.86349  -4928716.75045  24704051.291    24704059.946
  23854909.576   -11124552.51749  -7857718.49245  23854909.659    23854918.582
  20329747.887   -28954600.05449 -21860135.88448  20329747.589    20329754.193
  22383726.334   -19295388.73849 -13493598.28447  22383726.628    22383733.711
  24156449.702   -10936869.76749  -8502845.69045  24156450.178    24156458.970
  21189291.961   -23981247.57049 -18663309.00147  21189291.928    21189299.441
 04  5 21  1 42  0.0000000  0  6G 4G11G20G25G13G 1
  24693556.780    -6806825.21949  -4971687.11245  24693557.296    24693566.177
  23871750.480   -11036053.08549  -7788758.01345  23871750.521    23871759.716
  20325996.137   -28974315.73649 -21875498.75648  20325995.856    20326002.438
  22398552.142   -19217478.80849 -13432889.27247  22398552.415    22398559.487
  24141020.750   -11017948.62749  -8566023.94545  24141021.200    24141030.177
  21181693.119   -24021179.76649 -18694424.99047  21181693.069    21181700.603
 04  5 21  1 42 30.0000000  0  6G 4G11G20G25G13G 1
  24683150.249    -6861510.89649  -5014299.27745  24683150.860    24683159.848
  23888604.866   -10947482.50449  -7719742.07745  23888604.963    23888614.248
  20322342.225   -28993517.09349 -21890460.85848  20322341.935    20322348.510
  22413413.882   -19139379.98949 -13372033.08347  22413414.166    22413421.241
  24125602.066   -11098973.82549  -8629160.38145  24125602.613    24125611.504
  21174128.978   -24060929.38949 -18725398.71147  21174128.916    21174136.460
 04  5 21  1 43  0.0000000  0  6G 4G11G20G25G13G 1
  24672831.775    -6915734.57349  -5056551.42245  24672832.364    24672841.640
  23905472.344   -10858843.23049  -7650672.63945  23905472.426    23905481.910
  20318786.501   -29012202.41949 -21905020.85748  20318786.237    20318792.810
  22428311.196   -19061094.09549 -13311031.11847  22428311.473    22428318.576
  24110193.754   -11179944.92249  -8692254.62945  24110194.360    24110203.189
  21166599.697   -24100495.93449 -18756229.77147  21166599.638    21166607.218
 04  5 21  1 43 30.0000000  0  6G 4G11G20G25G13G 1
  24662601.684    -6969494.98449  -5098442.65145  24662602.187    24662611.131
  23922352.413   -10770138.48649  -7581552.15945  23922352.500    23922361.953
  20315329.262   -29030370.50949 -21919177.81748  20315328.980    20315335.546
  22443243.729   -18982623.33749 -13249885.10547  22443243.995    22443251.133
  24094795.721   -11260861.92349  -8755306.73645  24094796.359    24094805.217
  21159105.249   -24139879.33249 -18786918.12347  21159105.206    21159112.770
 04  5 21  1 44  0.0000000  0  6G 4G11G20G25G13G 1
  24652460.016    -7022789.42649  -5139970.72345  24652460.537    24652469.519
  23939244.567   -10681370.10049  -7512382.11745  23939244.725    23939254.058
  20311970.808   -29048019.42149 -21932930.22448  20311970.505    20311977.071
  22458211.211   -18903968.76049 -13188595.86147  22458211.464    22458218.638
  24079408.307   -11341723.83849  -8818315.90345  24079408.922    24079417.593
  21151645.842   -24179078.82349 -18817463.16747  21151645.790    21151653.360
 04  5 21  1 44 30.0000000  0  6G 4G11G20G25G13G 1
  24642407.206    -7075617.74449  -5181135.57845  24642407.676    24642416.734
  23956147.986   -10592542.20349  -7443165.69645  23956148.254    23956157.471
  20308711.182   -29065148.84649 -21946277.83648  20308710.892    20308717.453
  22473213.091   -18825133.38849 -13127165.72847  22473213.328    22473220.540
  24064031.138   -11422531.47249  -8881282.80245  24064031.678    24064040.242
  21144221.258   -24218095.23249 -18847865.55547  21144221.210    21144228.772
 04  5 21  1 45  0.0000000  0  6G 4G11G20G25G13G 1
  24632443.669    -7127976.76749  -5221934.79545  24632444.044    24632452.934
  23973062.562   -10503655.84249  -7373903.72345  23973062.864    23973072.055
  20305551.008   -29081755.85249 -21959218.36648  20305550.720    20305557.256
  22488249.267   -18746117.48649 -13065594.93247  22488249.569    22488256.830
  24048664.521   -11503283.19149  -8944206.09345  24048664.996    24048673.753
  21136831.882   -24256926.55249 -18878123.72147  21136831.836    21136839.393
 04  5 21  1 45 30.0000000  0  6G 4G11G20G25G13G 1
  24622569.280    -7179866.77149  -5262368.51845  24622569.680    24622578.722
  23989987.383   -10414715.73349  -7304599.85045  23989987.718    23989996.828
  20302490.035   -29097841.39549 -21971752.56048  20302489.749    20302496.273
  22503319.047   -18666925.14949 -13003886.65347  22503319.326    22503326.643
  24033308.270   -11583980.68849  -9007087.16445  24033308.787    24033317.447
  21129477.391   -24295574.74249 -18908239.18247  21129477.337    21129484.892
 04  5 21  1 46  0.0000000  0  6G 4G11G20G25G13G 1
  24612784.842    -7231284.26049  -5302434.05945  24612785.243    24612794.240
  24006922.279   -10325722.54949  -7235254.64245  24006922.594    24006931.828
  20299528.943   -29113401.87749 -21983877.61948  20299528.659    20299535.200
  22518422.523   -18587556.11449 -12942040.69347  22518422.820    22518430.132
  24017962.642   -11664621.74949  -9069924.25045  24017963.201    24017971.771
  21122158.155   -24334037.60249 -18938210.23447  21122158.094    21122165.641
 04  5 21  1 46 30.0000000  0  6G 4G11G20G25G13G 1
  24603090.381    -7282229.70949  -5342131.75945  24603090.794    24603099.616
  24023866.333   -10236681.23649  -7165871.93345  24023866.604    24023876.005
  20296667.671   -29128438.07449 -21995594.14348  20296667.400    20296673.930
  22533558.852   -18508014.49649 -12880060.24247  22533559.142    22533566.422
  24002627.538   -11745207.98249  -9132718.60345  24002628.076    24002636.617
  21114873.873   -24372316.71249 -18968038.10147  21114873.807    21114881.335
 04  5 21  1 47  0.0000000  0  6G 4G11G20G25G13G 1
  24593486.131    -7332699.63749  -5381458.93745  24593486.474    24593495.378
  24040819.362   -10147592.77049  -7096452.47345  24040819.676    24040829.205
  20293906.704   -29142947.13649 -22006899.90548  20293906.411    20293912.965
  22548727.978   -18428300.53549 -12817945.50346  22548728.270    22548735.545
  23987303.143   -11825737.36949  -9195468.70545  23987303.765    23987312.189
  21107624.923   -24410410.14149 -18997721.27947  21107624.845    21107632.392
 04  5 21  1 47 30.0000000  0  6G 4G11G20G25G13G 1
  24583972.459    -7382694.02149  -5420415.59545  24583972.850    24583981.696
  24057780.734   -10058461.21849  -7026999.43745  24057780.944    24057790.531
  20291246.003   -29156929.08549 -22017794.93648  20291245.723    20291252.274
  22563929.199   -18348417.49449 -12755699.01946  22563929.536    22563936.797
  23971989.297   -11906211.02549  -9258175.33045  23971989.937    23971998.471
  21100411.121   -24448319.00749 -19027260.64447  21100411.049    21100418.573
 04  5 21  1 48  0.0000000  0  6G 4G11G20G25G13G 1
  24574549.854    -7432209.85249  -5458999.32345  24574550.253    24574559.251
  24074750.034    -9969287.72449  -6957513.72845  24074750.256    24074759.877
  20288686.135   -29170381.23449 -22028277.13848  20288685.865    20288692.401
  22579162.714   -18268365.24649 -12693320.68046  22579163.021    22579170.261
  23956686.484   -11986627.38849  -9320837.35945  23956687.181    23956695.787
  21093232.809   -24486041.53749 -19056654.81147  21093232.739    21093240.218
 04  5 21  1 48 30.0000000  0  6G 4G11G20G25G13G 1
  24565218.168    -7481248.04349  -5497210.86145  24565218.622    24565227.514
  24091726.353    -9880077.45349  -6887999.34545  24091726.654    24091736.109
  20286226.908   -29183304.51349 -22038347.22648  20286226.628    20286233.187
  22594427.503   -18188148.45149 -12630814.11846  22594427.823    22594435.027
  23941394.315   -12066988.26049  -9383456.08845  23941394.937    23941403.638
  21086089.508   -24523579.70449 -19085905.31447  21086089.424    21086096.916
 04  5 21  1 49  0.0000000  0  6G 4G11G20G25G13G 1
  24555977.953    -7529805.07349  -5535047.47145  24555978.390    24555987.327
  24108709.551    -9790831.22749  -6818456.96745  24108709.747    24108719.217
  20283868.843   -29195696.18649 -22048003.07348  20283868.560    20283875.140
  22609723.643   -18107767.10049 -12568179.33646  22609723.924    22609731.123
  23926113.107   -12147291.57449  -9446030.03145  23926113.697    23926122.270
  21078981.628   -24560931.59949 -19115010.66747  21078981.545    21078989.078
 04  5 21  1 49 30.0000000  0  6G 4G11G20G25G13G 1
  24546829.344    -7577880.75649  -5572508.98745  24546829.933    24546838.834
  24125698.783    -9701552.74349  -6748889.44045  24125698.936    24125708.481
  20281612.028   -29207555.93349 -22057244.43548  20281611.752    20281618.332
  22625050.527   -18027224.06149 -12505418.57146  22625050.783    22625057.971
  23910842.605   -12227537.94949  -9508559.57345  23910843.117    23910851.676
  21071909.118   -24598097.69349 -19143971.24647  21071909.051    21071916.607
 04  5 21  1 50  0.0000000  0  6G 4G11G20G25G13G 1
  24537772.980    -7625472.63449  -5609593.56145  24537773.553    24537782.311
  24142693.845    -9612243.83649  -6679298.21245  24142694.071    24142703.493
  20279456.787   -29218881.82749 -22066069.81148  20279456.504    20279463.082
  22640408.011   -17946520.07549 -12442532.37946  22640408.251    22640415.470
  23895583.022   -12307726.63449  -9571044.17545  23895583.642    23895591.985
  21064872.190   -24635076.95549 -19172786.24047  21064872.132    21064879.697
 04  5 21  1 50 30.0000000  0  6G 4G11G20G25G13G 1
  24528808.753    -7672580.12349  -5646300.65145  24528809.379    24528818.141
  24159693.907    -9522908.13749  -6609686.11745  24159694.192    24159703.604
  20277403.241   -29229673.44849 -22074478.87148  20277402.946    20277409.512
  22655795.531   -17865658.08549 -12379523.07846  22655795.769    22655803.006
  23880334.470   -12387858.05849  -9633484.14045  23880335.048    23880343.434
  21057870.741   -24671869.74749 -19201455.93547  21057870.679    21057878.270
 04  5 21  1 51  0.0000000  0  6G 4G11G20G25G13G 1
  24519937.100    -7719200.58849  -5682628.25945  24519937.700    24519946.558
  24176698.748    -9433547.00649  -6540054.19645  24176699.159    24176708.635
  20275451.784   -29239928.44949 -22082469.78448  20275451.487    20275458.058
  22671212.984   -17784638.67049 -12316391.10446  22671213.226    22671220.522
  23865097.225   -12467930.38249  -9695878.08545  23865097.787    23865106.005
  21050905.079   -24708474.54849 -19229979.13947  21050905.032    21050912.613
 04  5 21  1 51 30.0000000  0  6G 4G11G20G25G13G 1
  24511158.085    -7765334.25849  -5718576.53245  24511158.628    24511167.446
  24193707.720    -9344164.96549  -6470405.97845  24193708.105    24193717.547
  20273602.359   -29249647.22749 -22090042.85948  20273602.047    20273608.638
  22686659.726   -17703465.55949 -12253139.37946  22686659.982    22686667.276
  23849870.839   -12547945.02949  -9758227.05345  23849871.388    23849879.696
  21043974.927   -24744892.73049 -19258356.92847  21043974.869    21043982.464
 04  5 21  1 52  0.0000000  0  6G 4G11G20G25G13G 1
  24502472.283    -7810978.37949  -5754143.35345  24502472.771    24502481.611
  24210720.434    -9254763.17849  -6400742.38045  24210720.856    24210730.160
  20271855.409   -29258827.48849 -22097196.31248  20271855.107    20271861.684
  22702135.733   -17622138.63949 -12189767.78646  22702136.048    22702143.255
  23834655.787   -12627900.42749  -9820529.87245  23834656.421    23834664.618
  21037080.609   -24781122.59549 -19286587.97947  21037080.552    21037088.100
 04  5 21  1 52 30.0000000  0  6G 4G11G20G25G13G 1
  24493879.571    -7856132.88649  -5789328.67745  24493880.100    24493888.913
  24227736.337    -9165345.62649  -6331066.51345  24227736.537    24227745.987
  20270210.929   -29267469.43449 -22103930.29948  20270210.625    20270217.200
  22717640.433   -17540661.18049 -12126278.89146  22717640.754    22717647.953
  23819451.888   -12707797.41349  -9882787.15945  23819452.575    23819460.688
  21030221.943   -24817165.14149 -19314673.06747  21030221.860    21030229.409
 04  5 21  1 53  0.0000000  0  6G 4G11G20G25G13G 1
  24485380.231    -7900796.29849  -5824131.30645  24485380.983    24485389.713
  24244754.631    -9075914.79049  -6261380.28845  24244754.706    24244764.131
  20268669.065   -29275571.95149 -22110243.95048  20268668.753    20268675.344
  22733173.399   -17459034.99749 -12062674.10146  22733173.761    22733180.934
  23804259.190   -12787635.59049  -9944998.62045  23804259.743    23804267.906
  21023398.972   -24853019.99249 -19342611.89447  21023398.914    21023406.446
 04  5 21  1 53 30.0000000  0  6G 4G11G20G25G13G 1
  24476974.850    -7944966.55849  -5858549.66845  24476975.603    24476984.301
  24261775.027    -8986472.63149  -6191685.21445  24261775.002    24261784.432
  20267230.193   -29283133.09049 -22116135.74848  20267229.889    20267236.493
  22748734.572   -17377260.85949 -11998954.02746  22748734.899    22748742.075
  23789077.776   -12867413.81849 -10007163.38045  23789078.244    23789086.508
  21016611.961   -24888685.85149 -19370403.46047  21016611.912    21016619.423
 04  5 21  1 54  0.0000000  0  6G 4G11G20G25G13G 1
  24468663.455    -7988643.27349  -5892583.46545  24468664.207    24468672.828
  24278796.793    -8897022.88649  -6121984.24545  24278796.828    24278806.293
  20265894.402   -29290152.93349 -22121605.75548  20265894.103    20265900.692
  22764323.241   -17295342.02149 -11935121.20046  22764323.586    22764330.745
  23773907.502   -12947133.22149 -10069282.28645  23773908.016    23773916.298
  21009860.753   -24924163.68449 -19398048.50347  21009860.696    21009868.212
 04  5 21  1 54 30.0000000  0  6G 4G11G20G25G13G 1
  24460446.461    -8031824.30149  -5926230.99045  24460446.955    24460455.842
  24295819.841    -8807567.10149  -6052278.56645  24295819.854    24295829.303
  20264661.960   -29296629.29849 -22126652.27748  20264661.667    20264668.275
  22779939.373   -17213278.88749 -11871175.94446  22779939.706    22779946.843
  23758748.810   -13026792.19449 -10131354.12645  23758749.350    23758757.552
  21003145.596   -24959451.93749 -19425545.82947  21003145.545    21003153.056
 04  5 21  1 55  0.0000000  0  6G 4G11G20G25G13G 1
  24452323.867    -8074509.14549  -5959491.91145  24452324.428    24452333.125
  24312843.203    -8718108.71749  -5982570.87145  24312843.209    24312852.770
  20263532.978   -29302562.32249 -22131275.41348  20263532.678    20263539.262
  22795582.412   -17131074.40949 -11807120.53046  22795582.696    22795589.817
  23743601.687   -13106390.99349 -10193379.04745  23743602.206    23743610.319
  20996466.445   -24994550.90449 -19452895.65547  20996466.399    20996473.910
 04  5 21  1 55 30.0000000  0  6G 4G11G20G25G13G 1
  24444295.858    -8116695.93249  -5992364.71745  24444296.337    24444305.193
  24329866.626    -8628650.07849  -5912862.98445  24329866.754    24329876.478
  20262507.629   -29307950.38049 -22135473.90548  20262507.338    20262513.934
  22811252.001   -17048730.08149 -11742956.16546  22811252.259    22811259.457
  23728466.173   -13185928.99349 -10255356.62745  23728466.634    23728474.651
  20989823.420   -25029460.08549 -19480097.59747  20989823.388    20989830.890
 04  5 21  1 56  0.0000000  0  6G 4G11G20G25G13G 1
  24436362.812    -8158383.35149  -6024848.38545  24436363.326    24436372.506
  24346889.615    -8539193.26949  -5843156.52745  24346889.809    24346899.576
  20261586.303   -29312791.93249 -22139246.55448  20261586.026    20261592.617
  22826948.065   -16966246.77149 -11678683.49246  22826948.302    22826955.564
  23713342.122   -13265405.45849 -10317286.23445  23713342.705    23713350.575
  20983216.723   -25064178.49349 -19507150.88647  20983216.701    20983224.191
 04  5 21  1 56 30.0000000  0  6G 4G11G20G25G13G 1
  24428525.143    -8199570.72249  -6056942.42345  24428525.683    24428534.705
  24363911.749    -8449742.09949  -5773454.46845  24363911.844    24363921.535
  20260768.930   -29317087.26049 -22142593.57348  20260768.662    20260775.248
  22842670.063   -16883627.27449 -11614304.70546  22842670.318    22842677.605
  23698229.742   -13344821.01949 -10379168.40245  23698230.348    23698238.291
  20976646.175   -25098706.91549 -19534056.13447  20976646.160    20976653.617
 04  5 21  1 57  0.0000000  0  6G 4G11G20G25G13G 1
  24420782.868    -8240256.86749  -6088645.85945  24420783.395    24420792.262
  24380932.357    -8360298.55549  -5703758.31745  24380932.382    24380942.215
  20260055.745   -29320835.03249 -22145513.91548  20260055.475    20260062.076
  22858417.716   -16800872.89749 -11549820.80846  22858417.966    22858425.269
  23683128.941   -13424174.99349 -10441002.59645  23683129.641    23683137.600
  20970111.923   -25133044.62849 -19560812.77147  20970111.904    20970119.327
 04  5 21  1 57 30.0000000  0  6G 4G11G20G25G13G 1
  24413136.259    -8280440.85649  -6119958.06145  24413136.608    24413145.541
  24397950.963    -8270865.77449  -5634070.57445  24397951.039    24397960.878
  20259446.876   -29324034.76349 -22148007.22248  20259446.607    20259453.219
  22874190.584   -16717985.80649 -11485233.51246  22874190.827    22874198.207
  23668040.049   -13503467.25049 -10502788.66145  23668040.737    23668048.846
  20963614.026   -25167191.29149 -19587420.54447  20963613.982    20963621.417
 04  5 21  1 58  0.0000000  0  6G 4G11G20G25G13G 1
  24405585.430    -8320121.12149  -6150877.74545  24405585.854    24405594.504
  24414967.058    -8181446.03449  -5564393.01645  24414967.269    24414977.106
  20258942.513   -29326685.26849 -22150072.55848  20258942.236    20258948.830
  22889988.374   -16634967.65849 -11420544.08646  22889988.661    22889996.081
  23652963.030   -13582697.27149 -10564526.24245  23652963.704    23652971.745
  20957152.578   -25201146.46249 -19613879.10047  20957152.545    20957159.960
 04  5 21  1 58 30.0000000  0  6G 4G11G20G25G13G 1
  24398130.505    -8359297.19949  -6181404.48345  24398130.984    24398139.739
  24431980.093    -8092042.43949  -5494728.01945  24431980.313    24431990.256
  20258542.804   -29328785.97749 -22151709.48148  20258542.523    20258549.085
  22905810.807   -16551820.51049 -11355754.13546  22905811.067    22905818.497
  23637897.892   -13661865.03049 -10626215.30245  23637898.573    23637906.599
  20950727.510   -25234910.32149 -19640188.57947  20950727.463    20950734.868
 04  5 21  1 59  0.0000000  0  6G 4G11G20G25G13G 1
  24390771.664    -8397967.48949  -6211537.14545  24390772.029    24390780.988
  24448989.496    -8002657.45049  -5425077.50945  24448989.647    24448999.714
  20258247.826   -29330336.15449 -22152917.41548  20258247.527    20258254.090
  22921657.503   -16468545.83149 -11290864.81846  22921657.786    22921665.202
  23622844.620   -13740970.05949 -10687855.50345  23622845.335    23622853.269
  20944338.998   -25268482.30849 -19666348.54647  20944338.936    20944346.332
 04  5 21  1 59 30.0000000  0  6G 4G11G20G25G13G 1
  24383509.431    -8436130.87749  -6241274.84245  24383509.627    24383518.514
  24465995.060    -7913293.39449  -5355443.33345  24465995.213    24466005.286
  20258057.831   -29331334.53049 -22153695.37948  20258057.539    20258064.112
  22937528.211   -16385145.01849 -11225877.21146  22937528.499    22937535.889
  23607803.357   -13820011.87249 -10749446.42245  23607804.017    23607812.070
  20937987.051   -25301861.78249 -19692358.50747  20937987.003    20937994.404
 04  5 21  2  0  0.0000000  0  6G 4G11G20G25G13G 1
  24376343.756    -8473786.80749  -6270617.07345  24376344.010    24376353.113
  24482995.960    -7823953.84849  -5285828.24345  24482996.145    24483006.078
  20257972.854   -29331781.08449 -22154043.35148  20257972.577    20257979.169
  22953422.410   -16301620.88449 -11160793.50746  22953422.676    22953430.059
  23592774.140   -13898990.49149 -10810988.11945  23592774.782    23592782.779
  20931671.697   -25335048.87049 -19718218.55547  20931671.675    20931679.082
 04  5 21  2  0 30.0000000  0  6G 4G11G20G25G13G 1
  24369274.890    -8510933.88249  -6299562.86445  24369275.303    24369284.035
  24499991.703    -7734640.30749  -5216233.41345  24499991.829    24500002.033
  20257993.168   -29331674.36649 -22153960.20248  20257992.893    20257999.480
  22969339.754   -16217974.71849 -11095614.72246  22969340.067    22969347.457
  23577757.078   -13977905.08349 -10872479.91145  23577757.748    23577765.683
  20925393.210   -25368042.61949 -19743927.94847  20925393.192    20925400.583
 04  5 21  2  1  0.0000000  0  6G 4G11G20G25G13G 1
  24362303.235    -8547570.12949  -6328110.55645  24362303.858    24362312.391
  24516982.366    -7645354.44649  -5146660.14345  24516982.526    24516992.736
  20258119.050   -29331012.86249 -22153444.75448  20258118.776    20258125.372
  22985280.280   -16134207.00549 -11030341.22546  22985280.601    22985287.965
  23562752.505   -14056754.39349 -10933920.83045  23562753.155    23562761.036
  20919151.795   -25400841.59949 -19769485.57548  20919151.743    20919159.109
 04  5 21  2  1 30.0000000  0  6G 4G11G20G25G13G 1
  24355428.451    -8583697.00149  -6356261.31745  24355428.996    24355437.710
  24533966.866    -7556101.34649  -5077112.42445  24533967.037    24533977.103
  20258350.202   -29329798.20449 -22152498.27648  20258349.916    20258356.526
  23001243.148   -16050321.87549 -10964976.22646  23001243.411    23001250.779
  23547759.899   -14135540.47049 -10995312.47945  23547760.584    23547768.433
  20912947.010   -25433447.98749 -19794893.12948  20912946.958    20912954.302
 04  5 21  2  2  0.0000000  0  6G 4G11G20G25G13G 1
  24348651.059    -8619311.94949  -6384013.23345  24348651.699    24348660.244
  24550944.856    -7466882.29949  -5007591.21945  24550945.005    24550955.227
  20258686.990   -29328028.27549 -22151119.12448  20258686.713    20258693.321
  23017228.320   -15966319.45349 -10899519.83546  23017228.564    23017235.938
  23532779.719   -14214261.64449 -11056653.56345  23532780.316    23532788.387
  20906779.200   -25465859.89849 -19820149.15148  20906779.148    20906786.511
 04  5 21  2  2 30.0000000  0  6G 4G11G20G25G13G 1
  24341971.317    -8654413.92149  -6411365.40845  24341971.954    24341980.672
  24567915.713    -7377700.06749  -4938098.69445  24567915.855    24567926.214
  20259129.622   -29325702.28849 -22149306.67848  20259129.347    20259135.953
  23033235.488   -15882201.34749 -10833973.30046  23033235.763    23033243.056
  23517811.950   -14292917.27049 -11117943.57245  23517812.567    23517820.597
  20900648.452   -25498077.04549 -19845253.40048  20900648.402    20900655.771
 04  5 21  2  3  0.0000000  0  6G 4G11G20G25G13G 1
  24335389.262    -8689002.61849  -6438317.63445  24335389.960    24335398.781
  24584879.154    -7288557.11349  -4868636.81945  24584879.372    24584889.449
  20259678.060   -29322820.20949 -22147060.90348  20259677.787    20259684.384
  23049264.302   -15797969.81449 -10768338.36646  23049264.456    23049271.834
  23502856.712   -14371507.18749 -11179182.37345  23502857.301    23502865.240
  20894554.731   -25530099.50249 -19870205.94448  20894554.681    20894562.093
 04  5 21  2  3 30.0000000  0  6G 4G11G20G25G13G 1
  24328905.233    -8723076.80649  -6464868.95945  24328905.809    24328914.466
  24601834.634    -7199456.35949  -4799207.77645  24601834.734    24601844.889
  20260332.529   -29319381.07249 -22144381.06348  20260332.244    20260338.851
  23065314.290   -15713626.52749 -10702616.36946  23065314.485    23065321.860
  23487914.004   -14450031.52849 -11240370.07345  23487914.585    23487922.499
  20888498.217   -25561926.66349 -19895006.31548  20888498.174    20888505.586
 04  5 21  2  4  0.0000000  0  6G 4G11G20G25G13G 1
  24322519.175    -8756635.91849  -6491018.88645  24322519.820    24322528.538
  24618781.480    -7110400.51549  -4729813.77245  24618781.632    24618791.944
  20261093.010   -29315384.75549 -22141267.05748  20261092.737    20261099.367
  23081385.239   -15629173.12249 -10636808.55846  23081385.459    23081392.872
  23472983.818   -14528489.65949 -11301506.19645  23472984.422    23472992.313
  20882478.883   -25593558.32049 -19919654.33948  20882478.831    20882486.249
 04  5 21  2  4 30.0000000  0  6G 4G11G20G25G13G 1
  24316231.221    -8789679.28349  -6516766.94045  24316231.763    24316240.447
  24635719.503    -7021392.17849  -4660456.76145  24635719.556    24635729.902
  20261959.627   -29310830.52349 -22137718.31148  20261959.357    20261965.981
  23097476.797   -15544611.58649 -10570916.49346  23097477.010    23097484.393
  23458066.261   -14606881.56849 -11362590.71345  23458066.909    23458074.663
  20876496.818   -25624994.14049 -19944149.76548  20876496.772    20876504.159
 04  5 21  2  5  0.0000000  0  6G 4G11G20G25G13G 1
  24310041.629    -8822204.88749  -6542111.55245  24310042.247    24310050.930
  24652648.024    -6932432.98949  -4591138.06345  24652648.146    24652658.487
  20262932.687   -29305717.06249 -22133733.80248  20262932.424    20262939.050
  23113588.772   -15459942.86249 -10504940.90146  23113589.015    23113596.321
  23443161.596   -14685205.75049 -11423622.45645  23443162.257    23443170.059
  20870552.323   -25656232.63649 -19968491.42848  20870552.297    20870559.639
 04  5 21  2  5 30.0000000  0  6G 4G11G20G25G13G 1
  24303950.715    -8854212.82549  -6567052.77245  24303951.295    24303960.148
  24669566.476    -6843526.40249  -4521860.36545  24669566.634    24669576.793
  20264012.148   -29300044.40349 -22129313.55948  20264011.877    20264018.529
  23129720.695   -15375169.27749 -10438883.61846  23129720.927    23129728.194
  23428269.837   -14763462.51149 -11484601.66745  23428270.396    23428278.273
  20864645.304   -25687274.18649 -19992679.63548  20864645.287    20864652.629
 04  5 21  2  6  0.0000000  0  6G 4G11G20G25G13G 1
  24297958.521    -8885702.71449  -6591590.33945  24297959.094    24297967.876
  24686474.358    -6754675.19049  -4452625.81945  24686474.549    24686484.754
  20265198.085   -29293812.30649 -22124457.38548  20265197.806    20265204.462
  23145872.195   -15290292.60749 -10372745.99946  23145872.476    23145879.710
  23413390.759   -14841651.89749 -11545528.38445  23413391.347    23413399.211
  20858775.804   -25718118.64849 -20016714.26748  20858775.770    20858783.118
 04  5 21  2  6 30.0000000  0  6G 4G11G20G25G13G 1
  24292065.299    -8916672.16549  -6615722.38345  24292065.853    24292074.319
  24703371.592    -6665880.03149  -4383434.92945  24703371.761    24703382.095
  20266490.771   -29287019.24849 -22119164.10148  20266490.521    20266497.147
  23162043.322   -15205313.08449 -10306528.24046  23162043.621    23162050.865
  23398524.884   -14919772.29549 -11606401.33845  23398525.438    23398533.236
  20852944.097   -25748764.33949 -20040594.01248  20852944.077    20852951.405
 04  5 21  2  7  0.0000000  0  6G 4G11G20G25G13G 1
  24286270.684    -8947121.80949  -6639449.32645  24286271.184    24286280.148
  24720257.283    -6577145.47349  -4314291.28945  24720257.481    24720267.944
  20267890.064   -29279665.95949 -22113434.28048  20267889.802    20267896.435
  23178233.416   -15120233.76649 -10240232.71446  23178233.683    23178240.994
  23383671.971   -14997824.44549 -11667221.10645  23383672.510    23383680.326
  20847150.065   -25779212.35549 -20064319.73348  20847150.038    20847157.345
 04  5 21  2  7 30.0000000  0  6G 4G11G20G25G13G 1
  24280575.362    -8977050.98049  -6662770.73745  24280575.847    24280584.737
  24737130.977    -6488473.63149  -4245196.49345  24737131.201    24737141.519
  20269396.136   -29271751.57949 -22107267.23748  20269395.859    20269402.502
  23194442.164   -15035056.15349 -10173860.59946  23194442.461    23194449.788
  23368832.190   -15075807.73749 -11727987.21445  23368832.764    23368840.483
  20841393.766   -25809461.84549 -20087890.75448  20841393.733    20841401.047
 04  5 21  2  8  0.0000000  0  5G 4G20G25G13G 1
  24274980.909    -9006450.75249  -6685679.63245  24274981.300    24274990.148
  20271010.472   -29263268.07949 -22100656.72548  20271010.192    20271016.860
  23210670.809   -14949774.11649 -10107407.10346  23210671.087    23210678.422
  23354007.174   -15153713.83049 -11788693.17345  23354007.726    23354015.356
  20835676.821   -25839504.47549 -20111300.58948  20835676.791    20835684.088
 04  5 21  2  8 30.0000000  0  5G 4G20G25G13G 1
  24269485.143    -9035331.04949  -6708183.73345  24269485.614    24269494.427
  20272731.315   -29254225.05449 -22093610.21748  20272731.050    20272737.690
  23226917.112   -14864399.62149 -10040881.57246  23226917.339    23226924.745
  23339195.010   -15231552.68349 -11849346.73545  23339195.462    23339202.959
  20829997.356   -25869350.24549 -20134557.02448  20829997.323    20830004.614
 04  5 21  2  9  0.0000000  0  5G 4G20G25G13G 1
  24264088.554    -9063690.34049  -6730281.87345  24264089.180    24264097.730
  20274558.771   -29244621.77849 -22086127.15748  20274558.505    20274565.145
  23243180.785   -14778933.22549  -9974284.43546  23243181.021    23243188.526
  23324395.574   -15309323.28749 -11909947.11745  23324396.057    23324403.632
  20824355.594   -25898997.91449 -20157659.09648  20824355.549    20824362.822
 04  5 21  2  9 30.0000000  0  5G 4G20G25G13G 1
  24258791.851    -9091524.36749  -6751970.69445  24258792.467    24258800.989
  20276493.617   -29234454.05249 -22078204.26548  20276493.346    20276500.001
  23259462.281   -14693373.06949  -9907614.22846  23259462.579    23259470.098
  23309609.929   -15387021.38849 -11970491.00445  23309610.433    23309618.027
  20818752.251   -25928443.53249 -20180603.72348  20818752.218    20818759.498
 04  5 21  2 10  0.0000000  0  5G 4G20G25G13G 1
  24253594.646    -9118835.97649  -6773252.46045  24253595.246    24253603.697
  20278535.284   -29223724.96749 -22069843.94648  20278535.022    20278541.668
  23275760.693   -14607724.23549  -9840874.90946  23275760.976    23275768.577
  23294837.645   -15464650.03449 -12030980.75845  23294838.169    23294845.646
  20813186.836   -25957689.87849 -20203393.07648  20813186.811    20813194.093
 04  5 21  2 10 30.0000000  0  5G 4G20G25G13G 1
  24248497.064    -9145623.70049  -6794125.98845  24248497.625    24248506.170
  20280684.044   -29212433.12849 -22061045.11948  20280683.785    20280690.430
  23292075.824   -14521987.59949  -9774067.18746  23292076.142    23292083.756
  23280078.887   -15542207.65749 -12091415.19445  23280079.367    23280086.877
  20807659.602   -25986735.59149 -20226026.08848  20807659.597    20807666.842
 04  5 21  2 11  0.0000000  0  5G 4G20G25G13G 1
  24243499.212    -9171886.63449  -6814590.59945  24243499.756    24243508.460
  20282939.976   -29200578.34949 -22051807.64248  20282939.713    20282946.355
  23308407.405   -14436164.47749  -9707192.07046  23308407.725    23308415.400
  23265333.626   -15619694.07649 -12151794.13645  23265334.124    23265341.652
  20802170.612   -26015580.42249 -20248502.57148  20802170.587    20802177.836
 04  5 21  2 11 30.0000000  0  5G 4G20G25G13G 1
  24238601.474    -9197624.56949  -6834646.12545  24238601.995    24238610.668
  20285302.991   -29188160.71449 -22042131.57548  20285302.727    20285309.376
  23324755.236   -14350256.40549  -9640250.76946  23324755.527    23324763.267
  23250601.936   -15697109.13449 -12212117.48545  23250602.473    23250609.944
  20796719.927   -26044223.85849 -20270822.11848  20796719.910    20796727.156
 04  5 21  2 12  0.0000000  0  5G 4G20G25G13G 1
  24233803.895    -9222836.51949  -6854291.78145  24233804.336    24233813.022
  20287773.283   -29175179.27049 -22032016.17748  20287773.007    20287779.668
  23341118.908   -14264264.93649  -9573244.47046  23341119.150    23341126.897
  23235884.066   -15774451.76149 -12272384.39745  23235884.632    23235892.031
  20791307.725   -26072665.08949 -20292984.11048  20791307.707    20791314.970
 04  5 21  2 12 30.0000000  0  5G 4G20G25G13G 1
  24229106.314    -9247522.00249  -6873527.21045  24229106.729    24229115.597
  20290350.922   -29161633.73849 -22021461.22248  20290350.652    20290357.326
  23357498.217   -14178191.54749  -9506174.33846  23357498.430    23357506.230
  23221180.144   -15851721.47349 -12332594.48145  23221180.681    23221187.982
  20785934.140   -26100903.36149 -20314987.94348  20785934.127    20785941.407
 04  5 21  2 13  0.0000000  0  5G 4G20G25G13G 1
  24224509.352    -9271679.32449  -6892351.09545  24224509.920    24224518.640
  20293036.157   -29147522.79749 -22010465.69748  20293035.884    20293042.560
  23373893.023   -14092036.37249  -9439040.47746  23373893.320    23373901.041
  23206490.301   -15928916.70849 -12392746.53745  23206490.760    23206498.151
  20780599.491   -26128937.11449 -20336832.42148  20780599.470    20780606.744
 04  5 21  2 13 30.0000000  0  5G 4G20G25G13G 1
  24220012.889    -9295308.73249  -6910763.60445  24220013.434    24220022.116
  20295828.877   -29132847.00349 -21999030.02448  20295828.610    20295835.255
  23390302.936   -14005801.80149  -9371844.76046  23390303.260    23390310.984
  23191814.540   -16006037.49649 -12452840.60746  23191815.111    23191822.542
  20775303.719   -26156766.58849 -20358517.71548  20775303.687    20775310.954
 04  5 21  2 14  0.0000000  0  5G 4G20G25G13G 1
  24215616.830    -9318410.05349  -6928764.62245  24215617.337    24215626.069
  20298729.023   -29117606.39649 -21987154.24648  20298728.772    20298735.438
  23406727.571   -13919489.84449  -9304588.73546  23406727.879    23406735.654
  23177153.072   -16083083.77649 -12512876.60546  23177153.621    23177161.029
  20770046.831   -26184391.69549 -20380043.76648  20770046.796    20770054.056
 04  5 21  2 14 30.0000000  0  5G 4G20G25G13G 1
  24211321.282    -9340982.61949  -6946353.63945  24211321.901    24211330.599
  20301736.795   -29101800.67549 -21974838.11248  20301736.530    20301743.195
  23423166.774   -13833101.53649  -9237273.20346  23423167.119    23423174.792
  23162505.923   -16160054.92149 -12572854.06546  23162506.520    23162513.907
  20764829.003   -26211811.53049 -20401409.85948  20764828.968    20764836.214
 04  5 21  2 15  0.0000000  0  5G 4G20G25G13G 1
  24207126.553    -9363025.94849  -6963530.24545  24207127.155    24207135.942
  20304852.080   -29085429.73049 -21962081.54748  20304851.824    20304858.491
  23439620.175   -13746638.69049  -9169899.60646  23439620.548    23439628.169
  23147873.206   -16236950.36749 -12632772.53846  23147873.780    23147881.168
  20759650.286   -26239025.74049 -20422615.72648  20759650.273    20759657.509
 04  5 21  2 15 30.0000000  0  5G 4G20G25G13G 1
  24203032.730    -9384539.39249  -6980293.95245  24203033.269    24203042.011
  20308075.014   -29068493.19949 -21948884.26648  20308074.772    20308081.401
  23456087.578   -13660102.36449  -9102468.74846  23456087.908    23456095.549
  23133255.046   -16313769.20949 -12692631.31446  23133255.580    23133263.006
  20754510.924   -26266033.33649 -20443660.59448  20754510.881    20754518.153
 04  5 21  2 16  0.0000000  0  5G 4G20G25G13G 1
  24199039.572    -9405523.36849  -6996645.11145  24199040.113    24199048.824
  20311405.452   -29050991.63749 -21935246.70048  20311405.197    20311411.839
  23472568.575   -13573494.76149  -9034982.34946  23472568.908    23472576.513
  23118651.419   -16390511.65749 -12752430.57146  23118651.911    23118659.311
  20749410.754   -26292834.66449 -20464544.73448  20749410.712    20749418.010
 04  5 21  2 16 30.0000000  0  5G 4G20G25G13G 1
  24195147.177    -9425977.72849  -7012583.56745  24195147.778    24195156.488
  20314843.446   -29032924.88649 -21921168.72448  20314843.197    20314849.855
  23489062.909   -13486817.26449  -8967441.48946  23489063.169    23489070.754
  23104062.338   -16467177.35349 -12812170.02046  23104062.831    23104070.235
  20744349.952   -26319429.26149 -20485267.78748  20744349.935    20744357.217
 04  5 21  2 17  0.0000000  0  5G 4G20G25G13G 1
  24191355.998    -9445901.25949  -7028108.38845  24191356.572    24191365.192
  20318389.104   -29014292.35449 -21906649.87748  20318388.862    20318395.529
  23505570.309   -13400071.11749  -8899847.13146  23505570.492    23505578.010
  23089488.029   -16543765.32749 -12871848.89646  23089488.520    23089496.002
  20739328.748   -26345815.91449 -20505828.79948  20739328.731    20739335.986
 04  5 21  2 17 30.0000000  0  5G 4G20G25G13G 1
  24187665.881    -9465293.54049  -7043219.25045  24187666.318    24187675.008
  20322042.480   -28995093.90649 -21891690.06548  20322042.223    20322048.891
  23522090.435   -13313257.37349  -8832200.10346  23522090.625    23522098.130
  23074928.750   -16620274.54549 -12931466.41046  23074929.249    23074936.779
  20734347.258   -26371993.87849 -20526227.20348  20734347.250    20734354.468
 04  5 21  2 18  0.0000000  0  5G 4G20G25G13G 1
  24184076.611    -9484154.65649  -7057916.22745  24184077.082    24184085.700
  20325803.453   -28975329.89549 -21876289.55548  20325803.199    20325809.870
  23538623.096   -13226377.75849  -8764501.75946  23538623.320    23538630.863
  23060384.474   -16696704.94549 -12991022.51746  23060384.978    23060392.477
  20729405.513   -26397962.87449 -20546462.77548  20729405.501    20729412.710
 04  5 21  2 18 30.0000000  0  5G 4G20G25G13G 1
  24180588.658    -9502484.66349  -7072199.34745  24180589.136    24180597.711
  20329671.995   -28955000.58849 -21860448.55348  20329671.741    20329678.390
  23555167.955   -13139434.29149  -8696753.65446  23555168.177    23555175.736
  23045855.227   -16773056.45049 -13050517.15846  23045855.687    23045863.202
  20724503.500   -26423722.93449 -20566535.53848  20724503.485    20724510.710
 04  5 21  2 19  0.0000000  0  5G 4G20G25G13G 1
  24177201.545    -9520282.88349  -7086068.07945  24177202.012    24177210.888
  20333648.192   -28934105.52749 -21844166.69948  20333647.919    20333654.578
  23571724.735   -13052427.76149  -8628956.40146  23571724.954    23571732.545
  23031341.266   -16849328.10549 -13109949.55146  23031341.674    23031349.154
  20719641.481   -26449272.92349 -20586444.60948  20719641.481    20719648.686
 04  5 21  2 19 30.0000000  0  5G 4G20G25G13G 1
  24173915.812    -9537548.87649  -7099522.11045  24173916.316    24173925.152
  20337732.101   -28912644.37849 -21827443.74148  20337731.851    20337738.527
  23588293.301   -12965359.29949  -8561110.88846  23588293.534    23588301.140
  23016842.599   -16925518.63649 -13169318.74946  23016843.072    23016850.556
  20714819.689   -26474611.85049 -20606189.22148  20714819.669    20714826.852
 04  5 21  2 20  0.0000000  0  5G 4G20G25G13G 1
  24170731.472    -9554283.19149  -7112561.84445  24170731.920    24170740.581
  20341923.548   -28890618.27349 -21810280.55948  20341923.309    20341929.993
  23604873.200   -12878231.16349  -8493218.88946  23604873.396    23604881.116
  23002359.231   -17001628.70449 -13228625.24546  23002359.708    23002367.317
  20710037.922   -26499740.14949 -20625769.70748  20710037.909    20710045.091
 04  5 21  2 20 30.0000000  0  5G 4G20G25G13G 1
  24167647.997    -9570486.14249  -7125187.49445  24167648.535    24167657.525
  20346222.413   -28868027.76449 -21792677.58248  20346222.163    20346228.855
  23621464.065   -12791045.28849  -8425281.89646  23621464.311    23621472.088
  22987891.223   -17077658.29049 -13287869.01846  22987891.714    22987899.303
  20705296.246   -26524657.84549 -20645186.08748  20705296.242    20705303.396
 04  5 21  2 21  0.0000000  0  6G 4G20G27G25G13G 1
  24164664.818    -9586162.72749  -7137403.01545  24164665.459    24164674.414
  20350627.604   -28844878.26249 -21774639.02348  20350627.354    20350634.040
  24833783.160    -6097440.57749  -4727044.63445  24833783.339    24833795.651
  23638064.643   -12703808.46649  -8357305.20046  23638064.909    23638072.769
  22973437.703   -17153611.95449 -13347053.62446  22973438.170    22973445.746
  20700593.795   -26549369.57249 -20664441.96948  20700593.757    20700600.909
 04  5 21  2 21 30.0000000  0  6G 4G20G27G25G13G 1
  24161782.464    -9601311.18949  -7149207.00345  24161782.986    24161791.571
  20355139.542   -28821168.07849 -21756163.57248  20355139.290    20355145.963
  24817509.403    -6182960.28949  -4793683.21745  24817509.586    24817521.514
  23654675.033   -12616520.10249  -8289288.34946  23654675.359    23654683.252
  22958998.966   -17229487.37749 -13406177.26846  22958999.485    22959007.020
  20695930.942   -26573872.89149 -20683535.45848  20695930.925    20695938.075
 04  5 21  2 22  0.0000000  0  6G 4G20G27G25G13G 1
  24159002.043    -9615922.93649  -7160592.75045  24159002.431    24159010.939
  20359759.684   -28796889.04649 -21737244.86248  20359759.422    20359766.131
  24801261.704    -6268343.00249  -4860215.02045  24801261.753    24801273.555
  23671296.562   -12529173.54049  -8221226.13846  23671296.892    23671304.826
  22944577.031   -17305275.12349 -13465232.58346  22944577.569    22944584.966
  20691309.478   -26598158.88349 -20702459.60548  20691309.455    20691316.589
 04  5 21  2 22 30.0000000  0  6G 4G20G27G25G13G 1
  24156322.930    -9629999.82849  -7171561.73245  24156323.475    24156332.223
  20364487.739   -28772043.01649 -21717884.33648  20364487.479    20364494.204
  24785039.754    -6353589.55449  -4926640.74045  24785039.895    24785051.423
  23687928.694   -12441771.54249  -8153120.74046  23687928.958    23687936.995
  22930171.430   -17380976.91049 -13524220.91546  22930171.942    22930179.299
  20686729.151   -26622228.65649 -20721215.27048  20686729.116    20686736.234
 04  5 21  2 23  0.0000000  0  6G 4G20G27G25G13G 1
  24153745.876    -9643542.35049  -7182114.32845  24153746.460    24153755.267
  20369323.498   -28746631.17749 -21698082.92048  20369323.231    20369329.925
  24768843.717    -6438699.93949  -4992960.34045  24768843.737    24768855.305
  23704570.779   -12354316.65749  -8084974.12546  23704571.037    23704579.129
  22915782.127   -17456592.98749 -13583142.47446  22915782.644    22915789.982
  20682189.921   -26646082.42249 -20739802.61848  20682189.898    20682197.019
 04  5 21  2 23 30.0000000  0  6G 4G20G27G25G13G 1
  24151270.483    -9656551.64549  -7192251.43245  24151270.963    24151279.728
  20374266.746   -28720654.49049 -21677841.36848  20374266.479    20374273.154
  24752673.415    -6523674.50449  -5059174.10345  24752673.321    24752685.034
  23721222.542   -12266810.96049  -8016787.93246  23721222.839    23721231.010
  22901409.058   -17532123.54049 -13641997.38346  22901409.594    22901416.971
  20677691.729   -26669720.44649 -20758221.85948  20677691.702    20677698.837
 04  5 21  2 24  0.0000000  0  6G 4G20G27G25G13G 1
  24148896.194    -9669028.48349  -7201973.61645  24148896.677    24148905.546
  20379317.266   -28694113.88649 -21657160.39148  20379316.992    20379323.659
  24736528.980    -6608513.09849  -5125281.89745  24736528.938    24736540.443
  23737883.618   -12179256.58449  -7948563.80846  23737883.904    23737892.151
  22887052.275   -17607568.47149 -13700785.58846  22887052.823    22887060.210
  20673234.591   -26693142.86049 -20776473.08648  20673234.568    20673241.719
 04  5 21  2 24 30.0000000  0  6G 4G20G27G25G13G 1
  24146623.353    -9680972.39549  -7211280.55645  24146623.831    24146632.731
  20384475.000   -28667009.68949 -21636040.25248  20384474.732    20384481.414
  24720410.624    -6693214.98249  -5191283.18145  24720410.497    24720422.068
  23754553.694   -12091654.90949  -7880302.81846  23754554.004    23754562.295
  22872711.937   -17682927.26049 -13759506.65146  22872712.461    22872719.895
  20668818.584   -26716348.99449 -20794555.78348  20668818.585    20668825.739
 04  5 21  2 25  0.0000000  0  6G 4G20G27G25G13G 1
  24144451.632    -9692383.08849  -7220171.96845  24144452.224    24144461.186
  20389740.081   -28639341.41549 -21614480.58348  20389739.807    20389746.506
  24704318.465    -6777778.62249  -5257176.75345  24704318.357    24704329.847
  23771232.669   -12004006.50249  -7812005.41346  23771233.018    23771241.251
  22858388.266   -17758198.48349 -13818159.48746  22858388.767    22858396.154
  20664444.000   -26739337.58449 -20812468.97348  20664443.973    20664451.154
 04  5 21  2 25 30.0000000  0  6G 4G20G27G25G13G 1
  24142381.407    -9703262.41949  -7228649.37945  24142382.086    24142390.778
  20395112.120   -28611111.27449 -21592483.08748  20395111.848    20395118.564
  24688252.377    -6862205.06249  -5322963.41545  24688252.239    24688263.750
  23787920.068   -11916314.27549  -7743673.84646  23787920.435    23787928.574
  22844080.998   -17833383.53849 -13876745.18846  22844081.501    22844088.821
  20660110.585   -26762109.79249 -20830213.54848  20660110.563    20660117.751
 04  5 21  2 26  0.0000000  0  6G 4G20G27G25G13G 1
  24140412.743    -9713609.23949  -7236711.83845  24140413.230    24140421.896
  20400591.152   -28582318.77749 -21570047.39248  20400590.885    20400597.618
  24672212.610    -6946492.76249  -5388641.97445  24672212.802    24672224.039
  23804615.627   -11828578.87449  -7675308.65146  23804615.948    23804624.046
  22829790.318   -17908481.23549 -13935262.80246  22829790.835    22829798.132
  20655818.620   -26784664.13849 -20847788.36548  20655818.594    20655825.805
 04  5 21  2 26 30.0000000  0  6G 4G20G27G25G13G 1
  24138545.099    -9723423.69249  -7244359.46845  24138545.643    24138554.323
  20406177.170   -28552964.10149 -21547173.63748  20406176.898    20406183.634
  24656199.717    -7030640.84849  -5454211.74445  24656199.858    24656211.093
  23821319.093   -11740801.64449  -7606910.87546  23821319.443    23821327.624
  22815516.536   -17983490.00249 -13993711.12246  22815517.057    22815524.299
  20651568.267   -26806999.86149 -20865192.82348  20651568.227    20651575.438
 04  5 21  2 27  0.0000000  0  6G 4G20G27G25G13G 1
  24136778.427    -9732706.98749  -7251593.19645  24136778.946    24136787.794
  20411869.950   -28523048.47349 -21523862.77748  20411869.687    20411876.409
  24640213.433    -7114649.57949  -5519672.90945  24640213.415    24640224.722
  23838030.104   -11652984.87049  -7538482.27145  23838030.416    23838038.660
  22801259.688   -18058410.43449 -14052090.60946  22801260.166    22801267.390
  20647359.459   -26829117.29749 -20882427.18748  20647359.430    20647366.646
 04  5 21  2 27 30.0000000  0  6G 4G20G27G25G13G 1
  24135113.016    -9741457.67849  -7258411.91145  24135113.568    24135122.505
  20417669.629   -28492571.09949 -21500114.20048  20417669.332    20417676.083
  24624253.985    -7198516.88349  -5585023.88945  24624254.034    24624265.309
  23854748.658   -11565128.19349  -7470022.58245  23854749.021    23854757.242
  22787019.933   -18133240.76549 -14110399.89546  22787020.384    22787027.560
  20643192.590   -26851014.40549 -20899489.86748  20643192.555    20643199.756
 04  5 21  2 28  0.0000000  0  6G 4G20G27G25G13G 1
  24133549.103    -9749677.33549  -7264816.84145  24133549.680    24133558.186
  20423575.788   -28461533.72549 -21475929.25048  20423575.533    20423582.304
  24608321.266    -7282243.34649  -5650265.13945  24608321.284    24608332.593
  23871474.337   -11477234.36749  -7401533.93245  23871474.722    23871482.898
  22772797.303   -18207981.45949 -14168639.32946  22772797.720    22772804.777
  20639067.467   -26872691.94149 -20916381.44948  20639067.441    20639074.644
 04  5 21  2 28 30.0000000  0  6G 4G20G27G25G13G 1
  24132086.463    -9757365.53149  -7270807.64145  24132086.964    24132094.950
  20429588.631   -28429936.03149 -21451307.68848  20429588.370    20429595.169
  24592415.583    -7365827.52549  -5715395.53045  24592415.615    24592426.903
  23888207.016   -11389304.05649  -7333016.86145  23888207.378    23888215.540
  22758591.897   -18282631.31249 -14226807.98346  22758592.295    22758599.323
  20634984.428   -26894148.54149 -20933100.87748  20634984.408    20634991.617
 04  5 21  2 29  0.0000000  0  6G 4G20G27G25G13G 1
  24130724.764    -9764523.05849  -7276384.95145  24130725.166    24130732.711
  20435707.870   -28397779.21749 -21426250.45248  20435707.624    20435714.433
  24576536.930    -7449269.41049  -5780415.05145  24576537.048    24576548.180
  23904946.280   -11301339.28149  -7264472.92345  23904946.630    23904954.680
  22744403.779   -18357190.22449 -14284905.77146  22744404.186    22744411.250
  20630943.470   -26915384.03549 -20949648.01448  20630943.435    20630950.612
 04  5 21  2 29 30.0000000  0  6G 4G20G27G25G13G 1
  24129463.655    -9771149.73949  -7281548.60545  24129463.940    24129471.803
  20441933.495   -28365063.36849 -21400757.60048  20441933.234    20441940.066
  24560685.494    -7532567.99549  -5845322.88845  24560685.692    24560696.804
  23921692.044   -11213340.37549  -7195902.39545  23921692.346    23921700.412
  22730233.128   -18431656.97649 -14342931.75046  22730233.537    22730240.600
  20626944.707   -26936397.52049 -20966022.14948  20626944.683    20626951.858
 04  5 21  2 30  0.0000000  0  6G 4G20G27G25G13G 1
  24128303.345    -9777245.05049  -7286298.19445  24128303.743    24128312.091
  20448265.609   -28331788.20049 -21374828.92148  20448265.330    20448272.148
  24544861.705    -7615721.79049  -5910117.92545  24544861.857    24544872.995
  23938444.053   -11125308.18149  -7127305.93245  23938444.310    23938452.373
  22716080.266   -18506030.34349 -14400884.96646  22716080.685    22716087.759
  20622988.486   -26957187.58449 -20982222.19448  20622988.462    20622995.633
 04  5 21  2 30 30.0000000  0  6G 4G20G27G25G13G 1
  24127243.893    -9782810.22849  -7290634.68745  24127244.377    24127253.309
  20454703.821   -28297955.21849 -21348465.58748  20454703.543    20454710.352
  24529065.419    -7698731.06549  -5974800.35045  24529065.432    24529076.697
  23955201.944   -11037245.07049  -7058685.38745  23955202.208    23955210.348
  22701945.142   -18580310.51149 -14458765.56246  22701945.580    22701952.664
  20619074.725   -26977754.47149 -20998248.33648  20619074.702    20619081.889
 04  5 21  2 31  0.0000000  0  6G 4G20G27G25G13G 1
  24126285.403    -9787845.48049  -7294558.24845  24126286.070    24126295.510
  20461248.139   -28263564.75249 -21321667.83848  20461247.853    20461254.666
  24513296.851    -7781594.82649  -6039369.40745  24513296.918    24513308.092
  23971965.444   -10949152.03649  -6990041.50645  23971965.793    23971973.954
  22687827.978   -18654496.41349 -14516572.70846  22687828.423    22687835.433
  20615203.579   -26998097.36749 -21014099.93448  20615203.562    20615210.754
 04  5 21  2 31 30.0000000  0  6G 4G20G27G25G13G 1
  24125428.052    -9792350.76749  -7298068.87145  24125428.663    24125438.381
  20467898.461   -28228617.06249 -21294435.90248  20467898.189    20467905.002
  24497556.203    -7864312.05449  -6103824.28845  24497556.305    24497567.398
  23988734.643   -10861030.00849  -6921375.05445  23988734.864    23988743.185
  22673728.846   -18728587.26749 -14574305.78346  22673729.314    22673736.306
  20611375.265   -27018215.27649 -21029776.21848  20611375.242    20611382.441
 04  5 21  2 32  0.0000000  0  6G 4G20G27G25G13G 1
  24124671.520    -9796327.98449  -7301168.00045  24124672.037    24124681.614
  20474654.359   -28193114.70249 -21266771.74748  20474654.072    20474660.893
  24481843.087    -7946884.09249  -6168166.02645  24481843.093    24481854.387
  24005508.784   -10772881.80349  -6852688.17245  24005509.001    24005517.231
  22659647.679   -18802584.07949 -14631965.59146  22659648.182    22659655.126
  20607589.533   -27038109.31749 -21045278.06048  20607589.523    20607596.733
 04  5 21  2 32 30.0000000  0  6G 4G20G27G25G13G 1
  24124015.707    -9799775.89849  -7303854.68945  24124016.121    24124025.426
  20481516.051   -28157056.27149 -21238674.28948  20481515.782    20481522.626
  24466158.110    -8029308.31549  -6232392.57645  24466158.162    24466169.469
  24022288.074   -10684706.67449  -6783980.33945  24022288.206    24022296.434
  22645584.991   -18876484.26249 -14689550.10446  22645585.468    22645592.354
  20603846.915   -27057776.94349 -21060603.47048  20603846.884    20603854.109
 04  5 21  2 33  0.0000000  0  6G 4G20G27G25G13G 1
  24123460.198    -9802695.70549  -7306129.86545  24123460.546    24123469.638
  20488483.270   -28120443.30349 -21210144.73248  20488482.998    20488489.860
  24450501.205    -8111584.98049  -6296504.13345  24450501.260    24450512.546
  24039072.079   -10596506.96249  -6715253.31945  24039072.117    24039080.257
  22631540.560   -18950288.04349 -14747059.51146  22631541.060    22631547.934
  20600147.292   -27077218.42049 -21075752.66948  20600147.285    20600154.503
 04  5 21  2 33 30.0000000  0  6G 4G20G27G25G13G 1
  24123004.756    -9805088.29149  -7307994.22145  24123005.251    24123014.238
  20495555.810   -28083276.81849 -21181183.85748  20495555.552    20495562.410
  24434872.439    -8193713.78849  -6360500.50845  24434872.620    24434883.829
  24055860.305   -10508284.24449  -6646508.37245  24055860.434    24055868.514
  22617514.481   -19023995.12349 -14804493.55546  22617515.010    22617521.864
  20596490.775   -27096433.36849 -21090725.34748  20596490.766    20596497.995
 04  5 21  2 34  0.0000000  0  6G 4G20G27G25G13G 1
  24122649.971    -9806952.28049  -7309446.67845  24122650.496    24122659.432
  20502733.913   -28045555.94949 -21151790.99648  20502733.643    20502740.475
  24419272.306    -8275692.27449  -6424379.73445  24419272.600    24419283.639
  24072652.944   -10420038.07049  -6577745.14745  24072653.060    24072661.123
  22603507.414   -19097602.74349 -14861850.10346  22603507.957    22603514.784
  20592877.816   -27115419.48949 -21105519.71748  20592877.817    20592885.050
 04  5 21  2 34 30.0000000  0  6G 4G20G27G25G13G 1
  24122395.811    -9808288.94549  -7310488.23745  24122396.273    24122405.150
  20510017.192   -28007282.09449 -21121967.24648  20510016.921    20510023.762
  24403700.845    -8357520.95149  -6488142.22245  24403701.080    24403712.147
  24089449.753   -10331770.19349  -6508965.02845  24089449.870    24089457.992
  22589519.223   -19171111.31049 -14919129.46946  22589519.751    22589526.543
  20589308.401   -27134176.81949 -21120135.81348  20589308.408    20589315.605
 04  5 21  2 35  0.0000000  0  6G 4G20G27G25G13G 1
  24122241.424    -9809100.63449  -7311120.72345  24122241.859    24122250.857
  20517405.219   -27968457.84749 -21091714.60748  20517404.956    20517411.805
  24388157.663    -8439200.73949  -6551788.70045  24388157.840    24388169.016
  24106250.080   -10243483.78349  -6440170.47245  24106250.360    24106258.458
  22575549.665   -19244521.78649 -14976332.39546  22575550.182    22575556.979
  20585782.309   -27152706.57449 -21134574.57148  20585782.309    20585789.497
 04  5 21  2 35 30.0000000  0  6G 4G20G27G25G13G 1
  24122187.191    -9809385.23249  -7311342.49245  24122187.697    24122196.665
  20524898.351   -27929081.24349 -21061031.56548  20524898.089    20524904.949
  24372643.364    -8520728.53149  -6615316.74645  24372643.550    24372654.764
  24123054.408   -10155177.34749  -6371360.29145  24123054.657    24123062.677
  22561599.339   -19317830.68649 -15033456.17446  22561599.919    22561606.727
  20582300.200   -27171005.41549 -21148833.40748  20582300.200    20582307.346
 04  5 21  2 36  0.0000000  0  6G 4G20G27G25G13G 1
  24122232.917    -9809145.66449  -7311155.82145  24122233.386    24122242.249
  20532495.933   -27889155.82449 -21029920.87148  20532495.679    20532502.521
  24357157.669    -8602106.18349  -6678727.79745  24357157.801    24357169.017
  24139861.670   -10066854.39449  -6302537.27145  24139861.971    24139870.047
  22547668.133   -19391039.73749 -15090502.14246  22547668.674    22547675.416
  20578861.670   -27189075.00049 -21162913.59548  20578861.661    20578868.814
 04  5 21  2 36 30.0000000  0  6G 4G20G27G25G13G 1
  24122378.523    -9808380.67749  -7310559.72645  24122379.044    24122387.864
  20540198.202   -27848680.10949 -20998381.37748  20540197.947    20540204.812
  24341700.937    -8683331.11049  -6742019.83145  24341701.032    24341712.323
  24156672.284    -9978514.35549  -6233700.92245  24156672.593    24156680.573
  22533756.311   -19464146.38149 -15147468.31246  22533756.825    22533763.611
  20575467.236   -27206912.66549 -21176813.06948  20575467.230    20575474.406
 04  5 21  2 37  0.0000000  0  6G 4G20G27G25G13G 1
  24122623.729    -9807091.62849  -7309555.28345  24122624.295    24122633.218
  20548004.833   -27807656.05649 -20966414.60648  20548004.582    20548011.459
  24326273.402    -8764403.54349  -6805193.04545  24326273.382    24326284.755
  24173485.691    -9890159.14949  -6164852.76745  24173486.053    24173494.034
  22519863.997   -19537150.61249 -15204354.68946  22519864.552    22519871.351
  20572116.938   -27224518.53849 -21190531.93348  20572116.940    20572124.133
 04  5 21  2 37 30.0000000  0  6G 4G20G27G25G13G 1
  24122968.647    -9805279.78549  -7308143.46745  24122969.156    24122977.885
  20555915.554   -27766085.06049 -20934021.64548  20555915.306    20555922.191
  24310874.810    -8845323.49649  -6868247.43845  24310874.682    24310886.080
  24190301.709    -9801790.63549  -6095994.22045  24190301.973    24190310.039
  22505991.282   -19610052.33249 -15261161.17346  22505991.776    22505998.602
  20568810.726   -27241892.72049 -21204070.25148  20568810.719    20568817.940
 04  5 21  2 38  0.0000000  0  6G 4G20G27G25G13G 1
  24123413.111    -9802944.12349  -7306323.48045  24123413.589    24123422.229
  20563930.473   -27723966.48049 -20901201.99348  20563930.217    20563937.106
  24295505.593    -8926089.01649  -6931181.50145  24295505.591    24295516.787
  24207120.201    -9713408.48349  -6027125.07145  24207120.519    24207128.602
  22492138.558   -19682849.07749 -15317885.85946  22492139.016    22492145.820
  20565549.038   -27259032.87949 -21217426.21148  20565549.027    20565556.250
 04  5 21  2 38 30.0000000  0  6G 4G20G27G25G13G 1
  24123956.811    -9800086.15849  -7304096.49945  24123957.322    24123966.076
  20572049.299   -27681301.97149 -20867956.95048  20572049.027    20572055.915
  24280165.842    -9006700.08149  -6993995.20045  24280165.870    24280176.808
  24223941.050    -9625014.12749  -5958246.41545  24223941.374    24223949.509
  22478305.655   -19755541.05949 -15374528.91546  22478306.182    22478312.957
  20562331.888   -27275939.11149 -21230599.89648  20562331.864    20562339.085
 04  5 21  2 39  0.0000000  0  6G 4G20G27G25G13G 1
  24124599.918    -9796706.93549  -7301463.34945  24124600.476    24124609.133
  20580271.696   -27638092.91749 -20834287.58048  20580271.425    20580278.327
  24264855.470    -9087156.81549  -7056688.64645  24264855.521    24264866.120
  24240763.749    -9536609.56449  -5889359.77045  24240764.178    24240772.352
  22464492.822   -19828127.92849 -15431090.05846  22464493.325    22464500.076
  20559159.312   -27292611.13949 -21243591.08148  20559159.290    20559166.536
 04  5 21  2 39 30.0000000  0  6G 4G20G27G25G13G 1
  24125342.118    -9792807.60549  -7298424.92245  24125342.603    24125351.085
  20588597.478   -27594340.81049 -20800195.05748  20588597.221    20588604.118
  24249574.398    -9167458.86849  -7119261.56645  24249574.469    24249585.052
  24257588.225    -9448196.20649  -5820466.31545  24257588.710    24257596.925
  22450700.026   -19900609.19349 -15487568.91146  22450700.524    22450707.274
  20556031.406   -27309048.46049 -21256399.37948  20556031.376    20556038.587
 04  5 21  2 40  0.0000000  0  6G 4G20G27G25G13G 1
  24126183.385    -9788387.23549  -7294980.49845  24126183.830    24126192.286
  20597026.739   -27550044.62049 -20765678.56648  20597026.475    20597033.412
  24234323.079    -9247604.22349  -7181712.36645  24234323.187    24234333.739
  24274414.661    -9359773.66349  -5751565.67545  24274415.092    24274423.158
  22436927.744   -19972982.58549 -15543963.71846  22436928.278    22436935.011
  20552948.594   -27325248.82049 -21269023.02848  20552948.570    20552955.742
 04  5 21  2 40 30.0000000  0  6G 4G20G27G25G13G 1
  24127123.181    -9783448.20149  -7291131.90745  24127123.730    24127132.072
  20605559.021   -27505207.25249 -20730740.38648  20605558.768    20605565.711
  24219101.405    -9327593.91849  -7244041.87345  24219101.515    24219112.156
  24291242.198    -9271344.68449  -5682660.04445  24291242.592    24291250.626
  22423175.971   -20045248.48749 -15600274.76446  22423176.488    22423183.208
  20549910.661   -27341213.30249 -21281462.87948  20549910.623    20549917.800
 04  5 21  2 41  0.0000000  0  6G 4G20G27G25G13G 1
  24128161.958    -9777990.05549  -7286878.80545  24128162.501    24128170.675
  20614194.402   -27459828.23149 -20695380.13648  20614194.150    20614201.090
  24203909.602    -9407426.26549  -7306248.77345  24203909.673    24203920.462
  24308070.996    -9182908.80349  -5613749.01245  24308071.432    24308079.424
  22409444.925   -20117405.22749 -15656500.73946  22409445.474    22409452.160
  20546917.955   -27356939.93149 -21293717.38748  20546917.935    20546925.108
 04  5 21  2 41 30.0000000  0  6G 4G20G27G25G13G 1
  24129299.216    -9772014.29049  -7282222.37945  24129299.683    24129307.755
  20622932.496   -27413909.26549 -20659599.14948  20622932.251    20622939.199
  24188747.869    -9487101.09449  -7368332.92945  24188747.988    24188758.818
  24324900.822    -9094467.79149  -5544834.01545  24324901.181    24324909.097
  22395734.689   -20189452.61249 -15712641.51146  22395735.235    22395741.950
  20543970.559   -27372428.54349 -21305786.42848  20543970.535    20543977.707
 04  5 21  2 42  0.0000000  0  6G 4G20G27G25G13G 1
  24130534.701    -9765521.99649  -7277163.46045  24130535.108    24130543.135
  20631773.042   -27367452.05149 -20623398.75448  20631772.791    20631779.730
  24173616.192    -9566618.49249  -7430294.41545  24173616.304    24173627.004
  24341731.303    -9006023.40549  -5475916.35745  24341731.719    24341739.624
  22382045.392   -20261390.06849 -15768696.63046  22382045.972    22382052.652
  20541068.482   -27387678.87949 -21317669.79948  20541068.464    20541075.665
 04  5 21  2 42 30.0000000  0  6G 4G20G27G25G13G 1
  24131868.331    -9758513.25449  -7271702.10445  24131868.785    24131876.766
  20640715.914   -27320456.93549 -20586779.20848  20640715.670    20640722.615
  24158514.675    -9645977.43349  -7492132.43645  24158514.778    24158525.259
  24358562.390    -8917576.02649  -5406996.39745  24358562.797    24358570.699
  22368377.234   -20333216.58349 -15824665.30046  22368377.764    22368384.465
  20538212.019   -27402689.58149 -21329366.44248  20538212.012    20538219.229
 04  5 21  2 43  0.0000000  0  6G 4G20G27G25G13G 1
  24133299.792    -9750990.02649  -7265839.85645  24133300.314    24133308.194
  20649760.845   -27272925.70249 -20549741.90748  20649760.588    20649767.580
  24143443.319    -9725177.90749  -7553846.97645  24143443.442    24143453.733
  24375393.774    -8829127.19649  -5338075.26845  24375394.176    24375401.899
  22354730.340   -20404931.34749 -15880546.89546  22354730.902    22354737.536
  20535401.175   -27417460.56549 -21340876.29048  20535401.168    20535408.388
 04  5 21  2 43 30.0000000  0  6G 4G20G27G25G13G 1
  24134829.356    -9742952.18149  -7259576.60445  24134829.885    24134837.748
  20658907.732   -27224858.56549 -20512287.02448  20658907.476    20658914.508
  24128402.365    -9804218.79949  -7615437.15345  24128402.424    24128412.601
  24392225.161    -8740677.33349  -5269153.37245  24392225.584    24392233.560
  22341104.921   -20476533.13149 -15936340.44946  22341105.505    22341112.068
  20532636.249   -27431990.28849 -21352198.14548  20532636.252    20532643.458
 04  5 21  2 44  0.0000000  0  6G 4G20G27G25G13G 1
  24136456.387    -9734400.81649  -7252913.23445  24136456.989    24136464.976
  20668156.277   -27176257.02249 -20474415.72148  20668156.043    20668163.071
  24113391.703    -9883099.78549  -7676902.74445  24113391.816    24113401.896
  24409056.662    -8652227.75549  -5200231.66745  24409057.081    24409065.088
  22327501.110   -20548021.43249 -15992045.57446  22327501.732    22327508.276
  20529917.325   -27446278.27649 -21363331.63248  20529917.334    20529924.538
 04  5 21  2 44 30.0000000  0  6G 4G20G27G25G13G 1
  24138180.895    -9725337.32849  -7245850.78845  24138181.495    24138189.720
  20677506.268   -27127122.58249 -20436129.17648  20677506.020    20677513.051
  24098411.578    -9961820.46449  -7738243.42645  24098411.677    24098421.721
  24425887.785    -8563779.89349  -5131311.28845  24425888.100    24425896.107
  22313919.126   -20619395.34049 -16047661.57746  22313919.715    22313926.233
  20527244.514   -27460324.03449 -21374276.37148  20527244.524    20527251.716
 04  5 21  2 45  0.0000000  0  6G 4G20G27G25G13G 1
  24140003.015    -9715761.43249  -7238389.07345  24140003.684    24140011.995
  20686957.631   -27077455.35549 -20397427.46848  20686957.407    20686964.415
  24083462.104   -10040379.50849  -7799458.17745  24083462.237    24083472.279
  24442718.396    -8475333.72449  -5062392.24845  24442718.718    24442726.871
  22300359.178   -20690653.06749 -16103187.04346  22300359.752    22300366.293
  20524618.120   -27474125.92649 -21385031.08548  20524618.133    20524625.317
 04  5 21  2 45 30.0000000  0  6G 4G20G27G25G13G 1
  24141922.398    -9705674.87249  -7230529.42845  24141922.955    24141931.426
  20696510.102   -27027257.21449 -20358312.06248  20696509.854    20696516.836
  24068543.319   -10118777.31349  -7860547.28345  24068543.484    24068553.667
  24459548.335    -8386891.01949  -4993475.92045  24459548.647    24459557.060
  22286821.379   -20761794.70549 -16158622.04946  22286821.924    22286828.487
  20522038.126   -27487683.91149 -21395595.74648  20522038.119    20522045.273
 04  5 21  2 46  0.0000000  0  6G 4G20G27G25G13G 1
  24143938.747    -9695078.55149  -7222272.57845  24143939.349    24143947.812
  20706163.349   -26976529.18849 -20318783.76048  20706163.102    20706170.061
  24053655.497   -10197012.89849  -7921509.98445  24053655.641    24053665.765
  24476377.513    -8298452.33649  -4924562.73545  24476377.856    24476386.414
  22273305.896   -20832818.81149 -16213965.47446  22273306.441    22273313.035
  20519504.775   -27500996.76349 -21405969.39448  20519504.743    20519511.919
 04  5 21  2 46 30.0000000  0  6G 4G20G27G25G13G 1
  24146051.683    -9683974.64449  -7213620.20445  24146052.206    24146060.985
  20715916.960   -26925273.81749 -20278844.54048  20715916.709    20715923.677
  24038798.344   -10275087.55349  -7982347.29045  24038798.506    24038808.657
  24493205.582    -8210020.26749  -4855654.68145  24493205.947    24493214.608
  22259812.626   -20903726.38549 -16269218.09846  22259813.132    22259819.700
  20517017.890   -27514065.33249 -21416152.69148  20517017.874    20517025.034
 04  5 21  2 47  0.0000000  0  6G 4G20G27G25G13G 1
  24148261.207    -9672363.36549  -7204572.47645  24148261.866    24148270.665
  20725770.832   -26873491.48049 -20238494.69548  20725770.578    20725777.541
  24023972.140   -10352999.64649  -8043057.91845  24023972.290    24023982.432
  24510032.513    -8121594.55849  -4786751.59945  24510032.788    24510041.289
  22246341.993   -20974515.19649 -16324378.18846  22246342.458    22246348.993
  20514577.825   -27526887.97749 -21426144.35848  20514577.803    20514584.963
 04  5 21  2 47 30.0000000  0  6G 4G20G27G25G13G 1
  24150567.291    -9660245.94849  -7195130.34445  24150567.929    24150576.579
  20735724.700   -26821183.64749 -20197735.37248  20735724.447    20735731.431
  24009176.949   -10430748.93149  -8103641.67845  24009176.963    24009187.055
  24526857.930    -8033176.74449  -4717854.62045  24526858.339    24526866.757
  22232894.065   -21045184.50749 -16379445.15046  22232894.537    22232901.050
  20512184.703   -27539464.05549 -21435943.89848  20512184.670    20512191.827
 04  5 21  2 48  0.0000000  0  6G 4G20G27G25G13G 1
  24152969.432    -9647623.46349  -7185294.66945  24152969.997    24152978.431
  20745778.307   -26768351.80549 -20156567.72748  20745778.057    20745785.045
  23994412.695   -10508335.12949  -8164098.37545  23994412.664    23994422.851
  24543681.752    -7944767.74649  -4648964.53345  24543682.092    24543690.520
  22219468.920   -21115733.61449 -16434418.45846  22219469.441    22219475.969
  20509838.577   -27551792.97649 -21445550.84548  20509838.544    20509845.692
 04  5 21  2 48 30.0000000  0  6G 4G20G27G25G13G 1
  24155467.155    -9634496.90249  -7175066.19445  24155467.858    24155476.370
  20755931.428   -26714996.89449 -20114992.49447  20755931.148    20755938.157
  23979679.511   -10585757.31249  -8224427.27145  23979679.623    23979689.810
  24560503.567    -7856368.60449  -4580082.11845  24560503.987    24560512.333
  22206066.875   -21186161.33049 -16489297.16446  22206067.419    22206073.990
  20507539.728   -27563873.51449 -21454964.25048  20507539.716    20507546.859
 04  5 21  2 49  0.0000000  0  6G 4G20G27G25G13G 1
  24158060.956    -9620866.66949  -7164445.23445  24158061.613    24158070.426
  20766183.933   -26661119.60049 -20073010.21647  20766183.660    20766190.692
  23964977.778   -10663014.75249  -8284627.78545  23964977.871    23964988.130
  24577323.566    -7767979.22749  -4511207.29145  24577324.082    24577331.977
  22192688.255   -21256466.24249 -16544080.18846  22192688.801    22192695.371
  20505288.409   -27575704.23749 -21464182.99248  20505288.384    20505295.552
 04  5 21  2 49 30.0000000  0  6G 4G20G27G25G13G 1
  24160750.145    -9606734.55049  -7153433.22345  24160750.751    24160759.708
  20776535.476   -26606722.14349 -20030622.61647  20776535.194    20776542.241
  23950307.513   -10740107.56949  -8344700.02745  23950307.607    23950317.784
  24594141.337    -7679601.29549  -4442341.42545  24594141.980    24594149.865
  22179333.059   -21326648.25449 -16598767.44546  22179333.597    22179340.106
  20503084.643   -27587285.04649 -21473206.99648  20503084.640    20503091.785
 04  5 21  2 50  0.0000000  0  6G 4G20G27G25G13G 1
  24163534.519    -9592102.43949  -7142031.59945  24163535.192    24163544.050
  20786985.587   -26551806.44149 -19987831.18847  20786985.309    20786992.331
  23935668.430   -10817035.88649  -8404644.10945  23935668.562    23935678.597
  24610956.633    -7591236.53649  -4373485.80845  24610957.149    24610965.158
  22166001.420   -21396706.61749 -16653358.35046  22166001.936    22166008.433
  20500928.470   -27598615.85649 -21482036.19848  20500928.462    20500935.602
 04  5 21  2 50 30.0000000  0  6G 4G20G27G25G13G 1
  24166414.358    -9576970.03049  -7130240.12145  24166414.949    24166423.658
  20797534.386   -26496372.42249 -19944635.88147  20797534.097    20797541.112
  23921061.034   -10893798.02449  -8464458.66345  23921061.204    23921071.283
  24627769.420    -7502884.58049  -4304640.17445  24627769.849    24627777.888
  22152693.680   -21466639.25249 -16707851.28246  22152694.159    22152700.669
  20498820.246   -27609694.74349 -21490669.09948  20498820.242    20498827.385
 04  5 21  2 51  0.0000000  0  6G 4G20G27G25G13G 1
  24169388.751    -9561339.63049  -7118060.60045  24169389.350    24169398.118
  20808181.268   -26440422.63049 -19901038.66647  20808180.996    20808187.985
  23906485.127   -10970394.63149  -8524144.23645  23906485.225    23906495.489
  24644579.453    -7414547.30649  -4235805.95045  24644579.963    24644588.027
  22139409.821   -21536446.18149 -16762246.26146  22139410.285    22139416.782
  20496759.869   -27620521.99349 -21499105.91448  20496759.858    20496767.004
 04  5 21  2 51 30.0000000  0  6G 4G20G27G25G13G 1
  24172457.666    -9545212.59149  -7105494.10545  24172458.225    24172466.890
  20818926.016   -26383958.64649 -19857040.79047  20818925.758    20818932.779
  23891940.873   -11046825.35749  -8583700.55845  23891940.953    23891951.115
  24661386.587    -7326225.80249  -4166983.99845  24661386.987    24661395.141
  22126149.940   -21606127.05549 -16816543.01946  22126150.425    22126156.939
  20494747.545   -27631096.76949 -21507346.00348  20494747.542    20494754.697
 04  5 21  2 52  0.0000000  0  6G 4G20G27G25G13G 1
  24175621.395    -9528589.21149  -7092540.82245  24175621.895    24175630.167
  20829768.526   -26326980.82949 -19812642.52047  20829768.271    20829775.327
  23877428.347   -11123088.83949  -8643126.56645  23877428.451    23877438.445
  24678190.600    -7237919.95349  -4098174.24245  24678191.084    24678199.160
  22112914.561   -21675679.19749 -16870739.46546  22112915.067    22112921.626
  20492783.596   -27641417.33949 -21515388.01148  20492783.611    20492790.757
 04  5 21  2 52 30.0000000  0  6G 4G20G27G25G13G 1
  24178878.796    -9511472.28049  -7079202.95745  24178879.102    24178887.351
  20840708.242   -26269492.26249 -19767846.26447  20840707.988    20840715.055
  23862947.304   -11199186.48549  -8702423.36345  23862947.406    23862957.504
  24694991.295    -7149632.36849  -4029378.72645  24694991.863    24694999.969
  22099703.529   -21745103.66649 -16924836.41946  22099704.023    22099710.540
  20490867.834   -27651484.69749 -21523232.70548  20490867.807    20490874.967
 04  5 21  2 53  0.0000000  0  6G 4G20G27G25G13G 1
  24182229.835    -9493861.15749  -7065480.04545  24182230.290    24182238.667
  20851745.261   -26211492.60149 -19722651.76547  20851745.007    20851752.064
  23848498.391   -11275115.73149  -8761588.93245  23848498.528    23848508.483
  24711788.706    -7061361.88949  -3960596.56745  24711789.095    24711797.598
  22086517.396   -21814397.49249 -16978831.57147  22086517.852    22086524.368
  20489000.815   -27661295.99449 -21530877.87448  20489000.810    20489007.970
 04  5 21  2 53 30.0000000  0  6G 4G20G27G25G13G 1
  24185674.716    -9475758.77849  -7051374.30745  24185675.155    24185683.446
  20862878.928   -26152985.00849 -19677061.46547  20862878.660    20862885.728
  23834081.430   -11350878.00049  -8820624.40546  23834081.478    23834091.313
  24728582.295    -6973111.26949  -3891829.87645  24728582.737    24728591.110
  22073355.961   -21883561.12849 -17032725.27747  22073356.424    22073362.925
  20487182.359   -27670851.99049 -21538324.10548  20487182.339    20487189.510
 04  5 21  2 54  0.0000000  0  6G 4G20G27G25G13G 1
  24189212.699    -9457166.19049  -7036886.60845  24189213.046    24189221.381
  20874108.973   -26093970.70949 -19631076.32847  20874108.725    20874115.769
  23819696.251   -11426472.37749  -8879529.02546  23819696.258    23819706.097
  24745372.044    -6884881.15249  -3823079.15145  24745372.476    24745380.859
  22060219.424   -21952593.56549 -17086516.74947  22060219.928    22060226.489
  20485412.691   -27680151.69449 -21545570.62848  20485412.654    20485419.835
 04  5 21  2 54 30.0000000  0  6G 4G20G27G25G13G 1
  24192843.903    -9438082.95249  -7022016.57145  24192844.352    24192852.770
  20885435.566   -26034449.17449 -19584695.94747  20885435.314    20885442.388
  23805343.287   -11501896.85349  -8938301.25345  23805343.364    23805353.201
  24762157.901    -6796670.27549  -3754343.44945  24762158.354    24762166.746
  22047108.427   -22021491.85849 -17140203.69147  22047108.964    22047115.528
  20483692.246   -27689192.53549 -21552615.44048  20483692.235    20483699.411
 04  5 21  2 55  0.0000000  0  6G 4G20G27G25G13G 1
  24196568.169    -9418512.36449  -7006766.76045  24196568.634    24196577.033
  20896857.946   -25974424.19149 -19537923.26447  20896857.696    20896864.789
  23791022.360   -11577153.11249  -8996942.42045  23791022.509    23791032.356
  24778939.666    -6708481.74649  -3685625.12845  24778940.057    24778948.425
  22034022.806   -22090257.33649 -17193787.14947  22034023.373    22034029.900
  20482020.888   -27697975.71649 -21559459.47848  20482020.852    20482028.035
 04  5 21  2 55 30.0000000  0  6G 4G20G27G25G13G 1
  24200384.577    -9398455.46949  -6991138.04945  24200385.042    24200393.862
  20908375.958   -25913896.87849 -19490759.15647  20908375.703    20908382.791
  23776733.732   -11652240.30149  -9055451.87945  23776733.760    23776743.621
  24795717.193    -6620315.74849  -3616924.31645  24795717.502    24795725.734
  22020962.871   -22158887.90749 -17247265.48047  22020963.424    22020969.905
  20480398.748   -27706499.87749 -21566101.67648  20480398.725    20480405.938
 04  5 21  2 56  0.0000000  0  6G 4G20G27G25G13G 1
  24204293.722    -9377912.80149  -6975130.77645  24204294.255    24204303.007
  20919989.393   -25852868.23449 -19443204.40447  20919989.123    20919996.186
  23762477.393   -11727157.32549  -9113828.73045  23762477.479    23762487.297
  24812490.158    -6532172.56349  -3548241.38545  24812490.550    24812498.842
  22007928.879   -22227382.09049 -17300637.53247  22007929.398    22007935.845
  20478826.186   -27714763.65649 -21572540.97948  20478826.184    20478833.371
 04  5 21  2 56 30.0000000  0  6G 4G20G27G25G13G 1
  24208294.858    -9356887.41149  -6958747.39845  24208295.346    24208304.188
  20931697.590   -25791341.40849 -19395261.45647  20931697.317    20931704.375
  23748253.077   -11801905.55949  -9172074.04645  23748253.277    23748263.113
  24829258.583    -6444054.51349  -3479577.94745  24829258.941    24829267.253
  21994920.679   -22295740.49149 -17353903.78347  21994921.163    21994927.619
  20477303.081   -27722767.77549 -21578777.95448  20477303.048    20477310.237
 04  5 21  2 57  0.0000000  0  6G 4G20G27G25G13G 1
  24212387.691    -9335380.28549  -6941988.62645  24212388.182    24212396.667
  20943500.401   -25729317.21449 -19346930.95047  20943500.137    20943507.192
  23734061.325   -11876483.79749  -9230186.87845  23734061.461    23734071.243
  24846021.988    -6355961.82249  -3410934.33645  24846022.246    24846030.686
  21981938.556   -22363961.64149 -17407063.08547  21981939.070    21981945.518
  20475829.635   -27730510.68749 -21584811.38148  20475829.608    20475836.816
 04  5 21  2 57 30.0000000  0  6G 4G20G27G25G13G 1
  24216572.003    -9313391.40249  -6924854.44145  24216572.516    24216580.901
  20955397.729   -25666796.35449 -19298213.43547  20955397.470    20955404.542
  23719902.123   -11950890.60849  -9288166.10345  23719902.234    23719912.033
  24862780.622    -6267894.51549  -3342310.44645  24862780.966    24862789.361
  21968983.059   -22432043.19249 -17460113.61347  21968983.579    21968990.032
  20474406.245   -27737990.54149 -21590639.83548  20474406.234    20474413.467
 04  5 21  2 58  0.0000000  0  6G 4G20G27G25G13G 1
  24220847.526    -9290924.00449  -6907347.39545  24220848.036    24220856.707
  20967389.001   -25603781.86549 -19249111.27147  20967388.759    20967395.836
  23705775.238   -12025127.24249  -9346012.77845  23705775.383    23705785.163
  24879534.014    -6179854.73849  -3273708.04845  24879534.426    24879542.871
  21956054.035   -22499985.77749 -17513055.85847  21956054.540    21956060.968
  20473032.757   -27745208.01149 -21596263.83148  20473032.744    20473039.984
 04  5 21  2 58 30.0000000  0  6G 4G20G27G25G13G 1
  24225213.715    -9267979.40449  -6889468.51845  24225214.124    24225223.067
  20979473.927   -25540275.47549 -19199625.81047  20979473.662    20979480.715
  23691680.892   -12099193.43949  -9403726.65346  23691681.040    23691690.713
  24896282.147    -6091843.19249  -3205127.62145  24896282.502    24896291.022
  21943151.676   -22567788.03749 -17565888.75247  21943152.182    21943158.615
  20471709.416   -27752162.23349 -21601682.70048  20471709.420    20471716.615
 04  5 21  2 59  0.0000000  0  6G 4G20G27G25G13G 1
  24229670.474    -9244558.56649  -6871218.54945  24229671.117    24229679.721
  20991652.234   -25476278.26749 -19149757.88447  20991651.992    20991659.039
  23677619.202   -12173088.19549  -9461306.90446  23677619.296    23677628.921
  24913024.779    -6003859.92349  -3136569.28845  24913024.982    24913033.753
  21930276.287   -22635448.47749 -17618611.13447  21930276.806    21930283.233
  20470436.474   -27758851.80949 -21606895.34948  20470436.482    20470443.653
 04  5 21  2 59 30.0000000  0  5G 4G20G27G13G 1
  24234215.843    -9220673.07949  -6852606.49945  24234216.401    24234225.116
  21003921.644   -25411802.11449 -19099516.75647  21003921.398    21003928.475
  23663588.264   -12246821.24949  -9518761.17746  23663588.329    23663597.853
  21917426.115   -22702975.98549 -17671229.94247  21917426.651    21917433.127
  20469212.086   -27765285.95049 -21611908.96448  20469212.089    20469219.251
 04  5 21  3  0  0.0000000  0  5G 4G20G27G13G 1
  24238851.685    -9196310.26849  -6833622.53445  24238852.362    24238861.367
  21016284.545   -25346834.58549 -19048892.74347  21016284.289    21016291.411
  23649590.841   -12320378.13849  -9576078.17646  23649590.899    23649600.421
  21904604.203   -22770355.36949 -17723733.33247  21904604.748    21904611.209
  20468039.195   -27771449.57649 -21616711.78948  20468039.191    20468046.359
 04  5 21  3  0 30.0000000  0  5G 4G20G27G13G 1
  24243578.200    -9171473.66849  -6814269.35245  24243578.759    24243587.440
  21028740.349   -25281378.96249 -18997888.40647  21028740.106    21028747.246
  23635626.605   -12393760.22149  -9633258.97146  23635626.716    23635636.216
  21891810.370   -22837587.27549 -17776121.79947  21891810.885    21891817.339
  20466917.565   -27777343.59749 -21621304.52448  20466917.568    20466924.746
 04  5 21  3  1  0.0000000  0  5G 4G20G27G13G 1
  24248394.130    -9146165.15149  -6794548.47445  24248394.646    24248403.445
  21041288.564   -25215437.86349 -18946505.77147  21041288.309    21041295.441
  23621695.597   -12466967.83649  -9690303.79446  23621695.680    23621705.228
  21879044.718   -22904671.16549 -17828394.92547  21879045.222    21879051.657
  20465847.311   -27782967.85349 -21625687.05148  20465847.319    20465854.496
 04  5 21  3  1 30.0000000  0  5G 4G20G27G13G 1
  24253299.902    -9120384.55749  -6774459.74745  24253300.499    24253309.498
  21053929.221   -25149011.06849 -18894744.67147  21053928.958    21053936.093
  23607798.129   -12539998.91449  -9747211.07246  23607798.291    23607807.885
  21866307.767   -22971604.25149 -17880550.55147  21866308.250    21866314.677
  20464828.892   -27788319.76249 -21629857.36648  20464828.884    20464836.075
 04  5 21  3  2  0.0000000  0  5G 4G20G27G13G 1
  24258294.375    -9094139.21649  -6754008.84345  24258294.922    24258303.655
  21066660.880   -25082105.88949 -18842610.79847  21066660.604    21066667.747
  23593933.354   -12612858.53649  -9803984.73646  23593933.579    23593943.093
  21853598.666   -23038390.76749 -17932591.96447  21853599.198    21853605.601
  20463861.371   -27793404.11549 -21633819.20548  20463861.364    20463868.565
 04  5 21  3  2 30.0000000  0  5G 4G20G27G13G 1
  24263377.009    -9067428.97949  -6733195.71745  24263377.653    24263386.465
  21079483.490   -25014722.60949 -18790104.37847  21079483.227    21079490.380
  23580101.584   -12685545.00049  -9860623.46746  23580101.725    23580111.240
  21840917.930   -23105028.20249 -17984517.21647  21840918.487    21840924.882
  20462945.212   -27798218.47349 -21637570.64948  20462945.198    20462952.412
 04  5 21  3  3  0.0000000  0  5G 4G20G27G13G 1
  24268548.279    -9040255.56849  -6712021.66245  24268548.833    24268557.537
  21092396.796   -24946862.71549 -18737226.57347  21092396.558    21092403.761
  23566302.869   -12758057.58749  -9917126.70846  23566303.008    23566312.485
  21828265.924   -23171514.99649 -18036325.07547  21828266.436    21828272.862
  20462080.685   -27802761.61249 -21641110.75548  20462080.686    20462087.885
 04  5 21  3  3 30.0000000  0  5G 4G20G27G13G 1
  24273806.712    -9012622.45849  -6690489.41245  24273807.253    24273815.773
  21105400.091   -24878530.10349 -18683980.41547  21105399.846    21105407.045
  23552536.867   -12830398.34249  -9973496.05446  23552536.958    23552546.325
  21815642.311   -23237852.42349 -18088016.54547  21815642.835    21815649.256
  20461267.491   -27807034.91349 -21644440.59548  20461267.469    20461274.676
 04  5 21  3  4  0.0000000  0  5G 4G20G27G13G 1
  24279152.864    -8984528.52449  -6668598.04945  24279153.411    24279161.852
  21118493.452   -24809724.27649 -18630365.51647  21118493.181    21118500.407
  23538804.218   -12902564.03949 -10029728.99946  23538804.315    23538813.523
  21803047.907   -23304036.39849 -18139588.44947  21803048.454    21803054.795
  20460506.345   -27811034.69349 -21647557.30548  20460506.336    20460513.539
 04  5 21  3  4 30.0000000  0  5G 4G20G27G13G 1
  24284586.123    -8955975.99549  -6646349.38145  24284586.611    24284595.529
  21131676.463   -24740447.19849 -18576383.41347  21131676.205    21131683.434
  23525104.739   -12974555.06349 -10085825.82046  23525104.839    23525113.963
  21790482.896   -23370065.84549 -18191039.93947  21790483.432    21790489.734
  20459797.350   -27814760.50649 -21650460.52948  20459797.327    20459804.527
 04  5 21  3  5  0.0000000  0  5G 4G20G27G13G 1
  24290106.711    -8926965.32649  -6623743.68645  24290107.358    24290116.001
  21144949.032   -24670699.50749 -18522034.60647  21144948.767    21144955.984
  23511438.834   -13046369.56649 -10141785.10046  23511438.960    23511448.065
  21777947.768   -23435938.38349 -18242369.15947  21777948.320    21777954.597
  20459140.893   -27818210.14649 -21653148.56248  20459140.891    20459148.077
 04  5 21  3  5 30.0000000  0  5G 4G20G27G13G 1
  24295713.393    -8897502.77549  -6600785.87145  24295713.938    24295722.611
  21158309.927   -24600487.79349 -18467324.20347  21158309.647    21158316.872
  23497805.631   -13118012.05249 -10197610.34346  23497805.758    23497814.928
  21765441.706   -23501658.04849 -18293579.25747  21765442.258    21765448.522
  20458536.259   -27821387.55649 -21655624.46148  20458536.240    20458543.459
 04  5 21  3  6  0.0000000  0  5G 4G20G27G13G 1
  24301406.133    -8867586.69149  -6577474.66145  24301406.766    24301415.363
  21171759.403   -24529810.27449 -18412250.84247  21171759.146    21171766.385
  23484205.950   -13189478.62949 -10253298.50046  23484206.063    23484215.340
  21752965.745   -23567219.66549 -18344666.20347  21752966.295    21752972.543
  20457984.277   -27824288.26449 -21657884.74748  20457984.262    20457991.498
 04  5 21  3  6 30.0000000  0  5G 4G20G27G13G 1
  24307184.757    -8837219.93849  -6553812.29145  24307185.257    24307193.923
  21185296.912   -24458670.11549 -18356816.98447  21185296.664    21185303.946
  23470639.447   -13260770.42549 -10308850.46146  23470639.555    23470648.961
  21740519.749   -23632623.46449 -18395630.16747  21740520.301    21740526.574
  20457484.842   -27826912.84449 -21659929.87448  20457484.818    20457492.024
 04  5 21  3  7  0.0000000  0  5G 4G20G27G13G 1
  24313048.884    -8806402.27849  -6529798.57845  24313049.545    24313058.550
  21198922.563   -24387067.02149 -18301022.39547  21198922.321    21198929.606
  23457106.733   -13331884.84049 -10364264.21146  23457106.833    23457116.220
  21728104.520   -23697866.00249 -18446468.47647  21728105.056    21728111.323
  20457038.528   -27829258.09949 -21661757.34848  20457038.507    20457045.727
 04  5 21  3  7 30.0000000  0  5G 4G20G27G13G 1
  24318998.391    -8775139.38649  -6505437.88345  24318998.917    24319007.635
  21212635.072   -24315007.36349 -18244872.04347  21212634.828    21212642.100
  23443606.938   -13402825.92549 -10419542.89646  23443607.109    23443616.518
  21715719.359   -23762950.15249 -18497183.37347  21715719.930    21715726.176
  20456644.704   -27831327.47549 -21663369.85348  20456644.680    20456651.943
 04  5 21  3  8  0.0000000  0  5G 4G20G27G13G 1
  24325031.885    -8743432.01449  -6480730.87645  24325032.490    24325041.137
  21226434.439   -24242491.53749 -18188366.23347  21226434.185    21226441.451
  23430140.512   -13473591.90249 -10474685.13746  23430140.692    23430150.105
  21703364.881   -23827873.35449 -18547772.85247  21703365.453    21703371.700
  20456303.830   -27833118.77549 -21664765.66848  20456303.826    20456311.074
 04  5 21  3  8 30.0000000  0  5G 4G20G27G13G 1
  24331150.403    -8711280.10049  -6455677.45145  24331151.015    24331159.587
  21240320.560   -24169519.87049 -18131505.22747  21240320.282    21240327.533
  23416707.800   -13544180.97649 -10529689.52946  23416707.940    23416717.370
  21691041.522   -23892632.86349 -18598234.77947  21691042.074    21691048.332
  20456016.384   -27834629.32649 -21665942.71948  20456016.385    20456023.603
 04  5 21  3  9  0.0000000  0  5G 4G20G27G13G 1
  24337352.626    -8678686.87749  -6430280.18145  24337353.261    24337362.058
  21254292.734   -24096095.58249 -18074291.53647  21254292.469    21254299.756
  23403308.609   -13614594.20749 -10584556.90646  23403308.736    23403318.161
  21678749.343   -23957228.45649 -18648568.98447  21678749.894    21678756.158
  20455782.300   -27835859.48849 -21666901.28848  20455782.297    20455789.522
 04  5 21  3  9 30.0000000  0  5G 4G20G27G13G 1
  24343638.653    -8645654.59249  -6404540.75345  24343639.279    24343647.711
  21268350.585   -24022221.26849 -18016727.16547  21268350.317    21268357.591
  23389942.831   -13684831.73149 -10639287.37546  23389942.939    23389952.321
  21666488.521   -24021659.36049 -18698774.85347  21666489.072    21666495.326
  20455601.648   -27836808.94749 -21667641.12948  20455601.652    20455608.852
 04  5 21  3 10  0.0000000  0  5G 4G20G27G13G 1
  24350007.713    -8612185.57249  -6378461.06245  24350008.141    24350016.916
  21282493.566   -23947899.49349 -17958814.12347  21282493.306    21282500.591
  23376610.369   -13754893.76049 -10693881.07146  23376610.470    23376619.880
  21654259.187   -24085925.06749 -18748851.99747  21654259.718    21654265.976
  20455474.473   -27837477.23649 -21668161.87148  20455474.470    20455481.671
 04  5 21  3 10 30.0000000  0  5G 4G20G27G13G 1
  24356459.881    -8578278.63449  -6352040.09245  24356460.523    24356469.041
  21296721.921   -23873128.97949 -17900551.42847  21296721.676    21296728.960
  23363311.949   -13824777.02049 -10748335.48746  23363312.076    23363321.485
  21642062.062   -24150021.22949 -18798797.03247  21642062.582    21642068.867
  20455401.577   -27837860.33649 -21668460.39248  20455401.580    20455408.761
 04  5 21  3 11  0.0000000  0  5G 4G20G27G13G 1
  24362994.533    -8543939.20149  -6325282.14045  24362995.100    24363003.614
  21311034.662   -23797915.25449 -17841943.37347  21311034.418    21311041.697
  23350046.920   -13894484.75049 -10802653.12546  23350047.079    23350056.480
  21629896.802   -24213949.94149 -18848611.59847  21629897.314    21629903.606
  20455382.430   -27837960.97549 -21668538.81048  20455382.423    20455389.606
 04  5 21  3 11 30.0000000  0  5G 4G20G27G13G 1
  24369611.471    -8509167.05949  -6298187.01145  24369612.078    24369620.910
  21325431.679   -23722258.33049 -17782989.96047  21325431.441    21325438.738
  23336815.878   -13964014.55349 -10856832.12846  23336816.008    23336825.353
  21617764.077   -24277707.66549 -18898292.91847  21617764.593    21617770.887
  20455417.597   -27837776.18649 -21668394.81448  20455417.599    20455424.801
 04  5 21  3 12  0.0000000  0  5G 4G20G27G13G 1
  24376310.178    -8473965.43749  -6270757.22245  24376310.781    24376319.573
  21339912.419   -23646161.79549 -17723694.00347  21339912.176    21339919.492
  23323618.377   -14033367.71349 -10910873.48146  23323618.465    23323627.843
  21605663.899   -24341294.53949 -18947841.10447  21605664.380    21605670.673
  20455506.927   -27837306.50149 -21668028.81948  20455506.937    20455514.133
 04  5 21  3 12 30.0000000  0  5G 4G20G27G13G 1
  24383090.472    -8438335.37849  -6242993.58745  24383091.017    24383099.669
  21354476.636   -23569626.53149 -17664056.17547  21354476.384    21354483.717
  23310454.646   -14102542.99649 -10964776.22346  23310454.758    23310464.163
  21593596.655   -24404708.34549 -18997254.44447  21593597.124    21593603.396
  20455650.912   -27836549.83749 -21667439.20348  20455650.918    20455658.125
 04  5 21  3 13  0.0000000  0  5G 4G20G27G13G 1
  24389951.387    -8402280.99749  -6214899.31045  24389951.819    24389960.578
  21369123.540   -23492656.55249 -17604079.60947  21369123.304    21369130.650
  23297324.473   -14171542.16149 -11018541.73746  23297324.578    23297334.009
  21581562.149   -24467949.95249 -19046533.60047  21581562.635    21581568.899
  20455849.284   -27835507.39849 -21666626.90648  20455849.290    20455856.482
 04  5 21  3 13 30.0000000  0  5G 4G20G27G13G 1
  24396893.164    -8365800.65049  -6186473.08645  24396893.751    24396902.338
  21383853.346   -23415250.92249 -17543763.57547  21383853.117    21383860.505
  23284228.461   -14240361.77149 -11072167.33646  23284228.544    23284237.975
  21569561.243   -24531014.87549 -19095675.07947  21569561.753    21569567.985
  20456102.784   -27834175.25849 -21665588.87148  20456102.765    20456109.969
 04  5 21  3 14  0.0000000  0  5G 4G20G27G13G 1
  24403915.372    -8328898.67649  -6157718.37545  24403915.940    24403924.724
  21398665.376   -23337413.56649 -17483111.12947  21398665.112    21398672.466
  23271166.368   -14309003.48849 -11125654.30446  23271166.497    23271175.771
  21557593.909   -24593903.56049 -19144679.23147  21557594.418    21557600.670
  20456411.219   -27832554.39749 -21664325.85248  20456411.201    20456418.411
 04  5 21  3 14 30.0000000  0  5G 4G20G27G13G 1
  24411017.392    -8291577.98949  -6128637.37945  24411017.964    24411026.713
  21413558.876   -23259147.79649 -17422124.86347  21413558.622    21413565.984
  23258137.927   -14377468.43149 -11179003.52746  23258138.046    23258147.166
  21545660.125   -24656615.80549 -19193545.90547  21545660.650    21545666.925
  20456774.552   -27830645.12749 -21662838.10448  20456774.540    20456781.739
 04  5 21  3 15  0.0000000  0  5G 4G20G27G13G 1
  24418198.624    -8253841.20349  -6099232.12845  24418199.262    24418207.733
  21428533.295   -23180456.50949 -17360807.01647  21428533.065    21428540.457
  23245143.031   -14445756.99749 -11232215.32446  23245143.102    23245152.172
  21533760.031   -24719151.04849 -19242274.65447  21533760.578    21533766.840
  20457192.785   -27828447.28349 -21661125.48948  20457192.770    20457199.944
 04  5 21  3 15 30.0000000  0  5G 4G20G27G13G 1
  24425458.863    -8215688.30449  -6069502.66745  24425459.407    24425468.208
  21443588.748   -23101339.76949 -17299157.64747  21443588.503    21443595.922
  23232182.081   -14513866.88249 -11285287.88446  23232182.165    23232191.209
  21521894.257   -24781506.08349 -19290862.97747  21521894.782    21521901.046
  20457666.536   -27825957.72649 -21659185.56548  20457666.542    20457673.697
 04  5 21  3 16  0.0000000  0  5G 4G20G27G13G 1
  24432797.880    -8177121.10049  -6039450.33345  24432798.475    24432807.268
  21458724.846   -23021799.36549 -17237178.15247  21458724.594    21458732.029
  23219255.266   -14581797.51049 -11338220.76746  23219255.304    23219264.418
  21510063.128   -24843679.00949 -19339309.40247  21510063.653    21510069.916
  20458196.010   -27823175.37649 -21657017.49148  20458196.016    20458203.157
 04  5 21  3 16 30.0000000  0  5G 4G20G27G13G 1
  24440214.954    -8138144.47249  -6009079.00245  24440215.450    24440224.286
  21473940.557   -22941840.38449 -17174872.49747  21473940.310    21473947.772
  23206361.965   -14649551.75649 -11391016.21046  23206362.060    23206371.156
  21498266.415   -24905671.17049 -19387614.97547  21498266.930    21498273.178
  20458780.823   -27820102.21049 -21654622.80848  20458780.801    20458787.951
 04  5 21  3 17  0.0000000  0  5G 4G20G27G13G 1
  24447710.014    -8098758.36149  -5978388.57445  24447710.502    24447719.462
  21489236.015   -22861462.68649 -17112240.55747  21489235.732    21489243.194
  23193502.809   -14717127.01849 -11443672.17846  23193502.882    23193511.963
  21486504.740   -24967479.01649 -19435776.92447  21486505.272    21486511.497
  20459421.541   -27816734.98849 -21651998.99048  20459421.527    20459428.680
 04  5 21  3 17 30.0000000  0  5G 4G20G27G13G 1
  24455282.439    -8058965.24549  -5947380.99245  24455282.930    24455291.788
  21504610.503   -22780669.07649 -17049284.54047  21504610.238    21504617.705
  23180677.576   -14784523.76449 -11496189.05646  23180677.661    23180686.754
  21474778.262   -25029101.90749 -19483794.74447  21474778.790    21474785.024
  20460118.317   -27813073.44549 -21649145.83248  20460118.305    20460125.478
 04  5 21  3 18  0.0000000  0  5G 4G20G27G13G 1
  24462931.775    -8018767.50749  -5916058.14545  24462932.314    24462941.307
  21520063.749   -22699461.97449 -16986006.31347  21520063.520    21520070.964
  23167886.289   -14851741.92449 -11548566.76946  23167886.406    23167895.461
  21463087.229   -25090538.75949 -19531667.60147  21463087.744    21463093.974
  20460871.172   -27809117.00249 -21646062.87548  20460871.164    20460878.336
 04  5 21  3 18 30.0000000  0  5G 4G20G27G13G 1
  24470657.732    -7978167.23549  -5884421.62245  24470658.325    24470667.254
  21535595.203   -22617843.77649 -16922407.76647  21535594.968    21535602.414
  23155129.011   -14918781.53849 -11600805.35646  23155129.088    23155138.191
  21451431.838   -25151788.14549 -19579394.37547  21451432.362    21451438.570
  20461680.332   -27804864.93849 -21642749.57348  20461680.313    20461687.492
 04  5 21  3 19  0.0000000  0  5G 4G20G27G13G 1
  24478459.879    -7937166.99949  -5852473.44245  24478460.304    24478469.399
  21551204.429   -22535816.94149 -16858490.78347  21551204.212    21551211.640
  23142405.755   -14985642.70849 -11652904.90146  23142405.826    23142414.807
  21439812.296   -25212849.18949 -19626974.39347  21439812.827    21439819.012
  20462545.807   -27800316.71049 -21639205.49248  20462545.794    20462552.971
 04  5 21  3 19 30.0000000  0  5G 4G20G27G13G 1
  24486337.966    -7895768.04749  -5820214.54645  24486338.451    24486347.571
  21566891.172   -22453382.67649 -16794256.34147  21566890.952    21566898.376
  23129716.626   -15052324.22049 -11704864.45246  23129716.670    23129725.591
  21428229.142   -25273719.22549 -19674405.57147  21428229.655    21428235.849
  20463468.040   -27795470.29449 -21635429.05748  20463468.036    20463475.215
 04  5 21  3 20  0.0000000  0  5G 4G20G27G13G 1
  24494291.024    -7853973.47449  -5787647.40145  24494291.514    24494300.536
  21582654.824   -22370544.32349 -16729707.00847  21582654.589    21582662.041
  23117061.504   -15118826.99249 -11756684.74046  23117061.541    23117070.421
  21416682.353   -25334398.10349 -19721687.79847  21416682.859    21416689.023
  20464446.963   -27790325.94749 -21631420.47048  20464446.958    20464454.136
 04  5 21  3 20 30.0000000  0  5G 4G20G27G13G 1
  24502319.221    -7811785.06149  -5754773.38345  24502319.786    24502329.090
  21598495.040   -22287303.72149 -16664844.24447  21598494.763    21598502.243
  23104440.411   -15185150.60949 -11808365.41346  23104440.499    23104449.366
  21405172.282   -25394883.87549 -19768819.54647  21405172.787    21405178.954
  20465482.837   -27784882.40749 -21627178.74748  20465482.821    20465490.015
 04  5 21  3 21  0.0000000  0  5G 4G20G27G13G 1
  24510421.913    -7769205.73649  -5721594.72745  24510422.508    24510431.679
  21614411.194   -22203664.00749 -16599670.49447  21614410.925    21614418.419
  23091853.393   -15251295.55649 -11859906.86346  23091853.482    23091862.348
  21393699.065   -25455176.08849 -19815800.46347  21393699.560    21393705.680
  20466575.674   -27779139.55749 -21622703.79748  20466575.664    20466582.819
 04  5 21  3 21 30.0000000  0  5G 4G20G27G13G 1
  24518598.424    -7726237.99949  -5688113.42445  24518599.007    24518608.273
  21630402.769   -22119627.71749 -16534187.71447  21630402.514    21630410.029
  23079300.307   -15317262.10649 -11911309.31746  23079300.403    23079309.197
  21382262.880   -25515273.58449 -19862629.66447  21382263.367    21382269.461
  20467725.574   -27773096.92449 -21617995.25448  20467725.548    20467732.694
 04  5 21  3 22  0.0000000  0  5G 4G20G27G13G 1
  24526848.572    -7682883.42249  -5654330.68045  24526849.275    24526858.375
  21646469.505   -22035196.39649 -16468397.12947  21646469.271    21646476.832
  23066781.356   -15383049.22549 -11962571.94246  23066781.469    23066790.261
  21370864.183   -25575173.99649 -19909305.28947  21370864.688    21370870.767
  20468932.810   -27766752.89649 -21613051.84648  20468932.773    20468939.920
 04  5 21  3 22 30.0000000  0  5G 4G20G27G13G 1
  24535171.935    -7639143.90649  -5620248.00145  24535172.672    24535181.537
  21662611.001   -21950372.50149 -16402300.63347  21662610.777    21662618.353
  23054296.567   -15448656.91849 -12013694.75446  23054296.693    23054305.478
  21359503.170   -25634876.34449 -19955826.57747  21359503.683    21359509.773
  20470197.510   -27760106.66049 -21607872.96248  20470197.497    20470204.642
 04  5 21  3 23  0.0000000  0  5G 4G20G27G13G 1
  24543567.990    -7595022.92649  -5585868.05745  24543568.651    24543577.575
  21678826.605   -21865159.17949 -16335900.69647  21678826.361    21678833.956
  23041845.820   -15514085.90449 -12064678.32046  23041845.912    23041854.727
  21348180.048   -25694379.76449 -20002192.85747  21348180.562    21348186.617
  20471519.817   -27753157.96449 -21602458.39148  20471519.792    20471526.951
 04  5 21  3 23 30.0000000  0  5G 4G20G27G13G 1
  24552036.213    -7550522.53649  -5551192.44945  24552036.919    24552045.753
  21695115.831   -21779558.75449 -16269199.11147  21695115.614    21695123.189
  23029428.983   -15579336.20249 -12115522.65046  23029429.128    23029437.972
  21336894.966   -25753683.18949 -20048403.29447  21336895.485    21336901.512
  20472899.799   -27745906.13749 -21596807.61648  20472899.786    20472906.915
 04  5 21  3 24  0.0000000  0  5G 4G20G27G13G 1
  24560576.300    -7505644.11149  -5516222.29745  24560577.096    24560585.981
  21711478.580   -21693572.30549 -16202196.72047  21711478.326    21711485.917
  23017046.535   -15644406.27749 -12166226.53946  23017046.670    23017055.447
  21325648.553   -25812783.33649 -20094455.32947  21325649.070    21325655.120
  20474337.845   -27738349.13049 -21590919.04048  20474337.831    20474344.952
 04  5 21  3 24 30.0000000  0  5G 4G20G27G13G 1
  24569187.913    -7460390.56849  -5480959.85545  24569188.604    24569197.429
  21727914.092   -21607203.33049 -16134896.26647  21727913.858    21727921.437
  23004698.231   -15709297.20049 -12216790.83846  23004698.319    23004707.045
  21314440.857   -25871680.01249 -20140348.82347  21314441.389    21314447.434
  20475833.909   -27730487.17049 -21584792.83548  20475833.885    20475841.021
 04  5 21  3 25  0.0000000  0  5G 4G20G27G13G 1
  24577870.021    -7414765.03549  -5445407.51745  24577870.673    24577879.629
  21744421.854   -21520454.77049 -16067300.03247  21744421.580    21744429.205
  22992383.827   -15774009.44149 -12267215.90546  22992383.944    22992392.668
  21303271.921   -25930372.84649 -20186083.46947  21303272.461    21303278.505
  20477388.046   -27722320.06249 -21578428.85248  20477388.029    20477395.181
 04  5 21  3 25 30.0000000  0  5G 4G20G27G13G 1
  24586623.035    -7368767.79949  -5409565.59145  24586623.655    24586632.696
  21761001.728   -21433327.03649 -15999408.33647  21761001.452    21761009.092
  22980103.819   -15838541.07549 -12317500.24146  22980103.965    22980112.636
  21292142.441   -25988858.65449 -20231656.79747  21292142.976    21292149.025
  20479000.771   -27713845.03049 -21571824.93448  20479000.763    20479007.934
 04  5 21  3 26  0.0000000  0  5G 4G20G27G13G 1
  24595446.070    -7322402.84149  -5373437.07545  24595446.627    24595455.633
  21777653.022   -21345824.13249 -15931224.29947  21777652.765    21777660.376
  22967857.980   -15902893.47849 -12367644.91946  22967858.083    22967866.773
  21281052.484   -26047136.72549 -20277068.25647  21281053.033    21281059.069
  20480671.969   -27705062.70449 -21564981.55948  20480671.966    20480679.126
 04  5 21  3 26 30.0000000  0  5G 4G20G27G13G 1
  24604338.480    -7275672.98949  -5337024.22645  24604339.100    24604348.013
  21794375.121   -21257948.99549 -15862750.21347  21794374.858    21794382.482
  22955646.100   -15967067.02749 -12417650.23546  22955646.197    22955654.880
  21270002.241   -26105206.16649 -20322317.14947  21270002.763    21270008.795
  20482401.701   -27695972.85649 -21557898.55748  20482401.708    20482408.857
 04  5 21  3 27  0.0000000  0  5G 4G20G27G13G 1
  24613300.101    -7228579.18549  -5300327.82845  24613300.707    24613309.826
  21811167.817   -21169702.59949 -15793986.83247  21811167.603    21811175.212
  22943468.526   -16031060.25549 -12467515.03946  22943468.648    22943477.312
  21258992.169   -26163064.51449 -20367401.55547  21258992.666    21258998.665
  20484190.426   -27686573.17649 -21550574.12348  20484190.420    20484197.542
 04  5 21  3 27 30.0000000  0  5G 4G20G27G13G 1
  24622330.500    -7181123.86949  -5263349.70045  24622331.145    24622340.370
  21828030.692   -21081087.72649 -15724936.33147  21828030.509    21828038.119
  22931325.243   -16094873.35349 -12517239.47846  22931325.374    22931334.064
  21248022.506   -26220710.29049 -20412320.32547  21248023.010    21248029.005
  20486038.212   -27676863.10549 -21543007.83248  20486038.191    20486045.311
 04  5 21  3 28  0.0000000  0  6G 4G 3G20G27G13G 1
  24631428.882    -7133311.02149  -5226092.97945  24631429.616    24631438.698
  24569574.744    -1819597.78949  -1395886.58745  24569574.147    24569585.281
  21844963.000   -20992108.12249 -15655601.61647  21844962.807    21844970.425
  22919216.027   -16158507.60649 -12566824.55846  22919216.107    22919224.795
  21237093.260   -26278143.72649 -20457073.62947  21237093.786    21237099.779
  20487944.897   -27666843.30349 -21535200.18848  20487944.881    20487952.029
 04  5 21  3 28 30.0000000  0  6G 4G 3G20G27G13G 1
  24640595.099    -7085142.26049  -5188558.95445  24640595.791    24640605.082
  24555000.527    -1896185.62349  -1455565.25845  24555000.257    24555011.074
  21861964.388   -20902765.58649 -15585984.10247  21861964.127    21861971.767
  22907140.982   -16221962.37949 -12616269.78346  22907141.016    22907149.707
  21226204.842   -26335362.73549 -20501659.84647  21226205.354    21226211.353
  20489910.799   -27656512.31949 -21527150.05848  20489910.800    20489917.928
 04  5 21  3 29  0.0000000  0  6G 4G 3G20G27G13G 1
  24649828.845    -7036619.60749  -5150749.14345  24649829.428    24649838.611
  24540448.352    -1972657.15649  -1515153.35845  24540448.181    24540458.735
  21879034.471   -20813062.12849 -15516085.35647  21879034.190    21879041.819
  22895100.099   -16285237.16749 -12665574.76546  22895100.182    22895108.926
  21215357.587   -26392365.22849 -20546077.34847  21215358.113    21215364.144
  20491936.188   -27645868.93649 -21518856.51448  20491936.188    20491943.305
 04  5 21  3 29 30.0000000  0  6G 4G 3G20G27G13G 1
  24659129.165    -6987746.64949  -5112666.38145  24659129.730    24659138.912
  24525918.640    -2049010.50349  -1574649.33345  24525918.669    24525929.122
  21896172.395   -20723001.58049 -15445908.36147  21896172.145    21896179.775
  22883093.333   -16348333.08349 -12714740.37046  22883093.444    22883102.103
  21204551.583   -26449150.95749 -20590325.95247  21204552.114    21204558.164
  20494020.948   -27634913.49749 -21510319.80348  20494020.935    20494028.035
 04  5 21  3 30  0.0000000  0  6G 4G 3G20G27G13G 1
  24668495.575    -6938525.01049  -5074311.90745  24668496.126    24668505.551
  24511412.276    -2125241.83749  -1634050.21645  24511412.193    24511422.568
  21913378.017   -20632585.46349 -15375454.28847  21913377.774    21913385.426
  22871120.819   -16411249.28549 -12763765.93346  22871120.892    22871129.512
  21193787.269   -26505717.78849 -20634403.97247  21193787.776    21193793.859
  20496165.353   -27623644.46249 -21501538.72548  20496165.360    20496172.445
 04  5 21  3 30 30.0000000  0  6G 4G 3G20G27G13G 1
  24677928.072    -6888957.17149  -5035687.67945  24677928.755    24677938.001
  24496929.801    -2201347.52149  -1693353.17545  24496929.688    24496940.087
  21930650.845   -20541816.24549 -15304725.07447  21930650.606    21930658.291
  22859182.451   -16473985.61249 -12812651.33546  22859182.518    22859191.145
  21183064.904   -26562063.89049 -20678310.00247  21183065.439    21183071.501
  20498369.681   -27612060.73549 -21492512.43548  20498369.674    20498376.766
 04  5 21  3 31  0.0000000  0  6G 4G 3G20G27G13G 1
  24687425.963    -6839045.90849  -4996795.86645  24687426.609    24687435.976
  24482471.454    -2277325.41049  -1752556.58945  24482471.438    24482481.902
  21947990.325   -20450696.99649 -15233723.10447  21947990.092    21947997.796
  22847278.135   -16536542.66549 -12861397.04246  22847278.218    22847286.873
  21172384.753   -26618188.39149 -20722043.35647  21172385.303    21172391.341
  20500633.848   -27600162.38249 -21483240.98348  20500633.837    20500640.945
 04  5 21  3 31 30.0000000  0  6G 4G 3G20G27G13G 1
  24696988.810    -6788794.08849  -4957638.67345  24696989.360    24696998.663
  24468038.129    -2353172.43749  -1811658.00445  24468038.270    24468048.631
  21965395.922   -20359230.44149 -15162450.51447  21965395.633    21965403.344
  22835407.922   -16598920.52949 -12910003.12246  22835408.036    22835416.710
  21161747.015   -26674090.00749 -20765603.03247  21161747.547    21161753.580
  20502958.045   -27587948.52449 -21473723.68548  20502958.047    20502965.147
 04  5 21  3 32  0.0000000  0  6G 4G 3G20G27G13G 1
  24706615.828    -6738204.26449  -4918218.07745  24706616.356    24706625.556
  24453630.481    -2428885.39449  -1870655.04245  24453630.694    24453640.614
  21982867.073   -20267419.16649 -15090909.31447  21982866.798    21982874.513
  22823571.800   -16661119.49049 -12958469.79946  22823571.960    22823580.619
  21151151.897   -26729767.51949 -20808988.07847  21151152.432    21151158.482
  20505342.412   -27575418.57549 -21463960.08448  20505342.407    20505349.505
 04  5 21  3 32 30.0000000  0  6G 4G 3G20G27G13G 1
  24716306.678    -6687278.32049  -4878535.59945  24716307.276    24716316.596
  24439248.893    -2504461.14549  -1929545.11445  24439249.110    24439258.833
  22000403.356   -20175265.26549 -15019101.12347  22000403.108    22000410.823
  22811769.876   -16723138.91549 -13006796.57546  22811770.020    22811778.653
  21140599.801   -26785218.99249 -20852196.99347  21140600.367    21140606.402
  20507787.110   -27562571.55349 -21453949.41148  20507787.104    20507794.174
 04  5 21  3 33  0.0000000  0  6G 4G 3G20G27G13G 1
  24726060.947    -6636019.04849  -4838593.37945  24726061.554    24726070.796
  24424893.857    -2579896.58049  -1988325.84945  24424894.039    24424903.778
  22018004.343   -20082771.44949 -14947028.06047  22018004.113    22018011.842
  22800002.162   -16784978.85549 -13054983.48446  22800002.247    22800010.870
  21130091.035   -26840442.80749 -20895228.50447  21130091.592    21130097.646
  20510292.307   -27549406.64649 -21443691.03448  20510292.320    20510299.375
 04  5 21  3 33 30.0000000  0  6G 4G 3G20G27G13G 1
  24735878.194    -6584428.49349  -4798393.02445  24735878.767    24735888.253
  24410566.178    -2655188.21849  -2046994.51645  24410566.227    24410576.438
  22035669.637   -19989939.91049 -14874691.83547  22035669.384    22035677.137
  22788268.530   -16846639.23149 -13103030.47746  22788268.610    22788277.264
  21119625.949   -26895437.30849 -20938081.32747  21119626.497    21119632.529
  20512858.163   -27535922.90049 -21433184.21248  20512858.174    20512865.231
 04  5 21  3 34  0.0000000  0  6G 4G 3G20G27G13G 1
  24745758.250    -6532509.35549  -4757936.60545  24745758.907    24745768.163
  24396266.509    -2730333.15249  -2105548.89345  24396266.586    24396276.725
  22053398.621   -19896773.47749 -14802094.65947  22053398.400    22053406.153
  22776569.053   -16908120.01849 -13150937.52746  22776569.179    22776577.779
  21109204.740   -26950201.05749 -20980754.34347  21109205.281    21109211.288
  20515484.864   -27522119.57549 -21422428.36248  20515484.865    20515491.946
 04  5 21  3 34 30.0000000  0  6G 4G 3G20G27G13G 1
  24755700.145    -6480264.96749  -4717226.74445  24755700.824    24755709.887
  24381995.255    -2805329.11049  -2163987.17845  24381995.356    24382005.431
  22071190.820   -19803275.09049 -14729238.82247  22071190.592    22071198.365
  22764903.695   -16969421.86149 -13198705.14546  22764903.805    22764912.351
  21098827.593   -27004733.28649 -21023246.95747  21098828.135    21098834.114
  20518172.357   -27507996.54949 -21411423.40048  20518172.345    20518179.455
 04  5 21  3 35  0.0000000  0  6G 4G 3G20G27G13G 1
  24765703.607    -6427697.81549  -4676265.41545  24765704.229    24765713.433
  24367752.636    -2880173.08349  -2222307.07545  24367752.736    24367763.043
  22089045.603   -19709447.74149 -14656126.65047  22089045.412    22089053.175
  22753272.273   -17030544.87149 -13246333.40446  22753272.377    22753280.943
  21088494.743   -27059032.64949 -21065558.11747  21088495.299    21088501.257
  20520920.845   -27493553.14649 -21400168.79448  20520920.822    20520927.950
 04  5 21  3 35 30.0000000  0  6G 4G 3G20G27G13G 1
  24775767.914    -6374810.09849  -4635054.24845  24775768.502    24775777.646
  24353539.824    -2954861.31049  -2280505.60145  24353539.825    24353550.046
  22106962.677   -19615293.55049 -14582759.79947  22106962.418    22106970.140
  22741674.943   -17091488.63949 -13293822.00046  22741675.066    22741683.659
  21078206.592   -27113097.07449 -21107686.20947  21078207.161    21078213.105
  20523730.492   -27478788.19249 -21388663.63148  20523730.487    20523737.618
 04  5 21  3 36  0.0000000  0  6G 4G 3G20G27G13G 1
  24785892.816    -6321604.63349  -4593595.50345  24785893.243    24785902.273
  24339357.201    -3029391.04549  -2338580.60845  24339357.203    24339367.368
  22124941.334   -19520815.18849 -14509140.34047  22124941.052    22124948.810
  22730111.772   -17152253.45849 -13341171.15646  22730111.891    22730120.463
  21067963.400   -27166925.42949 -21149630.35047  21067963.952    21067969.890
  20526601.433   -27463701.33949 -21376907.63948  20526601.420    20526608.564
 04  5 21  3 36 30.0000000  0  6G 4G 3G20G27G13G 1
  24796077.554    -6268083.63349  -4551890.88845  24796077.833    24796086.998
  24325205.417    -3103758.91849  -2396529.48445  24325205.560    24325215.458
  22142981.235   -19426015.18949 -14435270.25447  22142980.973    22142988.742
  22718582.758   -17212839.02549 -13388380.62746  22718582.852    22718591.328
  21057765.449   -27220515.75349 -21191389.01547  21057765.992    21057771.927
  20529533.836   -27448291.40749 -21364899.89848  20529533.830    20529540.981
 04  5 21  3 37  0.0000000  0  6G 4G 3G20G27G13G 1
  24806321.628    -6214249.86849  -4509942.56145  24806322.030    24806331.082
  24311084.931    -3177962.03349  -2454349.96245  24311085.216    24311094.958
  22161081.881   -19330896.06149 -14361151.49847  22161081.592    22161089.363
  22707087.816   -17273245.48949 -13435450.54046  22707087.880    22707096.319
  21047613.073   -27273866.71449 -21232961.15847  21047613.610    21047619.561
  20532527.815   -27432557.76849 -21352639.91448  20532527.807    20532534.971
 04  5 21  3 37 30.0000000  0  6G 4G 3G20G27G13G 1
  24816624.915    -6160105.91649  -4467752.53845  24816625.338    24816634.476
  24296996.560    -3251997.01649  -2512039.43345  24296996.719    24297006.686
  22179242.778   -19235460.27849 -14286786.00047  22179242.480    22179250.237
  22695626.859   -17333472.83149 -13482380.88546  22695626.915    22695635.380
  21037506.537   -27326976.66649 -21274345.51347  21037507.107    21037513.021
  20535583.590   -27416499.53549 -21340127.00148  20535583.591    20535590.759
 04  5 21  3 38  0.0000000  0  6G 4G 3G20G27G13G 1
  24826986.752    -6105654.47949  -4425322.87945  24826987.225    24826996.313
  24282940.731    -3325861.15449  -2569595.84245  24282940.990    24282950.589
  22197463.255   -19139711.10249 -14212176.30446  22197462.966    22197470.754
  22684199.925   -17393521.47449 -13529171.98146  22684199.985    22684208.436
  21027446.109   -27379844.53749 -21315541.22747  21027446.672    21027452.585
  20538701.145   -27400116.62649 -21327361.09448  20538701.143    20538708.287
 04  5 21  3 38 30.0000000  0  6G 4G 3G20G27G13G 1
  24837406.524    -6050898.09149  -4382655.62045  24837406.970    24837416.221
  24268917.924    -3399551.11149  -2627016.50045  24268918.177    24268927.705
  22215742.955   -19043650.86349 -14137324.21546  22215742.662    22215750.513
  22672807.053   -17453391.12849 -13575823.61046  22672807.152    22672815.555
  21017432.126   -27432468.44749 -21356546.84747  21017432.674    21017438.579
  20541880.701   -27383408.04349 -21314341.41348  20541880.692    20541887.838
 04  5 21  3 39  0.0000000  0  6G 4G 3G20G27G13G 1
  24847883.897    -5995839.83649  -4339753.14945  24847884.457    24847893.610
  24254928.780    -3473064.19149  -2684299.35345  24254928.952    24254938.501
  22234081.301   -18947282.41149 -14062231.96446  22234081.016    22234088.876
  22661448.228   -17513082.22649 -13622336.10246  22661448.266    22661456.651
  21007464.725   -27484847.23449 -21397361.47047  21007465.284    21007471.174
  20545122.250   -27366373.36949 -21301067.64648  20545122.268    20545129.394
 04  5 21  3 39 30.0000000  0  6G 4G 3G20G27G13G 1
  24858418.041    -5940482.15749  -4296617.35045  24858418.574    24858427.833
  24240973.866    -3546397.17249  -2741441.83845  24240974.093    24240983.647
  22252477.759   -18850608.58749 -13986901.76046  22252477.480    22252485.341
  22650123.374   -17572594.67049 -13668709.39446  22650123.406    22650131.771
  20997544.326   -27536979.34649 -21437983.87647  20997544.872    20997550.748
  20548426.027   -27349011.89449 -21287539.22448  20548426.051    20548433.186
 04  5 21  3 40  0.0000000  0  6G 4G 3G20G27G13G 1
  24869008.772    -5884827.68949  -4253250.29945  24869009.263    24869018.622
  24227053.847    -3619547.09949  -2798441.66845  24227054.030    24227063.681
  22270931.818   -18753631.79549 -13911335.46546  22270931.595    22270939.420
  22638832.454   -17631928.54949 -13714943.53546  22638832.522    22638840.849
  20987671.213   -27588862.92049 -21478412.61247  20987671.757    20987677.608
  20551792.174   -27331322.75849 -21273755.47848  20551792.180    20551799.304
 04  5 21  3 40 30.0000000  0  6G 4G 3G20G27G13G 1
  24879655.464    -5828879.17149  -4209654.09645  24879655.953    24879665.212
  24213169.230    -3692510.98649  -2855296.54945  24213169.322    24213178.874
  22289443.023   -18656354.89349 -13835535.33746  22289442.800    22289450.623
  22627575.419   -17691084.31649 -13761038.89446  22627575.506    22627583.868
  20977845.523   -27640497.01849 -21518646.95447  20977846.069    20977851.961
  20555220.731   -27313305.65849 -21259716.18348  20555220.737    20555227.851
 04  5 21  3 41  0.0000000  0  6G 4G 3G20G27G13G 1
  24890357.598    -5772639.20949  -4165830.82145  24890358.143    24890367.624
  24199320.648    -3765285.60649  -2912003.98145  24199320.818    24199330.239
  22308010.884   -18558780.54649 -13759503.42946  22308010.645    22308018.432
  22616352.397   -17750061.55449 -13806995.13146  22616352.435    22616360.826
  20968067.691   -27691879.92049 -21558685.55747  20968068.228    20968074.092
  20558711.849   -27294959.79649 -21245420.70648  20558711.850    20558718.949
 04  5 21  3 41 30.0000000  0  6G 4G 3G20G27G13G 1
  24901114.646    -5716110.64449  -4121782.63345  24901115.187    24901124.826
  24185508.576    -3837867.83049  -2968561.50845  24185508.781    24185518.227
  22326634.747   -18460911.56149 -13683241.92746  22326634.503    22326642.319
  22605163.127   -17808860.68449 -13852812.58346  22605163.211    22605171.661
  20958337.985   -27743009.99949 -21598527.16047  20958338.484    20958344.354
  20562265.675   -27276284.41949 -21230868.46248  20562265.690    20562272.747
 04  5 21  3 42  0.0000000  0  6G 4G 3G20G27G13G 1
  24911926.239    -5659295.45149  -4077511.11745  24911926.772    24911936.418
  24171733.717    -3910254.32049  -3024966.48245  24171733.907    24171743.378
  22345314.298   -18362749.91449 -13606752.37046  22345314.041    22345321.878
  22594007.980   -17867481.11249 -13898490.78646  22594008.074    22594016.527
  20948656.690   -27793885.37849 -21638170.29547  20948657.216    20948663.062
  20565882.382   -27257278.43049 -21216058.59848  20565882.386    20565889.445
 04  5 21  3 42 30.0000000  0  5G 3G20G27G13G 1
  24157996.715    -3982442.28249  -3081216.70845  24157996.807    24158006.398
  22364048.966   -18264298.58749 -13530037.10146  22364048.731    22364056.587
  22582886.858   -17925923.10849 -13944029.95946  22582886.943    22582895.363
  20939024.141   -27844504.55149 -21677613.78947  20939024.675    20939030.497
  20569562.082   -27237941.41549 -21200990.79848  20569562.088    20569569.154
 04  5 21  3 43  0.0000000  0  5G 3G20G27G13G 1
  24144298.678    -4054424.67649  -3137306.77945  24144298.830    24144308.590
  22382838.969   -18165556.47449 -13453095.24946  22382838.713    22382846.633
  22571800.361   -17984182.90449 -13989427.15246  22571800.438    22571808.882
  20929441.440   -27894861.91149 -21716853.27147  20929441.969    20929447.779
  20573305.637   -27218268.95449 -21185661.60848  20573305.647    20573312.713
 04  5 21  3 43 30.0000000  0  5G 3G20G27G13G 1
  24130639.455    -4126204.37249  -3193238.93745  24130639.626    24130649.295
  22401682.613   -18066532.25349 -13375933.56646  22401682.398    22401690.385
  22560747.317   -18042266.64949 -14034687.16247  22560747.400    22560755.899
  20919907.662   -27944962.23749 -21755892.46147  20919908.199    20919914.009
  20577111.982   -27198266.40149 -21170075.19748  20577111.982    20577119.068
 04  5 21  3 44  0.0000000  0  5G 3G20G27G13G 1
  24117019.460    -4197778.02849  -3249010.57045  24117019.535    24117029.138
  22420579.515   -17967228.30249 -13298553.89646  22420579.306    22420587.369
  22549727.804   -18100174.10949 -14079809.79847  22549727.918    22549736.418
  20910423.127   -27994803.60049 -21794729.86547  20910423.655    20910429.462
  20580981.375   -27177932.69949 -21154230.76048  20580981.373    20580988.453
 04  5 21  3 44 30.0000000  0  5G 3G20G27G13G 1
  24103439.372    -4269141.25649  -3304618.17745  24103439.526    24103449.141
  22439529.453   -17867646.19049 -13220957.50746  22439529.167    22439537.257
  22538742.154   -18157904.20449 -14124794.23747  22538742.243    22538750.692
  20900988.452   -28044383.30249 -21833363.38147  20900988.966    20900994.758
  20584914.137   -27157265.94949 -21138126.80348  20584914.131    20584921.211
 04  5 21  3 45  0.0000000  0  5G 3G20G27G13G 1
  24089899.909    -4340291.03849  -3360059.46845  24089900.129    24089909.621
  22458531.791   -17767788.39449 -13143146.28446  22458531.552    22458539.637
  22527790.203   -18215456.80949 -14169640.37947  22527790.286    22527798.695
  20891603.848   -28093699.57849 -21871791.62547  20891604.363    20891610.157
  20588910.387   -27136265.37149 -21121762.71648  20588910.384    20588917.468
 04  5 21  3 45 30.0000000  0  5G 3G20G27G13G 1
  24076401.710    -4411224.43849  -3415332.18445  24076401.974    24076411.420
  22477586.024   -17667657.98949 -13065122.65446  22477585.791    22477593.871
  22516871.955   -18272832.14749 -14214348.38547  22516872.054    22516880.448
  20882269.673   -28142750.85449 -21910013.37047  20882270.205    20882275.977
  20592970.333   -27114930.36149 -21105138.02848  20592970.323    20592977.403
 04  5 21  3 46  0.0000000  0  5G 3G20G27G13G 1
  24062945.330    -4481937.78149  -3470433.41145  24062945.560    24062955.032
  22496691.877   -17567256.70849 -12986887.94346  22496691.574    22496699.657
  22505987.586   -18330029.77249 -14258917.91247  22505987.679    22505996.042
  20872986.313   -28191535.17449 -21948027.10547  20872986.822    20872992.622
  20597094.123   -27093259.82649 -21088251.89748  20597094.098    20597101.182
 04  5 21  3 46 30.0000000  0  5G 3G20G27G13G 1
  24049531.374    -4552428.50149  -3525361.16345  24049531.555    24049540.964
  22515848.498   -17466588.31749 -12908445.08946  22515848.212    22515856.302
  22495136.915   -18387050.31949 -14303349.45647  22495137.001    22495145.352
  20863753.946   -28240051.49249 -21985832.00447  20863754.473    20863760.246
  20601281.708   -27071253.95649 -21071104.46848  20601281.699    20601288.781
 04  5 21  3 47  0.0000000  0  5G 3G20G27G13G 1
  24036160.352    -4622693.36049  -3580112.96445  24036160.483    24036169.885
  22535055.509   -17365655.41949 -12829796.12546  22535055.206    22535063.281
  22484319.889   -18443893.93149 -14347643.12847  22484319.999    22484328.341
  20854572.897   -28288298.19949 -22023426.81547  20854573.419    20854579.200
  20605533.235   -27048911.95949 -21053695.11648  20605533.216    20605540.312
 04  5 21  3 47 30.0000000  0  5G 3G20G27G13G 1
  24022832.868    -4692729.83749  -3634686.77145  24022833.009    24022842.302
  22554312.227   -17264460.75549 -12750943.17246  22554311.905    22554320.030
  22473536.529   -18500560.76349 -14391799.05247  22473536.604    22473544.936
  20845443.412   -28336273.79849 -22060810.37247  20845443.940    20845449.702
  20609848.801   -27026233.25249 -21036023.39748  20609848.799    20609855.904
 04  5 21  3 48  0.0000000  0  5G 3G20G27G13G 1
  24009549.413    -4762534.46149  -3689079.87145  24009549.466    24009558.942
  22573618.319   -17163006.69349 -12671888.06946  22573618.030    22573626.165
  22462786.809   -18557050.56149 -14435817.02347  22462786.896    22462795.230
  20836365.861   -28383976.42749 -22097981.22847  20836366.394    20836372.164
  20614228.663   -27003216.91049 -21018088.57948  20614228.666    20614235.788
 04  5 21  3 48 30.0000000  0  5G 3G20G27G13G 1
  23996310.608    -4832103.47149  -3743289.36745  23996310.720    23996320.371
  22592973.266   -17061295.46149 -12592632.60846  22592973.020    22592981.206
  22452070.947   -18613362.76449 -14479696.60947  22452071.045    22452079.351
  20827340.704   -28431403.74749 -22134937.56047  20827341.252    20827347.010
  20618672.984   -26979861.85949 -20999889.83848  20618672.980    20618680.079
 04  5 21  3 49  0.0000000  0  5G 3G20G27G13G 1
  23983117.387    -4901434.60649  -3797313.56445  23983117.513    23983126.973
  22612376.499   -16959330.64549 -12513179.55146  22612376.238    22612384.454
  22441388.654   -18669498.45149 -14523438.64447  22441388.750    22441397.015
  20818368.087   -28478555.18749 -22171678.91048  20818368.633    20818374.375
  20623181.743   -26956168.41249 -20981427.40548  20623181.718    20623188.803
 04  5 21  3 49 30.0000000  0  6G 3G20G27G 8G13G 1
  23969968.647    -4970531.96849  -3851155.60045  23969968.696    23969978.031
  22631826.172   -16857122.07049 -12433536.54146  22631825.913    22631834.141
  22430738.568   -18725464.86749 -14567048.77847  22430738.653    22430746.914
  24863229.181    -6857472.32649  -5014621.65545  24863229.195    24863239.974
  20809446.950   -28525436.12849 -22208209.49548  20809447.489    20809453.209
  20627753.580   -26932143.03549 -20962706.32848  20627753.553    20627760.627
 04  5 21  3 50  0.0000000  0  6G 3G20G27G 8G13G 1
  23956866.478    -5039384.26549  -3904806.62745  23956866.507    23956875.705
  22651323.201   -16754664.31349 -12353699.36746  22651322.975    22651331.235
  22420122.238   -18781253.74949 -14610520.57847  22420122.322    22420130.583
  24846104.851    -6947461.59449  -5084743.10245  24846104.730    24846115.544
  20800579.096   -28572036.92949 -22244521.77348  20800579.609    20800585.348
  20632390.300   -26907776.83149 -20943719.66948  20632390.303    20632397.359
 04  5 21  3 50 30.0000000  0  6G 3G20G27G 8G13G 1
  23943811.760    -5107986.04349  -3958262.44645  23943811.835    23943821.222
  22670867.674   -16651957.91249 -12273668.44346  22670867.385    22670875.634
  22409540.133   -18836863.12549 -14653852.51747  22409540.208    22409548.441
  24828998.969    -7037353.41549  -5154788.62645  24828998.922    24829009.635
  20791765.297   -28618353.63249 -22280612.68648  20791765.820    20791771.555
  20637092.418   -26883067.04849 -20924465.28948  20637092.408    20637099.453
 04  5 21  3 51  0.0000000  0  6G 3G20G27G 8G13G 1
  23930804.994    -5176336.10449  -4011522.13845  23930805.128    23930814.379
  22690458.496   -16549007.44449 -12193447.33446  22690458.273    22690466.482
  22398991.837   -18892294.81449 -14697045.99647  22398991.871    22399000.093
  24811911.393    -7127149.02149  -5224759.14245  24811911.301    24811922.110
  20783005.558   -28664386.32949 -22316482.28948  20783006.084    20783011.788
  20641859.687   -26858014.87549 -20904944.11148  20641859.678    20641866.728
 04  5 21  3 51 30.0000000  0  6G 3G20G27G 8G13G 1
  23917846.537    -5244432.83749  -4064584.47645  23917846.619    23917856.006
  22710095.034   -16445816.91349 -12113039.17346  22710094.798    22710102.971
  22388477.025   -18947550.17049 -14740102.07147  22388477.090    22388485.271
  24794841.779    -7216849.32649  -5294655.41145  24794841.748    24794852.552
  20774299.905   -28710134.86049 -22352130.46448  20774300.421    20774306.112
  20646691.999   -26832620.90949 -20885156.60448  20646692.003    20646699.037
 04  5 21  3 52  0.0000000  0  6G 3G20G27G 8G13G 1
  23904936.957    -5312272.18749  -4117446.21345  23904937.157    23904946.506
  22729776.989   -16342387.83849 -12032445.13846  22729776.723    22729784.913
  22377996.037   -19002628.15149 -14783019.92747  22377996.096    22378004.215
  24777790.735    -7306452.80049  -5364476.24245  24777790.733    24777801.320
  20765648.845   -28755596.36049 -22387554.98148  20765649.350    20765655.023
  20651589.655   -26806883.54349 -20865101.51148  20651589.662    20651596.688
 04  5 21  3 52 30.0000000  0  6G 3G20G27G 8G13G 1
  23892076.722    -5379853.09449  -4170106.55345  23892076.859    23892086.235
  22749503.461   -16238725.05649 -11951668.97946  22749503.137    22749511.296
  22367548.372   -19057530.97449 -14825801.30047  22367548.409    22367556.533
  24760757.843    -7395960.92949  -5434222.77045  24760757.854    24760768.191
  20757052.324   -28800771.13049 -22422756.06448  20757052.841    20757058.508
  20656552.388   -26780804.23849 -20844779.96648  20656552.396    20656559.418
 04  5 21  3 53  0.0000000  0  6G 3G20G27G 8G13G 1
  23879266.574    -5447171.49649  -4222562.38645  23879266.648    23879275.989
  22769273.975   -16134830.42149 -11870712.15646  22769273.670    22769281.855
  22357134.147   -19112257.77949 -14868445.51847  22357134.198    22357142.292
  24743743.556    -7485371.81549  -5503893.54145  24743743.513    24743753.776
  20748510.845   -28845656.80249 -22457731.88948  20748511.364    20748517.016
  20661580.463   -26754381.55449 -20824190.85848  20661580.456    20661587.492
 04  5 21  3 53 30.0000000  0  6G 3G20G27G 8G13G 1
  23866506.548    -5514225.67749  -4274812.31245  23866506.651    23866515.907
  22789087.852   -16030707.93849 -11789577.80346  22789087.583    22789095.764
  22346753.241   -19166809.75849 -14910953.50447  22346753.284    22346761.352
  24726747.561    -7574686.76349  -5573489.53345  24726747.459    24726757.682
  20740024.467   -28890252.86649 -22492482.03648  20740024.969    20740030.617
  20666673.759   -26727616.17149 -20803334.70948  20666673.739    20666680.763
 04  5 21  3 54  0.0000000  0  6G 3G20G27G 8G13G 1
  23853797.638    -5581011.15149  -4326852.86045  23853797.770    23853806.885
  22808944.911   -15926358.91549 -11708266.92246  22808944.616    22808952.806
  22336405.783   -19221185.84449 -14953324.42447  22336405.818    22336413.851
  24709770.057    -7663903.90549  -5643009.32645  24709770.043    24709780.286
  20731593.745   -28934556.60049 -22527004.39748  20731594.246    20731599.904
  20671832.607   -26700506.24549 -20782210.08748  20671832.588    20671839.629
 04  5 21  3 54 30.0000000  0  6G 3G20G27G 8G13G 1
  23841140.321    -5647525.20849  -4378681.92845  23841140.501    23841149.386
  22828844.333   -15821786.48049 -11626781.94946  22828844.080    22828852.403
  22326091.743   -19275386.16949 -14995558.40247  22326091.808    22326099.803
  24692811.258    -7753022.56149  -5712452.37845  24692811.153    24692821.584
  20723218.940   -28978566.34549 -22561297.67748  20723219.444    20723225.089
  20677057.038   -26673051.44749 -20760816.74348  20677057.021    20677064.084
 04  5 21  3 55  0.0000000  0  6G 3G20G27G 8G13G 1
  23828535.336    -5713765.70849  -4430297.83145  23828535.468    23828544.257
  22848785.601   -15716994.25349 -11545125.71446  22848785.355    22848793.710
  22315810.931   -19329411.92049 -15037656.34347  22315811.016    22315819.049
  24675871.182    -7842043.18449  -5781819.04145  24675871.080    24675881.519
  20714900.181   -29022281.54049 -22595361.43148  20714900.693    20714906.330
  20682347.098   -26645252.05749 -20739154.87548  20682347.079    20682354.143
 04  5 21  3 55 30.0000000  0  6G 3G20G27G 8G13G 1
  23815982.897    -5779729.72849  -4481698.27845  23815982.918    23815991.830
  22868768.178   -15611985.06349 -11463300.41946  22868767.941    22868776.344
  22305563.324   -19383263.17349 -15079618.31147  22305563.410    22305571.469
  24658949.724    -7930965.19549  -5851108.84845  24658949.715    24658960.229
  20706637.846   -29065700.38549 -22629194.26848  20706638.343    20706643.969
  20687702.772   -26617107.69649 -20717224.20748  20687702.751    20687709.821
 04  5 21  3 56  0.0000000  0  6G 3G20G27G 8G13G 1
  23803483.482    -5845413.09949  -4532880.05745  23803483.642    23803492.705
  22888791.811   -15506760.29249 -11381307.14346  22888791.560    22888799.971
  22295349.141   -19436938.85049 -15121443.46447  22295349.221    22295357.255
  24642047.430    -8019787.20949  -5920320.75345  24642047.346    24642058.044
  20698432.431   -29108820.07649 -22662794.00048  20698432.943    20698438.546
  20693124.428   -26588616.67349 -20695023.41348  20693124.418    20693131.503
 04  5 21  3 56 30.0000000  0  6G 3G20G27G 8G13G 1
  23791038.144    -5910813.68449  -4583841.49845  23791038.326    23791047.356
  22908855.717   -15401324.01649 -11299149.04746  22908855.489    22908863.788
  22285168.116   -19490440.19749 -15163132.77547  22285168.189    22285176.246
  24625163.888    -8108509.94749  -5989455.31045  24625163.894    24625174.570
  20690284.010   -29151640.28649 -22696160.36348  20690284.524    20690290.101
  20698611.982   -26559779.51349 -20672552.89948  20698611.979    20698619.025
 04  5 21  3 57  0.0000000  0  6G 3G20G27G 8G13G 1
  23778647.431    -5975927.82249  -4634579.72345  23778647.525    23778656.454
  22928959.490   -15295678.16449 -11216827.65746  22928959.262    22928967.642
  22275020.400   -19543766.61249 -15204685.78347  22275020.524    22275028.511
  24608299.705    -8197132.09149  -6058511.44445  24608299.559    24608310.311
  20682193.045   -29194158.52649 -22729291.43948  20682193.555    20682199.108
  20704165.609   -26530595.05949 -20649811.77148  20704165.594    20704172.626
 04  5 21  3 57 30.0000000  0  6G 3G20G27G 8G13G 1
  23766311.394    -6040753.64449  -4685093.25645  23766311.505    23766320.416
  22949102.438   -15189826.53649 -11134345.90946  22949102.207    22949110.518
  22264905.747   -19596919.20649 -15246103.34247  22264905.867    22264913.828
  24591454.432    -8285654.02449  -6127489.51345  24591454.251    24591464.715
  20674159.670   -29236374.25449 -22762186.78948  20674160.187    20674165.741
  20709785.254   -26501063.69249 -20626800.32148  20709785.254    20709792.267
 04  5 21  3 58  0.0000000  0  6G 3G20G27G 8G13G 1
  23754030.946    -6105287.15449  -4735379.03845  23754031.136    23754039.923
  22969284.288   -15083771.10149 -11051705.37146  22969284.005    22969292.276
  22254824.391   -19649897.09349 -15287384.76447  22254824.496    22254832.438
  24574628.610    -8374074.52649  -6196388.54145  24574628.469    24574638.844
  20666184.337   -29278284.75249 -22794844.30048  20666184.848    20666190.419
  20715471.137   -26471184.10649 -20603517.53348  20715471.148    20715478.149
 04  5 21  3 58 30.0000000  0  6G 3G20G27G 8G13G 1
  23741806.523    -6169525.81249  -4785435.05445  23741806.760    23741815.470
  22989504.287   -14977514.81349 -10968908.30046  22989504.007    22989512.220
  22244776.161   -19702700.85249 -15328530.49547  22244776.242    22244784.155
  24557822.232    -8462392.82949  -6265207.94345  24557822.183    24557832.325
  20658267.334   -29319888.75349 -22827262.97848  20658267.859    20658273.420
  20721223.354   -26440956.02449 -20579963.17848  20721223.355    20721230.344
 04  5 21  3 59  0.0000000  0  6G 3G20G27G 8G13G 1
  23729638.809    -6233467.22949  -4835259.48345  23729639.033    23729647.547
  23009761.807   -14871060.96949 -10885957.29746  23009761.464    23009769.705
  22234760.919   -19755331.07149 -15369541.00947  22234760.985    22234768.938
  24541035.150    -8550609.82049  -6333948.40845  24541035.085    24541045.092
  20650408.863   -29361185.28749 -22859442.07748  20650409.379    20650414.913
  20727041.857   -26410379.61049 -20556137.39848  20727041.857    20727048.881
 04  5 21  3 59 30.0000000  0  6G 3G20G27G 8G13G 1
  23717528.579    -6297107.37249  -4884849.11545  23717528.787    23717537.273
  23030056.503   -14764411.68649 -10802854.01646  23030056.174    23030064.459
  22224778.839   -19807786.96049 -15410415.68147  22224778.926    22224786.868
  24524267.647    -8638723.60749  -6402608.44345  24524267.394    24524277.478
  20642609.402   -29402171.75149 -22891379.57348  20642609.909    20642615.430
  20732926.917   -26379453.50249 -20532039.13548  20732926.903    20732933.929
 04  5 21  4  0  0.0000000  0  6G 3G20G27G 8G13G 1
  23705475.659    -6360445.43549  -4934203.34145  23705475.721    23705484.411
  23050387.374   -14657571.76949 -10719602.18246  23050387.139    23050395.483
  22214829.530   -19860070.77249 -15451156.26147  22214829.594    22214837.517
  24507519.306    -8726736.00549  -6471189.44345  24507519.228    24507529.218
  20634868.833   -29442848.54849 -22923075.75348  20634869.347    20634874.871
  20738878.157   -26348179.32249 -20507669.63848  20738878.153    20738885.176
 04  5 21  4  0 30.0000000  0  6G 3G20G27G 8G13G 1
  23693481.310    -6423475.65849  -4983317.70845  23693481.395    23693490.140
  23070754.557   -14550541.41649 -10636201.95446  23070754.319    23070762.655
  22204913.445   -19912179.95449 -15491760.76847  22204913.528    22204921.423
  24490790.892    -8814644.19349  -6539689.28145  24490790.739    24490800.774
  20627188.005   -29483211.38649 -22954527.30348  20627188.525    20627194.063
  20744896.289   -26316553.94449 -20483026.48648  20744896.267    20744903.318
 04  5 21  4  1  0.0000000  0  6G 3G20G27G 8G13G 1
  23681545.731    -6486197.07849  -5032191.47045  23681545.807    23681554.702
  23091157.276   -14443324.80849 -10552656.59146  23091157.004    23091165.336
  22195030.267   -19964116.39649 -15532230.67047  22195030.340    22195038.229
  24474082.071    -8902449.44549  -6608108.89245  24474081.906    24474092.066
  20619566.899   -29523260.46749 -22985734.37048  20619567.431    20619572.965
  20750980.912   -26284578.84449 -20458110.82048  20750980.915    20750987.964
 04  5 21  4  1 30.0000000  0  6G 3G20G27G 8G13G 1
  23669669.601    -6548605.93449  -5080821.66245  23669669.699    23669678.715
  23111595.112   -14335924.19049 -10468967.83546  23111594.775    23111603.021
  22185180.075   -20015879.34749 -15572565.38447  22185180.140    22185188.033
  24457393.238    -8990150.20049  -6676447.09545  24457392.969    24457403.130
  20612005.986   -29562993.30549 -23016695.00148  20612006.495    20612012.012
  20757132.407   -26252252.59649 -20432921.52648  20757132.386    20757139.471
 04  5 21  4  2  0.0000000  0  6G 3G20G27G 8G13G 1
  23657853.330    -6610699.82549  -5129206.42745  23657853.509    23657862.557
  23132067.160   -14228342.95949 -10385138.37146  23132066.813    23132075.090
  22175362.698   -20067469.67449 -15612765.59547  22175362.776    22175370.631
  24440724.210    -9077746.48049  -6744703.88445  24440723.939    24440734.097
  20604505.476   -29602408.81049 -23047408.36848  20604505.987    20604511.478
  20763350.656   -26219575.39149 -20407458.76548  20763350.651    20763357.737
 04  5 21  4  2 30.0000000  0  6G 3G20G27G 8G13G 1
  23646097.875    -6672474.72549  -5177342.62345  23646097.977    23646107.045
  23152573.289   -14120582.73349 -10301169.41346  23152572.967    23152581.190
  22165578.397   -20118886.18749 -15652830.35847  22165578.479    22165586.322
  24424075.309    -9165236.88549  -6812878.15945  24424075.125    24424085.223
  20597065.885   -29641504.16049 -23077872.26348  20597066.398    20597071.859
  20769635.997   -26186545.64649 -20381721.29948  20769635.990    20769643.057
 04  5 21  4  3  0.0000000  0  6G 3G20G27G 8G13G 1
  23634403.367    -6733929.50649  -5225229.40045  23634403.522    23634412.455
  23173112.666   -14012647.91149 -10217064.39646  23173112.318    23173120.531
  22155826.825   -20170130.84449 -15692761.20647  22155826.910    22155834.737
  24407446.174    -9252622.41049  -6880970.68945  24407446.067    24407456.254
  20589687.185   -29680279.50749 -23108086.80248  20589687.686    20589693.141
  20775988.199   -26153164.62149 -20355710.10348  20775988.183    20775995.241
 04  5 21  4  3 30.0000000  0  6G 3G20G27G 8G13G 1
  23622770.659    -6795060.18349  -5272863.62445  23622770.806    23622779.599
  23193684.908   -13904540.22849 -10132824.71646  23193684.566    23193692.756
  22146108.150   -20221202.66049 -15732557.37947  22146108.248    22146116.032
  24390837.430    -9339901.81749  -6948980.53745  24390837.265    24390847.535
  20582369.877   -29718732.18349 -23138049.90648  20582370.362    20582375.820
  20782407.504   -26119431.00749 -20329424.16848  20782407.489    20782414.520
 04  5 21  4  4  0.0000000  0  6G 3G20G27G 8G13G 1
  23611199.901    -6855865.42349  -5320244.24745  23611200.007    23611208.811
  23214289.135   -13796264.21949 -10048453.84146  23214288.862    23214297.053
  22136422.055   -20272103.46449 -15772220.29547  22136422.134    22136429.898
  24374248.685    -9427076.36149  -7016908.69845  24374248.479    24374258.611
  20575113.943   -29756862.21849 -23167761.60048  20575114.435    20575119.891
  20788893.700   -26085345.99549 -20302864.41348  20788893.688    20788900.688
 04  5 21  4  4 30.0000000  0  6G 3G20G27G 8G13G 1
  23599691.515    -6916340.76849  -5367367.77545  23599691.764    23599700.709
  23234925.215   -13687820.92749  -9963952.62646  23234924.976    23234933.186
  22126768.672   -20322831.87149 -15811748.87547  22126768.777    22126776.533
  24357680.164    -9514143.68349  -7084753.30445  24357680.059    24357690.107
  20567920.046   -29794666.17949 -23197219.20448  20567920.545    20567925.990
  20795447.046   -26050907.72049 -20276029.38948  20795447.042    20795454.066
 04  5 21  4  5  0.0000000  0  6G 3G20G27G 8G13G 1
  23588246.906    -6976482.21849  -5414231.17145  23588247.137    23588256.129
  23255592.699   -13579212.29049  -9879322.57946  23255592.458    23255600.812
  22117148.326   -20373386.82949 -15851142.30147  22117148.407    22117156.203
  24341132.473    -9601102.49149  -7152513.34145  24341132.375    24341142.352
  20560788.709   -29832141.55349 -23226420.77448  20560789.222    20560794.651
  20802067.930   -26016114.78349 -20248918.00548  20802067.928    20802074.971
 04  5 21  4  5 30.0000000  0  6G 3G20G27G 8G13G 1
  23576865.915    -7036289.42949  -5460834.13245  23576866.136    23576874.978
  23276290.743   -13470443.36149  -9794567.61746  23276290.579    23276298.876
  22107560.553   -20423770.92249 -15890402.59047  22107560.624    22107568.407
  24324605.066    -9687954.82649  -7220190.40345  24324604.936    24324614.902
  20553719.705   -29869289.38149 -23255367.10548  20553720.216    20553725.679
  20808755.918   -25980969.10849 -20221531.75848  20808755.928    20808762.952
 04  5 21  4  6  0.0000000  0  6G 3G20G27G 8G13G 1
  23565549.152    -7095758.68649  -5507173.73245  23565549.429    23565558.273
  23297018.939   -13361516.13049  -9709689.32446  23297018.819    23297027.139
  22098005.397   -20473983.50049 -15929529.22847  22098005.469    22098013.276
  24308098.273    -9774698.96249  -7287783.13745  24308098.094    24308107.972
  20546713.534   -29906106.82749 -23284056.00248  20546714.056    20546719.540
  20815511.265   -25945469.47849 -20193869.70448  20815511.281    20815518.291
 04  5 21  4  6 30.0000000  0  6G 3G20G27G 8G13G 1
  23554297.294    -7154887.70049  -5553248.19245  23554297.499    23554306.291
  23317776.663   -13252434.15449  -9624690.41246  23317776.449    23317784.757
  22088482.738   -20524025.08249 -15968522.63547  22088482.832    22088490.613
  24291611.872    -9861335.71649  -7355292.22445  24291611.668    24291621.497
  20539770.474   -29942592.71349 -23312486.53248  20539770.992    20539776.477
  20822333.967   -25909616.08649 -20165932.00148  20822333.958    20822340.969
 04  5 21  4  7  0.0000000  0  6G 3G20G27G 8G13G 1
  23543111.026    -7213672.60449  -5599054.56045  23543111.163    23543119.678
  23338563.500   -13143198.95349  -9539572.15246  23338563.249    23338571.606
  22078992.817   -20573894.85449 -16007382.16047  22078992.911    22079000.660
  24275146.150    -9947863.43149  -7422716.34645  24275145.926    24275155.716
  20532890.978   -29978744.47749 -23340656.70748  20532891.505    20532896.994
  20829224.200   -25873407.68749 -20137717.66348  20829224.198    20829231.206
 04  5 21  4  7 30.0000000  0  6G 3G20G27G 8G13G 1
  23531990.261    -7272111.45249  -5644591.25645  23531990.373    23531999.004
  23359378.746   -13033814.25649  -9454337.35646  23359378.429    23359386.814
  22069535.352   -20623594.00249 -16046108.72447  22069535.449    22069543.157
  24258701.119   -10034282.25049  -7490055.59145  24258700.911    24258710.680
  20526075.181   -30014561.64249 -23368566.15048  20526075.714    20526081.183
  20836181.837   -25836844.99149 -20109227.24548  20836181.821    20836188.825
 04  5 21  4  8  0.0000000  0  6G 3G20G27G 8G13G 1
  23520936.237    -7330199.96249  -5689854.94445  23520936.374    23520945.134
  23380222.198   -12924281.32249  -9368987.07746  23380221.919    23380230.370
  22060110.586   -20673121.23649 -16084701.33747  22060110.673    22060118.385
  24242276.974   -10120590.93949  -7557309.04645  24242276.772    24242286.785
  20519323.638   -30050041.01849 -23396212.39848  20519324.187    20519329.660
  20843207.297   -25799925.90049 -20080459.13148  20843207.288    20843214.295
 04  5 21  4  8 30.0000000  0  6G 3G20G27G 8G13G 1
  23509949.505    -7387936.21549  -5734844.14145  23509949.551    23509958.161
  23401093.118   -12814603.95249  -9283524.24046  23401092.840    23401101.289
  22050718.355   -20722477.48549 -16123160.70947  22050718.445    22050726.162
  24225873.715   -10206789.66349  -7624476.81245  24225873.517    24225883.619
  20512636.473   -30085182.21549 -23423595.12448  20512637.017    20512642.487
  20850300.445   -25762651.17249 -20051413.89148  20850300.427    20850307.450
 04  5 21  4  9  0.0000000  0  6G 3G20G27G 8G13G 1
  23499030.000    -7445318.69849  -5779557.69045  23499030.110    23499038.535
  23421990.735   -12704786.50749  -9197952.26446  23421990.444    23421999.029
  22041358.433   -20771664.19149 -16161487.97447  22041358.545    22041366.195
  24209491.280   -10292879.47749  -7691559.71445  24209491.178    24209501.093
  20506013.809   -30119984.66549 -23450713.89348  20506014.342    20506019.792
  20857461.089   -25725021.75149 -20022092.26747  20857461.070    20857468.087
 04  5 21  4  9 30.0000000  0  6G 3G20G27G 8G13G 1
  23488178.601    -7502342.61249  -5823991.82145  23488178.792    23488187.064
  23442914.803   -12594829.61749  -9112271.64745  23442914.547    23442923.141
  22032031.106   -20820679.57249 -16199681.72647  22032031.182    22032038.846
  24193130.222   -10378857.36249  -7758555.39645  24193130.104    24193139.869
  20499456.249   -30154444.68249 -23477565.83548  20499456.781    20499462.222
  20864689.666   -25687035.45649 -19992492.57147  20864689.636    20864696.679
 04  5 21  4 10  0.0000000  0  6G 3G20G27G 8G13G 1
  23477395.713    -7559006.69549  -5868145.56145  23477395.907    23477404.117
  23463864.733   -12484737.16349  -9026485.37645  23463864.445    23463873.134
  22022736.051   -20869525.06249 -16237743.10847  22022736.137    22022743.847
  24176790.013   -10464725.14549  -7825465.27745  24176789.917    24176799.722
  20492963.942   -30188561.81349 -23504150.59148  20492964.486    20492969.920
  20871985.931   -25648693.12649 -19962615.43547  20871985.915    20871992.956
 04  5 21  4 10 30.0000000  0  6G 3G20G27G 8G13G 1
  23466681.972    -7615307.67649  -5912016.35245  23466682.164    23466690.341
  23484839.979   -12374511.73349  -8940595.45345  23484839.763    23484848.341
  22013473.348   -20918200.46849 -16275671.95147  22013473.470    22013481.204
  24160471.024   -10550481.52149  -7892288.33045  24160470.934    24160480.698
  20486537.271   -30222334.17049 -23530466.69548  20486537.805    20486543.218
  20879350.128   -25609994.07949 -19932460.33647  20879350.107    20879357.146
 04  5 21  4 11  0.0000000  0  6G 3G20G27G 8G13G 1
  23456037.879    -7671242.53849  -5955601.87045  23456038.023    23456046.200
  23505840.004   -12264156.00549  -8854604.04845  23505839.766    23505848.411
  22004243.094   -20966705.75149 -16313468.24147  22004243.200    22004250.918
  24144173.455   -10636126.06949  -7959024.26645  24144173.297    24144183.075
  20480176.472   -30255760.11249 -23556512.87048  20480177.018    20480182.441
  20886782.227   -25570938.10849 -19902027.11947  20886782.221    20886789.275
 04  5 21  4 11 30.0000000  0  6G 3G20G27G 8G13G 1
  23445463.902    -7726808.41149  -5998899.87645  23445464.044    23445472.350
  23526864.493   -12153672.41749  -8768512.98145  23526864.261    23526872.867
  21995045.245   -21015040.67649 -16351131.76947  21995045.337    21995053.039
  24127897.053   -10721658.09149  -8025672.52245  24127896.975    24127906.842
  20473882.010   -30288837.76949 -23582287.65248  20473882.556    20473887.945
  20894282.356   -25531524.65949 -19871315.35847  20894282.359    20894289.419
 04  5 21  4 12  0.0000000  0  6G 3G20G27G 8G13G 1
  23434960.524    -7782003.44049  -6041908.92845  23434960.694    23434968.953
  23547912.520   -12043064.60149  -8682325.13245  23547912.309    23547920.888
  21985879.559   -21063206.50249 -16388663.54147  21985879.642    21985887.335
  24111642.151   -10807078.23149  -8092233.61545  24111642.078    24111651.915
  20467653.950   -30321566.43649 -23607790.48948  20467654.488    20467659.899
  20901850.397   -25491754.34349 -19840325.50447  20901850.410    20901857.474
 04  5 21  4 12 30.0000000  0  6G 3G20G27G 8G13G 1
  23424528.533    -7836824.16649  -6084626.30845  23424528.666    23424536.777
  23568983.821   -11932334.60749  -8596042.07945  23568983.542    23568992.218
  21976746.196   -21111202.43249 -16426062.91947  21976746.285    21976753.988
  24095408.847   -10892384.90949  -8158706.28245  24095408.706    24095418.507
  20461492.756   -30353943.65449 -23633019.47248  20461493.313    20461498.681
  20909486.539   -25451626.27149 -19809056.88047  20909486.534    20909493.580
 04  5 21  4 13  0.0000000  0  7G 3G20G27G 8G19G13G 1
  23414168.024    -7891268.82149  -6127050.62145  23414168.159    23414176.304
  23590077.598   -11821486.30049  -8509666.82045  23590077.360    23590085.940
  21967644.975   -21159029.57649 -16463330.77147  21967645.046    21967652.723
  24079196.898   -10977579.04049  -8225091.25845  24079196.719    24079206.531
  24734722.944    -4486889.73649  -3451838.87945  24734722.478    24734730.677
  20455398.526   -30385968.91949 -23657974.19748  20455399.072    20455404.450
  20917190.638   -25411141.09349 -19777509.98747  20917190.610    20917197.659
 04  5 21  4 13 30.0000000  0  7G 3G20G27G 8G19G13G 1
  23403879.704    -7945333.71749  -6169179.04045  23403879.881    23403888.086
  23611193.463   -11710521.61149  -8423200.90645  23611193.281    23611201.951
  21958575.962   -21206687.39749 -16500466.68747  21958576.044    21958583.654
  24063006.482   -11062659.52949  -8291387.68445  24063006.328    24063016.158
  24718745.876    -4570849.65549  -3517262.14045  24718745.449    24718753.550
  20449371.706   -30417639.99949 -23682652.93948  20449372.244    20449377.623
  20924962.821   -25370297.89949 -19745684.12447  20924962.810    20924969.883
 04  5 21  4 14  0.0000000  0  7G 3G20G27G 8G19G13G 1
  23393664.176    -7999016.22249  -6211009.51945  23393664.354    23393672.504
  23632330.989   -11599443.27149  -8336646.39045  23632330.878    23632339.479
  21949539.171   -21254175.83249 -16537470.61947  21949539.250    21949546.842
  24046837.862   -11147625.47249  -8357594.85245  24046837.751    24046847.622
  24702774.550    -4654779.85649  -3582662.12945  24702773.976    24702782.060
  20443412.693   -30448954.83849 -23707054.09148  20443413.220    20443418.598
  20932803.186   -25329096.40949 -19713579.06347  20932803.182    20932810.263
 04  5 21  4 14 30.0000000  0  7G 3G20G27G 8G19G13G 1
  23383521.757    -8052314.77249  -6252540.77145  23383521.925    23383530.101
  23653489.387   -11488255.12149  -8250006.34045  23653489.320    23653497.928
  21940534.339   -21301496.29849 -16574343.66047  21940534.454    21940542.008
  24030690.803   -11232478.08249  -8423713.72545  24030690.819    24030700.580
  24686809.094    -4738678.50249  -3648037.59845  24686808.469    24686816.566
  20437521.568   -30479912.92249 -23731177.25248  20437522.108    20437527.447
  20940711.552   -25287537.62149 -19681195.60347  20940711.557    20940718.630
 04  5 21  4 15  0.0000000  0  7G 3G20G27G 8G19G13G 1
  23373453.132    -8105224.97149  -6293769.42145  23373453.365    23373461.626
  23674668.610   -11376958.16349  -8163281.47645  23674668.468    23674676.969
  21931561.811   -21348647.17849 -16611084.55847  21931561.906    21931569.444
  24014565.973   -11317215.20749  -8489742.58645  24014565.882    24014575.544
  24670850.603    -4822540.45849  -3713384.47045  24670849.976    24670858.000
  20431698.911   -30510511.07549 -23755019.95248  20431699.459    20431704.792
  20948688.337   -25245619.43349 -19648532.08847  20948688.335    20948695.380
 04  5 21  4 15 30.0000000  0  7G 3G20G27G 8G19G13G 1
  23363458.786    -8157745.68049  -6334694.56945  23363458.934    23363467.131
  23695867.616   -11265557.02749  -8076475.46045  23695867.472    23695875.956
  21922621.209   -21395630.10849 -16647694.58547  21922621.315    21922628.854
  23998462.645   -11401838.18049  -8555682.48645  23998462.670    23998472.295
  24654899.234    -4906364.71849  -3778701.96145  24654898.719    24654906.640
  20425944.747   -30540749.40549 -23778582.26248  20425945.272    20425950.608
  20956733.259   -25203343.29949 -19615589.65247  20956733.245    20956740.266
 04  5 21  4 16  0.0000000  0  7G 3G20G27G 8G19G13G 1
  23353539.222    -8209873.27549  -6375313.41345  23353539.381    23353547.488
  23717086.212   -11154053.16649  -7989589.37845  23717085.963    23717094.438
  21913712.773   -21442444.24949 -16684173.09947  21913712.862    21913720.369
  23982381.535   -11486345.18749  -8621532.02445  23982381.562    23982391.167
  24638955.874    -4990147.00149  -3843986.78445  24638955.337    24638963.108
  20420259.525   -30570625.29949 -23801862.15748  20420260.048    20420265.371
  20964846.477   -25160708.04349 -19582367.38147  20964846.459    20964853.473
 04  5 21  4 16 30.0000000  0  7G 3G20G27G 8G19G13G 1
  23343694.678    -8261606.35449  -6415624.84446  23343694.846    23343702.945
  23738323.557   -11042450.59549  -7902626.38645  23738323.281    23738331.819
  21904836.177   -21489090.95349 -16720521.13147  21904836.267    21904843.774
  23966322.255   -11570737.17649  -8687291.92645  23966322.241    23966331.930
  24623020.820    -5073885.67149  -3909237.60845  24623020.368    24623027.976
  20414643.384   -30600138.31649 -23824859.29148  20414643.926    20414649.189
  20973027.815   -25117714.75749 -19548866.12947  20973027.805    20973034.849
 04  5 21  4 17  0.0000000  0  7G 3G20G27G 8G19G13G 1
  23333925.898    -8312941.07049  -6455625.84146  23333926.139    23333934.240
  23759579.257   -10930751.17049  -7815587.92745  23759578.966    23759587.523
  21895991.563   -21535569.33749 -16756738.01447  21895991.661    21895999.191
  23950285.049   -11655012.49849  -8752960.93545  23950284.993    23950294.792
  24607094.755    -5157576.93849  -3974451.46145  24607094.343    24607101.846
  20409096.809   -30629285.89049 -23847571.67148  20409097.326    20409102.579
  20981277.509   -25074362.30049 -19515085.00047  20981277.504    20981284.530
 04  5 21  4 17 30.0000000  0  7G 3G20G27G 8G19G13G 1
  23324233.312    -8363876.11849  -6495315.43146  23324233.510    23324241.437
  23780852.578   -10818958.66349  -7728476.92145  23780852.378    23780860.970
  21887178.771   -21581880.52349 -16792824.60147  21887178.881    21887186.403
  23934270.053   -11739171.91149  -8818539.61045  23934269.990    23934279.613
  24591178.325    -5241218.35649  -4039626.47545  24591177.812    24591185.465
  20403619.828   -30658067.44849 -23869998.84548  20403620.357    20403625.578
  20989595.396   -25030651.46549 -19481024.62247  20989595.386    20989602.401
 04  5 21  4 18  0.0000000  0  7G 3G20G27G 8G19G13G 1
  23314617.197    -8414408.27149  -6534691.05746  23314617.436    23314625.495
  23802143.172   -10707075.31249  -7641295.14045  23802142.960    23802151.824
  21878397.925   -21628024.07449 -16828780.57247  21878398.040    21878405.532
  23918277.122   -11823215.08749  -8884027.71045  23918277.011    23918286.555
  24575272.003    -5324806.57149  -4104760.00045  24575271.484    24575279.097
  20398212.934   -30686480.96749 -23892139.23148  20398213.471    20398218.662
  20997981.624   -24986581.53549 -19446684.43447  20997981.630    20997988.645
 04  5 21  4 18 30.0000000  0  7G 3G20G27G 8G19G13G 1
  23305078.526    -8464534.32049  -6573750.24546  23305078.759    23305086.780
  23823450.738   -10595103.33149  -7554044.29545  23823450.568    23823459.466
  21869649.026   -21673999.72449 -16864605.71047  21869649.147    21869656.588
  23902306.478   -11907140.60349  -8949424.12645  23902306.348    23902315.904
  24559376.231    -5408338.30549  -4169849.55545  24559375.818    24559383.352
  20392876.466   -30714524.24549 -23913991.12248  20392877.005    20392882.194
  21006436.337   -24942151.86449 -19412063.92647  21006436.317    21006443.326
 04  5 21  4 19  0.0000000  0  7G 3G20G27G 8G19G13G 1
  23295617.442    -8514252.95249  -6612491.94846  23295617.669    23295625.569
  23844774.495   -10483046.43849  -7466727.31345  23844774.276    23844783.236
  21860931.874   -21719808.68049 -16900300.94947  21860931.972    21860939.395
  23886358.095   -11990949.28449  -9014729.50345  23886357.918    23886367.591
  24543491.850    -5491811.59149  -4234893.57745  24543491.364    24543498.847
  20387610.500   -30742196.88049 -23935554.19148  20387611.041    20387616.248
  21014959.280   -24897363.46149 -19377163.87247  21014959.266    21014966.306
 04  5 21  4 19 30.0000000  0  7G 3G20G27G 8G19G13G 1
  23286234.327    -8563561.15949  -6650913.84046  23286234.506    23286242.437
  23866113.742   -10370907.06849  -7379346.03545  23866113.733    23866122.619
  21852246.465   -21765450.66249 -16935866.08547  21852246.575    21852253.954
  23870432.166   -12074640.40749  -9079943.28245  23870432.094    23870441.609
  24527619.206    -5575222.88349  -4299889.30445  24527618.693    24527626.101
  20382415.463   -30769496.91949 -23956826.93048  20382416.017    20382421.201
  21023550.632   -24852215.61349 -19341983.74347  21023550.619    21023557.693
 04  5 21  4 20  0.0000000  0  7G 3G20G27G 8G19G13G 1
  23276929.839    -8612455.40949  -6689013.18146  23276930.047    23276938.035
  23887468.613   -10258687.12949  -7291901.95245  23887468.529    23887477.379
  21843593.004   -21810924.77549 -16971300.41147  21843593.115    21843600.459
  23854528.759   -12158212.96249  -9145064.65945  23854528.684    23854538.132
  24511759.006    -5658568.15649  -4364833.58545  24511758.413    24511765.880
  20377291.763   -30796422.01149 -23977807.50048  20377292.304    20377297.508
  21032210.538   -24806707.50649 -19306522.88647  21032210.524    21032217.615
 04  5 21  4 20 30.0000000  0  7G 3G20G27G 8G19G13G 1
  23267704.824    -8660933.75049  -6726788.44946  23267704.993    23267712.878
  23908838.022   -10146390.09549  -7204397.85145  23908837.926    23908846.851
  21834971.236   -21856232.05249 -17006604.73347  21834971.354    21834978.712
  23838647.874   -12241666.94249  -9210093.64245  23838647.738    23838657.177
  24495911.771    -5741845.35849  -4429724.79745  24495911.115    24495918.773
  20372239.625   -30822971.04249 -23998495.03948  20372240.172    20372245.385
  21040938.902   -24760839.75849 -19270781.78847  21040938.911    21040945.955
 04  5 21  4 21  0.0000000  0  7G 3G20G27G 8G19G13G 1
  23258559.143    -8708994.09849  -6764237.98446  23258559.285    23258567.354
  23930221.701   -10034018.76649  -7116835.81945  23930221.512    23930230.354
  21826381.227   -21901372.66649 -17041779.19747  21826381.341    21826388.694
  23822789.577   -12325002.51349  -9275030.35845  23822789.536    23822798.836
  24480077.917    -5825051.55349  -4494560.68345  24480077.445    24480085.064
  20367259.296   -30849142.69249 -24018888.51448  20367259.859    20367265.077
  21049735.660   -24714612.55949 -19234760.60847  21049735.651    21049742.687
 04  5 21  4 21 30.0000000  0  7G 3G20G27G 8G19G13G 1
  23249493.591    -8756634.10349  -6801359.97346  23249493.740    23249501.763
  23951618.983    -9921576.23149  -7029218.32545  23951618.669    23951627.554
  21817822.879   -21946347.05449 -17076824.12347  21817822.975    21817830.325
  23806954.088   -12408219.12249  -9339874.38845  23806953.999    23806963.222
  24464258.423    -5908183.87149  -4559339.06645  24464257.877    24464265.204
  20362351.006   -30874935.86149 -24038987.07048  20362351.557    20362356.785
  21058600.808   -24668026.02149 -19198459.42247  21058600.804    21058607.819
 04  5 21  4 22  0.0000000  0  7G 3G20G27G 8G19G13G 1
  23240508.445    -8803851.21249  -6838152.47346  23240508.581    23240516.602
  23973029.388    -9809065.10549  -6941547.37145  23973029.086    23973037.705
  21809296.117   -21991155.26649 -17111739.56247  21809296.218    21809303.563
  23791141.081   -12491316.41049  -9404625.42245  23791141.036    23791150.290
  24448453.537    -5991239.19749  -4624057.40445  24448452.859    24448460.027
  20357515.089   -30900348.71149 -24058789.27148  20357515.625    20357520.856
  21067534.369   -24621080.02749 -19161878.14447  21067534.329    21067541.381
 04  5 21  4 22 30.0000000  0  7G 3G20G27G 8G19G13G 1
  23231604.200    -8850642.50249  -6874613.16846  23231604.376    23231612.307
  23994452.342    -9696487.52849  -6853824.64045  23994451.966    23994460.613
  21800801.081   -22035796.76549 -17146525.10047  21800801.179    21800808.519
  23775350.930   -12574293.70949  -9469282.97945  23775350.868    23775360.152
  24432663.836    -6074213.84249  -4688712.80945  24432663.289    24432670.456
  20352751.899   -30925379.26949 -24078293.57948  20352752.453    20352757.685
  21076536.391   -24573773.88449 -19125016.22647  21076536.378    21076543.468
 04  5 21  4 23  0.0000000  0  7G 3G20G27G 8G19G13G 1
  23222781.429    -8897005.68049  -6910740.23546  23222781.554    23222789.621
  24015887.295    -9583846.66949  -6766052.59245  24015886.967    24015895.497
  21792337.655   -22080272.07249 -17181181.13247  21792337.749    21792345.120
  23759583.556   -12657150.95149  -9533846.98345  23759583.582    23759592.862
  24416890.161    -6157105.16349  -4753303.30545  24416889.559    24416896.923
  20348061.694   -30950026.25349 -24097498.99648  20348062.240    20348067.485
  21085606.974   -24526107.88549 -19087873.89747  21085606.948    21085614.010
 04  5 21  4 23 30.0000000  0  7G 3G20G27G 8G19G13G 1
  23214040.727    -8942938.14449  -6946531.68746  23214040.914    23214049.022
  24037333.686    -9471145.30349  -6678233.39845  24037333.350    24037341.862
  21783905.805   -22124581.31549 -17215707.76847  21783905.906    21783913.293
  23743839.246   -12739887.71749  -9598317.09845  23743839.222    23743848.513
  24401132.636    -6239910.27949  -4817826.67945  24401132.078    24401139.460
  20343444.770   -30974288.36649 -24116404.51748  20343445.306    20343450.547
  21094745.998   -24478082.05149 -19050451.17747  21094745.991    21094753.031
 04  5 21  4 24  0.0000000  0  7G 3G20G27G 8G19G13G 1
  23205382.472    -8988438.01849  -6981986.06746  23205382.588    23205390.576
  24058791.020    -9358386.55449  -6590369.50445  24058790.735    24058799.280
  21775505.489   -22168725.20249 -17250105.55447  21775505.581    21775512.934
  23728117.951   -12822503.96049  -9662693.31145  23728117.866    23728127.110
  24385391.948    -6322626.79349  -4882280.99745  24385391.456    24385398.901
  20338901.285   -30998164.48549 -24135009.27448  20338901.831    20338907.038
  21103953.357   -24429696.99349 -19012748.54947  21103953.347    21103960.417
 04  5 21  4 24 30.0000000  0  7G 3G20G27G 8G19G13G 1
  23196806.707    -9033503.24649  -7017101.78746  23196806.805    23196814.755
  24080258.650    -9245573.18749  -6502463.01145  24080258.414    24080267.057
  21767136.585   -22212703.96449 -17284374.67047  21767136.685    21767144.033
  23712419.458   -12904999.77149  -9726975.67646  23712419.334    23712428.572
  24369668.777    -6405251.71849  -4946663.87945  24369668.300    24369675.805
  20334431.528   -31021653.15649 -24153312.11648  20334432.086    20334437.277
  21113229.124   -24380952.71049 -18974766.00547  21113229.116    21113236.185
 04  5 21  4 25  0.0000000  0  7G 3G20G27G 8G19G13G 1
  23188314.314    -9078130.46449  -7051876.17746  23188314.494    23188322.432
  24101736.453    -9132707.11149  -6414515.45045  24101736.185    24101744.812
  21758799.226   -22256516.70349 -17318514.42647  21758799.337    21758806.679
  23696744.038   -12987373.76449  -9791163.12045  23696743.935    23696753.230
  24353963.926    -6487780.63649  -5010971.97545  24353963.402    24353971.099
  20330035.971   -31044751.95549 -24171311.17048  20330036.519    20330041.711
  21122573.398   -24331848.18949 -18936502.75247  21122573.387    21122580.446
 04  5 21  4 25 30.0000000  0  7G 3G20G27G 8G19G13G 1
  23179905.555    -9122318.52549  -7086308.36446  23179905.695    23179913.682
  24123223.428    -9019792.28649  -6326529.93645  24123223.100    24123231.830
  21750493.232   -22300164.86449 -17352525.93247  21750493.357    21750500.666
  23681091.717   -13069626.74849  -9855256.28145  23681091.612    23681100.989
  24338277.744    -6570212.24149  -5075204.26545  24338277.191    24338284.758
  20325714.648   -31067460.67249 -24189006.25748  20325715.200    20325720.384
  21131985.933   -24282384.91449 -18897959.94747  21131985.930    21131993.025
 04  5 21  4 26  0.0000000  0  7G 3G20G27G 8G19G13G 1
  23171580.898    -9166064.02549  -7120395.69946  23171580.999    23171589.191
  24144719.346    -8906830.44749  -6238507.76445  24144718.989    24144727.746
  21742218.745   -22343647.56449 -17386408.50447  21742218.825    21742226.141
  23665462.555   -13151757.72149  -9919254.37245  23665462.472    23665471.926
  24322610.677    -6652542.36549  -5139357.49045  24322610.117    24322617.650
  20321467.962   -31089777.02149 -24206395.59948  20321468.510    20321473.694
  21141466.940   -24232561.80549 -18859136.76247  21141466.937    21141474.071
 04  5 21  4 26 30.0000000  0  8G 3G20G27G 8G19G13G31G 1
  23163341.113    -9209363.40949  -7154135.43646  23163341.303    23163349.507
  24166223.866    -8793822.95149  -6150450.04845  24166223.532    24166232.522
  21733975.953   -22386963.57249 -17420161.19047  21733976.032    21733983.331
  23649856.987   -13233764.90149  -9983155.98545  23649856.905    23649866.419
  24306963.723    -6734766.56549  -5203428.16045  24306963.260    24306970.700
  20317296.588   -31111697.87649 -24223476.75948  20317297.138    20317302.268
  24625784.415    -6823884.30249  -5300235.31545  24625784.504    24625794.776
  21151016.715   -24182377.58349 -18820032.18147  21151016.706    21151023.830
 04  5 21  4 27  0.0000000  0  8G 3G20G27G 8G19G13G31G 1
  23155186.574    -9252216.28249  -7187527.22746  23155186.767    23155194.815
  24187736.183    -8680774.70249  -6062360.53945  24187735.979    24187745.060
  21725764.477   -22430115.05649 -17453785.66747  21725764.546    21725771.812
  23634274.869   -13315649.67349 -10046962.23445  23634274.732    23634284.202
  24291337.317    -6816883.71849  -5267415.40845  24291336.857    24291344.232
  20313200.312   -31133223.94749 -24240250.30848  20313200.854    20313205.959
  24606562.725    -6924894.30549  -5378944.25645  24606562.772    24606572.909
  21160634.756   -24131834.44049 -18780647.92247  21160634.757    21160641.865
 04  5 21  4 27 30.0000000  0  8G 3G20G27G 8G19G13G31G 1
  23147117.258    -9294620.97849  -7220569.79446  23147117.474    23147125.331
  24209255.871    -8567688.89849  -5974241.79645  24209255.511    24209264.650
  21717584.176   -22473102.87349 -17487282.61647  21717584.249    21717591.444
  23618715.872   -13397412.54149 -10110673.49346  23618715.674    23618725.112
  24275731.535    -6898891.58549  -5331317.48945  24275731.081    24275738.419
  20309179.289   -31154354.33149 -24256715.53348  20309179.837    20309184.936
  24587331.163    -7025956.40149  -5457693.81445  24587331.235    24587340.978
  21170320.973   -24080933.05749 -18740984.51947  21170320.962    21170328.032
 04  5 21  4 28  0.0000000  0  8G 3G20G27G 8G19G13G31G 1
  23139133.796    -9336574.24349  -7253260.56846  23139133.961    23139141.888
  24230782.259    -8454567.35149  -5886095.18445  24230781.869    24230791.047
  21709435.181   -22515926.16849 -17520651.36247  21709435.231    21709442.408
  23603180.250   -13479052.27849 -10174288.81146  23603180.059    23603189.561
  24260147.525    -6980786.18249  -5395131.31845  24260147.009    24260154.269
  20305234.039   -31175086.64649 -24272870.56348  20305234.589    20305239.693
  24568090.199    -7127066.85849  -5536481.01345  24568090.405    24568100.356
  21180075.571   -24029672.46349 -18701041.20747  21180075.569    21180082.658
 04  5 21  4 28 30.0000000  0  8G 3G20G27G 8G19G13G31G 1
  23131236.605    -9378073.63649  -7285597.70046  23131236.798    23131244.739
  24252314.736    -8341412.70849  -5797922.81445  24252314.512    24252323.782
  21701317.402   -22558584.82749 -17553891.82547  21701317.481    21701324.675
  23587668.136   -13560568.69949 -10237808.03046  23587667.947    23587677.457
  24244585.698    -7062564.47049  -5458854.56245  24244585.093    24244592.253
  20301364.835   -31195419.50849 -24288714.33748  20301365.387    20301370.485
  24548840.829    -7228222.78549  -5615303.70545  24548841.092    24548850.784
  21189898.485   -23978052.71049 -18660818.04247  21189898.469    21189905.574
 04  5 21  4 29  0.0000000  0  8G 3G20G27G 8G19G13G31G 1
  23123426.329    -9419116.42149  -7317579.04946  23123426.545    23123434.358
  24273853.207    -8228227.43849  -5709726.56245  24273852.981    24273862.295
  21693230.992   -22601078.78949 -17587003.94347  21693231.099    21693238.305
  23572179.615   -13641961.06449 -10301230.58646  23572179.470    23572188.945
  24229046.422    -7144223.09349  -5522484.51245  24229045.831    24229052.968
  20297571.995   -31215351.09449 -24304245.42148  20297572.533    20297577.615
  24529583.075    -7329420.93849  -5694159.18545  24529583.174    24529593.301
  21199789.726   -23926073.67349 -18620314.90947  21199789.721    21199796.871
 04  5 21  4 29 30.0000000  0  8G 3G20G27G 8G19G13G31G 1
  23115703.265    -9459701.59049  -7349203.79046  23115703.431    23115711.120
  24295396.856    -8115015.06849  -5621509.19045  24295396.598    24295405.825
  21685175.731   -22643409.20849 -17619988.62947  21685175.835    21685183.018
  23556714.628   -13723229.86949 -10364556.83546  23556714.456    23556723.927
  24213530.369    -7225760.01149  -5586019.63845  24213529.743    24213537.057
  20293855.594   -31234881.01149 -24319463.52648  20293856.126    20293861.176
  24510318.129    -7430659.50649  -5773046.30545  24510318.299    24510327.935
  21209749.152   -23873736.41149 -18579532.63947  21209749.176    21209756.323
 04  5 21  4 30  0.0000000  0  8G 3G20G27G 8G19G13G31G 1
  23108067.822    -9499825.89649  -7380469.40446  23108067.997    23108075.657
  24316945.221    -8001777.25749  -5533271.97945  24316944.990    24316954.209
  21677151.735   -22685575.30249 -17652845.28547  21677151.850    21677159.022
  23541273.379   -13804374.03949 -10427785.98246  23541273.216    23541282.560
  24198038.186    -7307170.83549  -5649456.53545  24198037.577    24198044.927
  20290216.077   -31254006.59749 -24334366.56448  20290216.605    20290221.648
  24491046.368    -7531933.69049  -5851961.07845  24491046.502    24491055.753
  21219777.016   -23821039.84349 -18538470.38747  21219777.024    21219784.155
 04  5 21  4 30 30.0000000  0  8G 3G20G27G 8G19G13G31G 1
  23100520.408    -9539488.25349  -7411375.05746  23100520.533    23100528.293
  24338497.779    -7888517.92949  -5445018.03845  24338497.509    24338506.913
  21669158.894   -22727577.72549 -17685574.40147  21669159.013    21669166.175
  23525855.772   -13885393.68149 -10490918.11146  23525855.668    23525864.911
  24182570.674    -7388453.88249  -5712793.87145  24182570.045    24182577.152
  20286653.570   -31272727.57049 -24348954.31948  20286654.102    20286659.157
  24471767.700    -7633242.57049  -5930902.87545  24471767.718    24471777.160
  21229872.943   -23767985.39249 -18497129.26547  21229872.945    21229880.099
 04  5 21  4 31  0.0000000  0  8G 3G20G27G 8G19G13G31G 1
  23093061.355    -9578685.91849  -7441918.64246  23093061.497    23093069.099
  24360053.970    -7775239.20449  -5356748.98745  24360053.855    24360063.114
  21661197.175   -22769416.67949 -17718176.13747  21661197.295    21661204.447
  23510461.940   -13966288.88249 -10553953.24246  23510461.786    23510471.109
  24167127.952    -7469605.38749  -5776028.68845  24167127.366    24167134.379
  20283168.443   -31291042.05849 -24363225.32448  20283168.974    20283174.040
  24452483.166    -7734582.44549  -6009868.80245  24452483.059    24452492.736
  21240037.033   -23714572.63249 -18455508.94147  21240037.058    21240044.215
 04  5 21  4 31 30.0000000  0  8G 3G20G27G 8G19G13G31G 1
  23085690.999    -9617416.84549  -7472098.52646  23085691.139    23085698.696
  24381613.385    -7661943.85249  -5268466.92045  24381613.131    24381622.472
  21653266.623   -22811092.03449 -17750650.39647  21653266.725    21653273.870
  23495092.004   -14047058.99649 -10616890.90646  23495091.776    23495100.953
  24151710.897    -7550622.54149  -5839158.83745  24151710.328    24151717.339
  20279760.860   -31308948.94149 -24377178.72048  20279761.393    20279766.455
  24433193.223    -7835950.31849  -6088856.62145  24433193.272    24433202.867
  21250269.295   -23660801.85649 -18413609.66147  21250269.315    21250276.410
 04  5 21  4 32  0.0000000  0  8G 3G20G27G 8G19G13G31G 1
  23078409.958    -9655678.13649  -7501912.44646  23078410.109    23078417.809
  24403175.545    -7548633.68449  -5180173.35645  24403175.303    24403184.701
  21645367.290   -22852603.24549 -17782996.75447  21645367.384    21645374.505
  23479745.879   -14127702.78649 -10679730.12446  23479745.720    23479754.814
  24136320.263    -7631501.45349  -5902181.29645  24136319.634    24136326.469
  20276431.294   -31326445.81849 -24390812.62848  20276431.828    20276436.887
  24413898.634    -7937342.49349  -6167863.40845  24413898.730    24413908.391
  21260569.859   -23606672.38649 -18371430.86547  21260569.864    21260576.972
 04  5 21  4 32 30.0000000  0  8G 3G20G27G 8G19G13G31G 1
  23071218.672    -9693467.83649  -7531358.88646  23071218.868    23071226.702
  24424740.059    -7435311.89649  -5091870.74745  24424739.785    24424749.143
  21637499.056   -22893950.90849 -17815215.67447  21637499.151    21637506.262
  23464423.713   -14208220.63049 -10742471.20146  23464423.588    23464432.623
  24120956.229    -7712239.49249  -5965093.93845  24120955.660    24120962.429
  20273179.940   -31343531.77749 -24404126.33948  20273180.459    20273185.506
  24394600.155    -8038756.54849  -6246887.23645  24394600.240    24394609.834
  21270938.502   -23552184.89549 -18328973.09447  21270938.486    21270945.606
 04  5 21  4 33  0.0000000  0  8G 3G20G27G 8G19G13G31G 1
  23064117.697    -9730783.67149  -7560436.09846  23064117.844    23064125.625
  24446306.278    -7321981.09549  -5003561.05345  24446305.904    24446315.447
  21629661.920   -22935134.98649 -17847307.12047  21629662.007    21629669.132
  23449125.725   -14288611.57549 -10805113.39646  23449125.648    23449134.662
  24105619.555    -7792833.33749  -6027894.20945  24105618.968    24105625.920
  20270007.045   -31360205.31749 -24417118.68148  20270007.586    20270012.619
  24375298.070    -8140189.14949  -6325925.45345  24375298.142    24375307.934
  21281375.308   -23497339.36749 -18286236.33047  21281375.261    21281382.407
 04  5 21  4 33 30.0000000  0  8G 3G20G27G 8G19G13G31G 1
  23057106.976    -9767624.53949  -7589143.20146  23057107.127    23057114.789
  24467873.631    -7208644.60549  -4915246.96945  24467873.184    24467882.939
  21621855.757   -22976156.24149 -17879271.68847  21621855.851    21621862.992
  23433851.742   -14368876.90849 -10867657.69046  23433851.632    23433860.566
  24090310.604    -7873280.96749  -6090580.60145  24090310.056    24090317.151
  20266912.749   -31376465.90649 -24429789.24148  20266913.278    20266918.300
  24355992.995    -8241638.34149  -6404976.67245  24355992.948    24356002.828
  21291880.013   -23442136.93849 -18243221.47047  21291879.988    21291887.097
 04  5 21  4 34  0.0000000  0  8G 3G20G27G 8G19G13G31G 1
  23050187.352    -9803987.57949  -7617477.98046  23050187.547    23050195.009
  24489441.678    -7095304.23749  -4826929.85145  24489441.162    24489450.867
  21614080.747   -23017013.98049 -17911108.85147  21614080.863    21614087.986
  23418601.943   -14449014.90749 -10930102.76746  23418601.850    23418610.712
  24075030.296    -7953578.47449  -6153149.96545  24075029.784    24075036.917
  20263897.469   -31392311.11949 -24442136.14048  20263897.995    20263903.025
  24336685.318    -8343099.95049  -6484037.50445  24336685.393    24336695.084
  21302452.771   -23386576.74249 -18199927.82647  21302452.739    21302459.876
 04  5 21  4 34 30.0000000  0  8G 3G20G27G 8G19G13G31G 1
  23043358.969    -9839871.71049  -7645439.58446  23043359.085    23043366.448
  24511009.685    -6981963.88649  -4738612.76445  24511009.171    24511018.544
  21606336.653   -23057709.50649 -17942819.61747  21606336.754    21606343.832
  23403376.163   -14529026.50649 -10992449.36246  23403376.080    23403384.956
  24059778.892    -8033723.92849  -6215600.84645  24059778.392    24059785.533
  20260961.242   -31407741.01649 -24454159.41248  20260961.768    20260966.774
  24317375.728    -8444572.21749  -6563106.69845  24317375.811    24317385.315
  21313093.321   -23330660.32649 -18156356.60147  21313093.303    21313100.447
 04  5 21  4 35  0.0000000  0  8G 3G20G27G 8G19G13G31G 1
  23036622.065    -9875274.14049  -7673025.82046  23036622.179    23036629.607
  24532577.411    -6868625.37349  -4650297.07045  24532577.050    24532586.302
  21598623.503   -23098242.14249 -17974403.45247  21598623.624    21598630.675
  23388174.708   -14608910.74249 -11054696.70346  23388174.593    23388183.451
  24044557.474    -8113713.27749  -6277930.09945  24044556.900    24044563.910
  20258104.523   -31422753.22649 -24465857.21048  20258105.066    20258110.045
  24298065.049    -8546051.41249  -6642181.26445  24298064.970    24298074.344
  21323801.787   -23274386.96949 -18112507.25447  21323801.769    21323808.895
 04  5 21  4 35 30.0000000  0  8G 3G20G27G 8G19G13G31G 1
  23029977.115    -9910192.72949  -7700235.05846  23029977.319    23029984.757
  24554144.168    -6755291.46149  -4561984.97245  24554143.680    24554153.149
  21590941.328   -23138612.04049 -18005860.47247  21590941.452    21590948.503
  23372997.427   -14688667.68349 -11116844.86446  23372997.251    23373006.154
  24029366.269    -8193543.55549  -6340135.36145  24029365.676    24029372.609
  20255327.477   -31437346.50449 -24477228.56648  20255327.998    20255332.991
  24278753.517    -8647534.51449  -6721258.88845  24278753.368    24278762.721
  21334578.074   -23217757.03749 -18068380.04447  21334578.039    21334585.229
 04  5 21  4 36  0.0000000  0  8G 3G20G27G 8G19G13G31G 1
  23023424.733    -9944625.28749  -7727065.56246  23023424.924    23023432.263
  24575709.635    -6641964.49149  -4473678.30645  24575709.100    24575718.556
  21583290.138   -23178818.95149 -18037190.50347  21583290.289    21583297.350
  23357844.398   -14768296.51649 -11178893.18546  23357844.282    23357853.100
  24014205.855    -8273211.52249  -6402214.18045  24014205.342    24014212.237
  20252630.545   -31451518.79949 -24488271.88648  20252631.065    20252636.064
  24259441.661    -8749018.21749  -6800336.99045  24259441.519    24259450.759
  21345422.241   -23160770.56249 -18023975.01247  21345422.212    21345429.412
 04  5 21  4 36 30.0000000  0  8G 3G20G27G 8G19G13G31G 1
  23016965.392    -9978570.03849  -7753515.96546  23016965.507    23016972.719
  24597273.219    -6528647.30949  -4385379.25145  24597272.732    24597282.093
  21575670.018   -23218863.04749 -18068393.64847  21575670.144    21575677.184
  23342715.923   -14847796.69349 -11240841.27846  23342715.795    23342724.585
  23999076.978    -8352714.34849  -6464164.36145  23999076.445    23999083.181
  20250013.775   -31465269.95749 -24498987.05048  20250014.297    20250019.299
  24240130.228    -8850499.68649  -6879413.32545  24240130.137    24240139.388
  21356334.217   -23103427.84349 -17979292.38747  21356334.168    21356341.379
 04  5 21  4 37  0.0000000  0  8G 3G20G27G 8G19G13G31G 1
  23010598.924   -10012025.75149  -7779585.30946  23010599.074    23010606.306
  24618834.399    -6415342.94849  -4297090.21445  24618833.886    24618843.446
  21568080.697   -23258745.00649 -18099470.45547  21568080.808    21568087.808
  23327611.838   -14927168.86649 -11302689.64346  23327611.700    23327620.440
  23983979.833    -8432049.42649  -6525983.76545  23983979.297    23983986.036
  20247477.349   -31478598.76149 -24509373.10948  20247477.883    20247482.878
  24220819.903    -8951976.38949  -6958485.97845  24220819.736    24220828.954
  21367313.776   -23045729.74449 -17934332.84147  21367313.767    21367320.996
 04  5 21  4 37 30.0000000  0  8G 3G20G27G 8G19G13G31G 1
  23004326.064   -10044989.35149  -7805271.14946  23004326.237    23004333.515
  24640392.991    -6302053.21949  -4208812.51145  24640392.231    24640401.835
  21560522.372   -23298464.17549 -18130420.41347  21560522.511    21560529.441
  23312532.415   -15006412.00649 -11364437.42946  23312532.190    23312540.861
  23968915.477    -8511212.80349  -6587669.42045  23968915.035    23968921.593
  20245021.731   -31491502.96949 -24519428.31048  20245022.283    20245027.272
  24201511.170    -9053444.52149  -7037551.95845  24201510.924    24201519.994
  21378361.073   -22987675.75349 -17889095.97047  21378361.079    21378368.284
 04  5 21  4 38  0.0000000  0  8G 3G20G27G 8G19G13G31G 1
  22998146.991   -10077460.09749  -7830572.96946  22998147.144    22998154.542
  24661947.759    -6188781.84649  -4120549.21345  24661947.039    24661956.774
  21552994.856   -23338021.56249 -18161244.30147  21552994.962    21553001.895
  23297477.366   -15085525.92349 -11426084.53446  23297477.173    23297485.889
  23953884.343    -8590202.46349  -6649219.72545  23953883.881    23953890.114
  20242647.005   -31503982.21549 -24529152.37748  20242647.547    20242652.526
  24182204.317    -9154901.76449  -7116609.44245  24182204.059    24182213.028
  21389475.865   -22929267.17649 -17843582.79247  21389475.884    21389483.069
 04  5 21  4 38 30.0000000  0  8G 3G20G27G 8G19G13G31G 1
  22992062.446   -10109434.64849  -7855488.15146  22992062.636    22992069.768
  24683499.024    -6075530.27049  -4032301.29345  24683498.280    24683507.893
  21545498.320   -23377415.99849 -18191941.21647  21545498.412    21545505.340
  23282446.980   -15164509.98449 -11487630.47646  23282446.848    23282455.589
  23938886.973    -8669014.06449  -6710631.25045  23938886.474    23938892.659
  20240353.618   -31516033.95249 -24538543.32348  20240354.174    20240359.143
  24162900.369    -9256343.88649  -7195655.08945  24162900.013    24162909.120
  21400658.336   -22870503.04649 -17797792.57547  21400658.343    21400665.546
 04  5 21  4 39  0.0000000  0  8G 3G20G27G 8G19G13G31G 1
  22986072.494   -10140912.42649  -7880016.24646  22986072.603    22986079.557
  24705045.582    -5962302.18949  -3944071.69245  24705045.073    24705054.688
  21538032.463   -23416648.92049 -18222512.27747  21538032.570    21538039.519
  23267441.293   -15243364.71049 -11549075.61546  23267441.136    23267449.903
  23923923.782    -8747645.92049  -6771902.71646  23923923.273    23923929.432
  20238141.563   -31527658.30349 -24547601.23848  20238142.116    20238147.101
  24143599.645    -9357769.10249  -7274687.54545  24143599.394    24143608.567
  21411908.123   -22811384.93249 -17751726.52047  21411908.134    21411915.348
 04  5 21  4 39 30.0000000  0  8G 3G20G27G 8G19G13G31G 1
  22980177.363   -10171890.43249  -7904154.88046  22980177.505    22980184.653
  24726587.385    -5849099.16549  -3855861.60045  24726586.769    24726596.654
  21530597.606   -23455719.18949 -18252956.60047  21530597.718    21530604.692
  23252460.375   -15322089.33149 -11610419.39346  23252460.267    23252469.020
  23908995.588    -8826093.65049  -6833030.69645  23908995.047    23909001.268
  20236011.284   -31538852.81749 -24556324.21648  20236011.821    20236016.810
  24124302.915    -9459173.19049  -7353703.56645  24124302.733    24124311.930
  21423225.453   -22751911.98149 -17705383.97147  21423225.450    21423232.664
 04  5 21  4 40  0.0000000  0  8G 3G20G27G 8G19G13G31G 1
  22974377.590   -10202367.48149  -7927903.15946  22974377.729    22974385.057
  24748123.825    -5735924.31049  -3767673.47345  24748123.371    24748133.064
  21523193.539   -23494627.64649 -18283274.83347  21523193.643    21523200.609
  23237504.400   -15400683.69049 -11671661.64946  23237504.211    23237512.964
  23894102.746    -8904355.04449  -6894013.52645  23894102.297    23894108.558
  20233962.978   -31549616.75049 -24564711.67448  20233963.528    20233968.484
  24105010.542    -9560553.77849  -7432701.23445  24105010.480    24105019.815
  21434610.153   -22692085.25349 -17658765.75147  21434610.128    21434617.313
 04  5 21  4 40 30.0000000  0  8G 3G20G27G 8G19G13G31G 1
  22968673.848   -10232341.25249  -7951259.29646  22968673.938    22968681.237
  24769654.574    -5622780.04149  -3679509.17645  24769654.115    24769663.679
  21515820.402   -23533373.78049 -18313466.59447  21515820.497    21515827.448
  23222573.374   -15479146.46749 -11732801.38846  23222573.207    23222581.921
  23879246.125    -8982426.74549  -6954848.52746  23879245.692    23879252.017
  20231996.828   -31559948.75949 -24572762.58348  20231997.370    20232002.312
  24085723.388    -9661907.37749  -7511677.90845  24085723.421    24085732.494
  21446062.115   -22631904.65549 -17611871.79647  21446062.100    21446069.296
 04  5 21  4 41  0.0000000  0  7G 3G27G 8G19G13G31G 1
  22963065.896   -10261811.61849  -7974223.16746  22963065.960    22963073.161
  21508477.804   -23571959.27549 -18343533.17147  21508477.911    21508484.815
  23207666.973   -15557480.10049 -11793840.51246  23207666.777    23207675.435
  23864425.986    -9060306.96349  -7015534.32146  23864425.562    23864431.803
  20230112.927   -31569848.83649 -24580476.91748  20230113.464    20230118.385
  24066441.922    -9763232.28949  -7590632.21545  24066441.849    24066450.667
  21457581.120   -22571372.01649 -17564703.52147  21457581.116    21457588.319
 04  5 21  4 41 30.0000000  0  7G 3G27G 8G19G13G31G 1
  22957554.243   -10290774.86949  -7996791.88946  22957554.287    22957561.571
  21501166.068   -23610382.46249 -18373473.27347  21501166.182    21501173.056
  23192785.593   -15635681.90249 -11854776.88146  23192785.399    23192794.026
  23849643.316    -9137991.03749  -7076067.31746  23849642.826    23849648.887
  20228311.756   -31579314.05049 -24587852.39748  20228312.281    20228317.211
  24047166.846    -9864523.77549  -7669560.53345  24047166.763    24047175.363
  21469167.351   -22510486.08149 -17517259.96547  21469167.355    21469174.544
 04  5 21  4 42  0.0000000  0  7G 3G27G 8G19G13G31G 1
  22952139.145   -10319229.71249  -8018964.42846  22952139.295    22952146.721
  21493885.165   -23648643.84749 -18403287.29347  21493885.263    21493892.105
  23177929.209   -15713751.83149 -11915610.53246  23177929.074    23177937.721
  23834898.224    -9215476.12249  -7136445.21746  23834897.734    23834903.896
  20226593.456   -31588343.61849 -24594888.40948  20226593.990    20226598.918
  24027898.547    -9965778.92549  -7748460.53345  24027898.542    24027907.074
  21480820.676   -22449247.59949 -17469541.68847  21480820.647    21480827.862
 04  5 21  4 42 30.0000000  0  7G 3G27G 8G19G13G31G 1
  22946821.482   -10347174.07049  -8040739.18746  22946821.666    22946829.039
  21486635.125   -23686742.98249 -18432974.88347  21486635.212    21486642.059
  23163098.033   -15791689.68449 -11976341.25546  23163097.901    23163106.584
  23820191.742    -9292758.92449  -7196665.49246  23820191.205    23820197.503
  20224958.387   -31596935.82349 -24601583.62348  20224958.922    20224963.853
  24008637.802   -10066994.17849  -7827329.38045  24008637.617    24008646.471
  21492541.051   -22387656.53549 -17421548.65847  21492541.043    21492548.247
 04  5 21  4 43  0.0000000  0  7G 3G27G 8G19G13G31G 1
  22941601.221   -10374607.18949  -8062115.59846  22941601.400    22941608.644
  21479415.704   -23724681.17949 -18462537.07847  21479415.800    21479422.660
  23148291.819   -15869496.44349 -12036969.83146  23148291.761    23148300.379
  23805524.023    -9369837.67949  -7256726.81046  23805523.459    23805529.744
  20223406.521   -31605090.83649 -24607938.17048  20223407.047    20223411.994
  23989384.712   -10168168.25249  -7906166.18745  23989384.726    23989393.489
  21504328.259   -22325714.53949 -17373282.18947  21504328.243    21504335.460
 04  5 21  4 43 30.0000000  0  7G 3G27G 8G19G13G31G 1
  22936478.483   -10401526.96049  -8083091.96746  22936478.676    22936485.967
  21472227.058   -23762457.65849 -18491973.24447  21472227.127    21472233.988
  23133510.936   -15947170.79049 -12097495.23146  23133510.834    23133519.372
  23790895.831    -9446708.61449  -7316626.15845  23790895.197    23790901.633
  20221938.250   -31612806.70149 -24613950.52448  20221938.783    20221943.721
  23970140.583   -10269296.62849  -7984967.43045  23970140.606    23970149.211
  21516182.195   -22263421.51049 -17324742.19347  21516182.177    21516189.408
 04  5 21  4 44  0.0000000  0  7G 3G27G 8G19G13G31G 1
  22931453.722   -10427931.84149  -8103667.14646  22931453.935    22931461.156
  21465069.040   -23800073.13349 -18521283.96147  21465069.122    21465075.960
  23118755.185   -16024712.47349 -12157917.26346  23118755.070    23118763.590
  23776307.821    -9523368.84049  -7376361.33246  23776307.245    23776313.649
  20220553.737   -31620082.48449 -24619619.95248  20220554.252    20220559.174
  23950905.938   -10370376.56749  -8063730.93945  23950905.903    23950914.353
  21528102.875   -22200778.08849 -17275929.16647  21528102.854    21528110.071
 04  5 21  4 44 30.0000000  0  7G 3G27G 8G19G13G31G 1
  22926527.405   -10453819.68749  -8123839.43746  22926527.645    22926534.727
  21457941.716   -23837527.04449 -18550468.79247  21457941.806    21457948.642
  23104024.738   -16102120.98049 -12218235.50346  23104024.647    23104033.171
  23761760.592    -9599815.05049  -7435929.74346  23761760.035    23761766.323
  20219253.223   -31626916.75749 -24624945.34048  20219253.752    20219258.655
  23931680.617   -10471404.86449  -8142454.17045  23931680.633    23931689.208
  21540090.220   -22137784.18149 -17226843.01947  21540090.196    21540097.449
 04  5 21  4 45  0.0000000  0  7G 3G27G 8G19G13G31G 1
  22921699.812   -10479189.12449  -8143607.77346  22921700.027    22921707.146
  21450845.088   -23874819.76749 -18579528.02447  21450845.189    21450852.018
  23089319.583   -16179396.63749 -12278450.22846  23089319.527    23089328.044
  23747254.366    -9676044.48449  -7495329.23745  23747253.858    23747260.339
  20218036.847   -31633308.78449 -24629926.14048  20218037.374    20218042.257
  23912465.910   -10572378.30249  -8221134.66045  23912466.024    23912474.683
  21552144.081   -22074440.61349 -17177484.41947  21552144.071    21552151.316
 04  5 21  4 45 30.0000000  0  7G 3G27G 8G19G13G31G 1
  22916971.126   -10504039.11749  -8162971.33646  22916971.301    22916978.444
  21443779.101   -23911951.87949 -18608462.10147  21443779.171    21443786.003
  23074639.618   -16256539.69349 -12338561.62246  23074639.560    23074648.158
  23732789.992    -9752054.69049  -7554557.91146  23732789.522    23732796.022
  20216904.771   -31639257.72549 -24634561.65948  20216905.308    20216910.176
  23893262.170   -10673294.57049  -8299770.62245  23893262.239    23893270.803
  21564264.306   -22010748.47249 -17127854.21147  21564264.300    21564271.567
 04  5 21  4 46  0.0000000  0  8G10G 3G27G 8G19G13G31G 1
  24624168.477    -4951566.72349  -3523806.58945  24624167.923    24624177.200
  22912341.017   -10528370.08349  -8181930.47546  22912341.226    22912348.440
  21436743.280   -23948925.16549 -18637272.42447  21436743.351    21436750.169
  23059984.847   -16333551.31649 -12398570.60446  23059984.715    23059993.267
  23718367.660    -9827844.49149  -7613614.82446  23718367.167    23718373.645
  20215856.924   -31644764.15349 -24638852.37948  20215857.453    20215862.329
  23874069.609   -10774151.95849  -8378360.74945  23874069.626    23874078.087
  21576450.504   -21946709.85549 -17077954.01347  21576450.474    21576457.718
 04  5 21  4 46 30.0000000  0  8G10G 3G27G 8G19G13G31G 1
  24608894.488    -5031831.29849  -3586350.36245  24608894.077    24608903.418
  22907810.603   -10552177.22549  -8200481.42746  22907810.793    22907818.040
  21429738.278   -23985736.58149 -18665956.60747  21429738.351    21429745.159
  23045355.544   -16410428.38049 -12458474.75346  23045355.383    23045363.978
  23703988.377    -9903407.62849  -7672495.14845  23703987.931    23703994.265
  20214894.104   -31649823.71649 -24642794.88448  20214894.640    20214899.499
  23854889.266   -10874944.56449  -8456900.36545  23854889.314    23854897.587
  21588703.036   -21882322.32049 -17027781.91947  21588703.051    21588710.313
 04  5 21  4 47  0.0000000  0  8G10G 3G27G 8G19G13G31G 1
  24593692.617    -5111718.18949  -3648599.82845  24593692.261    24593701.515
  22903380.352   -10575457.78649  -8218622.05146  22903380.569    22903387.821
  21422764.292   -24022385.14149 -18694513.89247  21422764.349    21422771.151
  23030752.165   -16487169.36849 -12518272.86946  23030752.072    23030760.578
  23689653.130    -9978739.94949  -7731195.61146  23689652.675    23689658.875
  20214016.658   -31654434.76949 -24646387.90948  20214017.187    20214022.029
  23835722.207   -10975667.65749  -8535385.80945  23835722.173    23835730.430
  21601022.126   -21817585.21349 -16977337.44947  21601022.134    21601029.393
 04  5 21  4 47 30.0000000  0  8G10G 3G27G 8G19G13G31G 1
  24578562.414    -5191228.28649  -3710555.68945  24578562.175    24578571.090
  22899050.248   -10598213.11149  -8236353.42846  22899050.417    22899057.468
  21415820.663   -24058873.92349 -18722946.67547  21415820.726    21415827.546
  23016174.163   -16563777.27449 -12577967.25246  23016174.074    23016182.505
  23675361.614   -10053841.74349  -7789716.40046  23675361.179    23675367.449
  20213224.217   -31658598.93849 -24649632.71048  20213224.766    20213229.600
  23816568.439   -11076321.45649  -8613817.26545  23816568.403    23816576.610
  21613406.999   -21752502.21249 -16926623.44847  21613407.030    21613414.303
 04  5 21  4 48  0.0000000  0  8G10G 3G27G 8G19G13G31G 1
  24563504.732    -5270356.36949  -3772213.90045  24563504.530    24563513.341
  22894820.733   -10620439.32849  -8253672.51346  22894820.885    22894827.923
  21408907.895   -24095200.28549 -18751252.89547  21408907.982    21408914.817
  23001622.202   -16640248.71849 -12637555.32246  23001622.079    23001630.399
  23661115.375   -10128707.03449  -7848052.96746  23661114.871    23661120.936
  20212517.607   -31662312.26949 -24652526.20148  20212518.135    20212522.976
  23797428.903   -11176899.93549  -8692190.01745  23797428.813    23797437.118
  21625858.134   -21687071.07049 -16875638.17447  21625858.160    21625865.451
 04  5 21  4 48 30.0000000  0  8G10G 3G27G 8G19G13G31G 1
  24548520.014    -5349101.83649  -3833573.97045  24548519.703    24548528.554
  22890691.763   -10642137.07649  -8270579.80146  22890691.934    22890698.879
  21402025.664   -24131366.36049 -18779434.20447  21402025.756    21402032.596
  22987095.788   -16716585.47749 -12697038.44546  22987095.645    22987103.911
  23646913.979   -10203335.01949  -7906204.57546  23646913.552    23646919.623
  20211896.527   -31665576.04149 -24655069.39048  20211897.065    20211901.898
  23778303.963   -11277402.11449  -8770503.34345  23778303.832    23778312.123
  21638375.112   -21621294.40149 -16824383.64547  21638375.105    21638382.363
 04  5 21  4 49  0.0000000  0  8G10G 3G27G 8G19G13G31G 1
  24533608.851    -5427460.15049  -3894632.35445  24533608.596    24533617.385
  22886663.988   -10663302.92249  -8287072.60246  22886664.152    22886671.154
  21395174.302   -24167370.24749 -18807489.14647  21395174.399    21395181.245
  22972595.241   -16792786.11949 -12756415.50046  22972595.083    22972603.352
  23632758.872   -10277720.68449  -7964167.37346  23632758.462    23632764.444
  20211361.524   -31668387.31949 -24657259.98948  20211362.085    20211366.898
  23759194.309   -11377822.84749  -8848753.16545  23759194.082    23759202.617
  21650958.027   -21555170.84149 -16772858.82447  21650958.024    21650965.280
 04  5 21  4 49 30.0000000  0  8G10G 3G27G 8G19G13G31G 1
  24518771.372    -5505431.09049  -3955388.88345  24518771.069    24518779.902
  22882737.220   -10683937.30449  -8303151.28246  22882737.381    22882744.532
  21388353.422   -24203213.91549 -18835419.23747  21388353.541    21388360.398
  22958120.477   -16868851.67249 -12815687.28446  22958120.304    22958128.529
  23618649.982   -10351863.15149  -8021940.68146  23618649.520    23618655.511
  20210912.548   -31670746.84349 -24659098.56748  20210913.086    20210917.883
  23740100.594   -11478160.78149  -8926938.53645  23740100.389    23740108.772
  21663606.520   -21488702.85449 -16721065.60247  21663606.477    21663613.728
 04  5 21  4 50  0.0000000  0  8G10G 3G27G 8G19G13G31G 1
  24504008.484    -5583010.45749  -4015840.32645  24504008.238    24504016.931
  22878912.299   -10704037.11649  -8318813.42946  22878912.459    22878919.673
  21381563.441   -24238895.56949 -18863223.07947  21381563.542    21381570.414
  22943671.716   -16944780.06849 -12874852.19546  22943671.557    22943679.768
  23604588.219   -10425757.50849  -8079520.62946  23604587.754    23604593.816
  20210550.034   -31672651.78849 -24660582.93548  20210550.557    20210555.356
  23721023.527   -11578411.06449  -9005055.60445  23721023.458    23721031.695
  21676320.703   -21421889.34649 -16669003.14647  21676320.686    21676327.990
 04  5 21  4 50 30.0000000  0  8G10G 3G27G 8G19G13G31G 1
  24489320.321    -5660197.51749  -4075986.05645  24489319.907    24489328.679
  22875189.060   -10723602.76349  -8334059.34246  22875189.246    22875196.312
  21374803.849   -24274417.20249 -18890902.22747  21374803.941    21374810.805
  22929248.724   -17020573.06749 -12933911.59146  22929248.541    22929256.789
  23590573.995   -10499402.87549  -8136906.58246  23590573.467    23590579.527
  20210273.870   -31674103.04249 -24661713.76948  20210274.398    20210279.222
  23701963.319   -11678572.28549  -9083103.22745  23701963.202    23701971.601
  21689100.107   -21354732.80249 -16616673.38147  21689100.158    21689107.474
 04  5 21  4 51  0.0000000  0  8G10G 3G27G 8G19G13G31G 1
  24474707.534    -5736988.59749  -4135823.24145  24474707.192    24474715.756
  22871568.090   -10742631.58849  -8348886.95546  22871568.203    22871575.136
  21368075.020   -24309777.27049 -18918455.47447  21368075.119    21368081.961
  22914851.767   -17096229.23149 -12992864.36646  22914851.539    22914859.771
  23576607.777   -10572794.66949  -8194094.94146  23576607.304    23576613.404
  20210084.490   -31675098.10949 -24662489.13248  20210085.019    20210089.834
  23682921.009   -11778639.75549  -9161077.80645  23682921.005    23682929.397
  21701945.015   -21287232.38249 -16564075.68247  21701945.046    21701952.358
 04  5 21  4 51 30.0000000  0  8G10G 3G27G 8G19G13G31G 1
  24460170.207    -5813382.45049  -4195350.89645  24460169.907    24460178.519
  22868049.113   -10761123.24449  -8363295.98946  22868049.299    22868056.198
  21361376.672   -24344977.12349 -18945883.87847  21361376.757    21361383.585
  22900480.686   -17171749.12949 -13051710.97446  22900480.477    22900488.697
  23562690.502   -10645931.02749  -8251084.25546  23562689.959    23562696.047
  20209981.847   -31675637.36949 -24662909.33048  20209982.390    20209987.210
  23663897.088   -11878611.46849  -9238977.80445  23663896.995    23663905.233
  21714855.108   -21219389.76649 -16511211.32947  21714855.079    21714862.416
 04  5 21  4 52  0.0000000  0  8G10G 3G27G 8G19G13G31G 1
  24445709.137    -5889375.57249  -4254566.32445  24445708.678    24445717.401
  22864632.985   -10779075.13849  -8377284.43746  22864633.085    22864640.011
  21354709.102   -24380015.35349 -18973186.33147  21354709.183    21354716.020
  22886135.915   -17247131.08049 -13110450.08146  22886135.768    22886143.935
  23548822.487   -10718807.65849  -8307871.16246  23548821.959    23548828.148
  20209966.445   -31675718.33949 -24662972.40648  20209966.981    20209971.797
  23644892.017   -11978483.03249  -9316799.71345  23644891.992    23644900.533
  21727830.379   -21151204.35949 -16458079.85947  21727830.366    21727837.645
 04  5 21  4 52 30.0000000  0  8G10G 3G27G 8G19G13G31G 1
  24431324.719    -5964966.43649  -4313468.29945  24431324.246    24431333.022
  22861319.452   -10796487.01249  -8390852.10546  22861319.608    22861326.554
  21348072.063   -24414893.01949 -19000363.67147  21348072.137    21348078.977
  22871817.212   -17322375.91149 -13169082.36046  22871817.071    22871825.274
  23535004.361   -10791422.56249  -8364454.16646  23535003.836    23535009.856
  20210038.214   -31675341.21949 -24662678.54348  20210038.741    20210043.562
  23625906.472   -12078251.97849  -9394541.69245  23625906.556    23625915.053
  21740870.650   -21082677.67149 -16404682.45747  21740870.628    21740877.846
 04  5 21  4 53  0.0000000  0  8G10G 3G27G 8G19G13G31G 1
  24417017.404    -6040152.09649  -4372054.54845  24417017.010    24417025.578
  22858109.064   -10813357.15849  -8403997.62146  22858109.260    22858116.255
  21341465.707   -24449609.53849 -19027415.44347  21341465.771    21341472.587
  22857524.696   -17397483.00949 -13227607.28746  22857524.555    22857532.804
  23521236.606   -10863772.27849  -8420830.51946  23521236.077    23521242.058
  20210197.485   -31674504.25949 -24662026.35148  20210198.031    20210202.848
  23606941.137   -12177914.83049  -9472200.94845  23606941.185    23606949.807
  21753975.772   -21013809.94849 -16351019.31847  21753975.736    21753982.937
